     2.11           OBSERVATION DATA    G (GPS)             RINEX VERSION / TYPE
teqc 2010Oct21 OPUS Account 20111028 16:31:37UTC            PGM / RUN BY / DATE
Y 1526                                                      MARKER NAME
3059                                                        MARKER NUMBER
CSMIDDLETON NGS                                             OBSERVER / AGENCY
4624K01583 TRIMBLE NETR5 4.41                               REC # / TYPE / VERS
60154430 TRM41249.00 NONE                                   ANT # / TYPE
  -740838.7539 -5580958.7005  2987398.6593                  APPROX POSITION XYZ
        2.0000        0.0000        0.0000                  ANTENNA: DELTA H/E/N
     1     1                                                WAVELENGTH FACT L1/2
     5    L1    L2    C1    P1    P2                        # / TYPES OF OBSERV
    15                                                      LEAP SECONDS
  2011     8    24     0     0    0.0000000     GPS         TIME OF FIRST OBS
                                                            END OF HEADER
 11  8 24  0  0  0.0000000  0  9G04G10G09G12G17G05G25G02G30
 113479304.09318  88425564.32655  21594373.797                    21594382.852
 109755418.55618  85523810.14756  20885732.414                    20885741.090
 123654242.12917  96354030.00854  23530628.508                    23530639.980
 113352370.57017  88326592.35017  21570229.984                    21570238.102
 121403779.76217  94600457.63116  23102378.109                    23102387.625
 116143369.12317  90501423.33417  22101330.750                    22101340.078
 127857141.75917  99628946.93216  24330397.617                    24330409.637
 108460817.70718  84515099.10756  20639386.492                    20639392.316
 127449326.44117  99311236.90954  24252807.789                    24252818.297
 11  8 24  0  0 30.0000000  0  9G04G10G09G12G17G05G25G02G30
 113554810.287 8  88484400.32045  21608741.555                    21608750.727
 109751539.382 8  85520787.43646  20884994.414                    20885002.879
 123730193.607 7  96413212.88644  23545081.422                    23545093.445
 113288042.957 7  88276466.983 7  21557989.086                    21557996.664
 121454375.652 7  94639882.950 6  23112006.133                    23112016.039
 116051489.418 7  90429828.876 7  22083846.609                    22083855.867
 127756104.287 7  99550216.521 6  24311170.461                    24311183.129
 108458344.467 8  84513171.92846  20638915.930                    20638921.594
 127346121.164 6  99230817.30643  24233168.273                    24233178.988
 11  8 24  0  1  0.0000000  0  9G04G10G09G12G17G05G25G02G30
 113630465.447 8  88543352.36345  21623138.664                    21623147.156
 109748288.007 8  85518253.92346  20884375.648                    20884384.238
 123806339.807 7  96472547.49044  23559571.656                    23559583.809
 113224121.042 8  88226657.736 7  21545825.227                    21545832.859
 121505122.966 7  94679426.246 6  23121662.914                    23121673.113
 115959893.929 7  90358455.876 7  22066416.344                    22066426.184
 127655215.843 7  99471602.243 6  24291972.148                    24291984.680
 108456165.783 8  84511474.26246  20638501.094                    20638507.285
 127243121.385 6  99150557.83443  24213567.664                    24213578.574
 11  8 24  0  1 30.0000000  0  9G04G10G09G12G17G05G25G02G30
 113706267.314 8  88602418.72945  21637563.273                    21637572.074
 109745664.979 8  85516210.03546  20883876.352                    20883884.742
 123882677.437 7  96532031.25444  23574097.711                    23574109.965
 113160606.902 7  88177166.239 7  21533738.742                    21533746.461
 121556022.474 7  94719088.140 6  23131348.828                    23131358.297
 115868584.868 7  90287306.079 7  22049040.828                    22049050.297
 127554478.887 7  99393105.996 6  24272802.875                    24272815.066
 108454280.491 8  84510005.22246  20638142.414                    20638148.379
 127140329.953 6  99070460.64343  24194007.594                    24194017.566
 11  8 24  0  2  0.0000000  0  9G04G10G09G12G17G05G25G02G30
 113782214.293 8  88661598.16245  21652015.359                    21652024.355
 109743670.734 8  85514656.09046  20883497.055                    20883505.313
 123959203.136 7  96591661.57344  23588660.375                    23588672.430
 113097502.908 7  88127994.342 7  21521730.484                    21521738.395
 121607074.716 7  94758869.026 6  23141064.063                    23141073.656
 115777565.491 7  90216382.007 7  22031720.047                    22031729.852
 127453896.050 7  99314729.842 6  24253661.992                    24253674.383
 108452687.677 8  84508764.08646  20637839.438                    20637845.113
 127037749.571 6  98990527.91943  24174487.219                    24174497.496
 11  8 24  0  2 30.0000000  0  9G04G10G09G12G17G05G25G02G30
 113858304.196 8  88720888.97345  21666494.930                    21666504.141
 109742305.466 8  85513592.27146  20883237.273                    20883246.117
 124035913.408 7  96651435.73144  23603257.867                    23603270.082
 113034811.996 8  88079144.324 7  21509800.594                    21509808.203
 121658280.243 7  94798769.373 6  23150807.836                    23150817.945
 115686838.918 7  90145686.089 7  22014455.188                    22014464.672
 127353469.995 7  99236475.867 6  24234552.141                    24234564.086
 108451386.052 8  84507749.85646  20637591.547                    20637597.324
 126935383.197 6  98910761.95743  24155006.852                    24155017.344
 11  8 24  0  3  0.0000000  0  9G04G10G09G12G17G05G25G02G30
 113934534.936 8  88780289.53245  21681001.508                    21681010.219
 109741569.465 8  85513018.78546  20883097.094                    20883105.699
 124112804.996 7  96711351.15144  23617889.813                    23617902.012
 112972536.058 8  88030617.665 7  21497949.750                    21497957.539
 121709639.896 7  94838789.829 6  23160581.242                    23160591.391
 115596407.855 7  90075220.452 7  21997246.750                    21997256.563
 127253203.298 6  99158346.067 6  24215471.672                    24215483.813
 108450374.753 8  84506961.85046  20637399.180                    20637405.066
 126833233.591 6  98831164.93343  24135567.922                    24135579.340
 11  8 24  0  3 30.0000000  0  9G04G10G09G12G17G05G25G02G30
 114010904.528 8  88839798.27345  21695533.945                    21695542.531
 109741462.849 8  85512935.73246  20883076.844                    20883085.438
 124189874.248 6  96771405.01744  23632556.016                    23632568.250
 112910677.289 7  87982416.063 7  21486178.641                    21486186.496
 121761153.855 7  94878930.496 6  23170384.688                    23170394.246
 115506275.406 7  90004987.493 7  21980095.156                    21980105.270
 127153098.442 6  99080342.403 6  24196421.664                    24196434.406
 108449652.368 8  84506398.97646  20637261.813                    20637267.637
 126731303.549 6  98751739.00742  24116171.672                    24116181.680
 11  8 24  0  4  0.0000000  0  9G04G10G09G12G17G05G25G02G30
 114087410.910 8  88899413.61545  21710092.500                    21710101.344
 109741986.154 8  85513343.54446  20883176.258                    20883185.004
 124267117.851 6  96831594.74544  23647254.633                    23647266.871
 112849238.828 8  87934541.974 7  21474487.227                    21474494.625
 121812823.222 7  94919192.269 6  23180216.438                    23180226.723
 115416444.004 7  89934989.120 7  21963000.492                    21963010.613
 127053158.034 6  99002466.871 6  24177403.320                    24177416.051
 108449217.751 8  84506060.34146  20637179.000                    20637184.977
 126629595.916 6  98672486.32642  24096817.438                    24096827.461
 11  8 24  0  4 30.0000000  0  9G04G10G09G12G17G05G25G02G30
 114164052.221 8  88959134.08345  21724676.875                    21724685.754
 109743139.718 8  85514242.45346  20883395.727                    20883404.605
 124344532.500 6  96891917.74744  23661986.422                    23661998.875
 112788222.597 7  87886996.895 7  21462876.500                    21462883.820
 121864648.575 7  94959575.591 6  23190079.094                    23190088.891
 115326916.979 7  89865227.924 7  21945964.406                    21945973.633
 126953384.681 6  98924721.520 6  24158417.063                    24158430.098
 108449069.915 8  84505945.17146  20637151.328                    20637157.027
 126528113.506 6  98593409.20243  24077506.430                    24077515.609
 11  8 24  0  5  0.0000000  0  9G04G10G09G12G17G05G25G02G30
 114240825.984 8  89018957.75545  21739286.438                    21739295.129
 109744923.216 8  85515632.22646  20883735.016                    20883743.527
 124422114.582 7  96952371.22244  23676750.602                    23676762.352
 112727630.504 8  87839782.315 7  21451345.938                    21451353.879
 121916630.146 7  95000080.633 6  23199970.852                    23199980.930
 115237696.428 7  89795705.541 7  21928985.773                    21928995.297
 126853780.725 6  98847108.166 6  24139463.523                    24139475.844
 108449207.297 8  84506052.24946  20637176.836                    20637182.934
 126426858.910 6  98514509.61643  24058238.078                    24058248.156
 11  8 24  0  5 30.0000000  0  9G04G10G09G12G17G05G25G02G30
 114317730.630 8  89078883.41645  21753921.180                    21753930.074
 109747336.978 7  85517513.10546  20884194.680                    20884203.195
 124499860.859 6  97012952.63244  23691544.531                    23691556.727
 112667465.190 8  87792900.291 7  21439896.250                    21439904.387
 121968768.489 7  95040707.849 6  23209892.313                    23209902.176
 115148785.989 7  89726424.798 7  21912066.844                    21912075.750
 126754349.114 7  98769629.098 6  24120542.117                    24120554.281
 108449629.258 8  84506381.07846  20637257.281                    20637263.648
 126325835.225 6  98435789.94143  24039013.594                    24039023.891
 11  8 24  0  6  0.0000000  0  9G04G10G09G12G17G05G25G02G30
 114394764.339 8  89138909.64545  21768580.133                    21768589.273
 109750381.656 8  85519885.60746  20884773.844                    20884782.199
 124577767.961 7  97073659.38644  23706370.766                    23706382.172
 112607729.365 8  87746352.929 7  21428529.445                    21428537.246
 122021064.240 7  95081457.707 6  23219843.898                    23219854.250
 115060188.356 7  89657387.795 7  21895207.195                    21895216.379
 126655092.522 6  98692286.406 6  24101654.109                    24101666.188
 108450334.625 8  84506930.74046  20637391.367                    20637397.531
 126225045.293 7  98357252.45543  24019834.164                    24019843.742
 11  8 24  0  6 30.0000000  0  9G04G10G09G12G17G05G25G02G30
 114471925.039 8  89199034.84045  21783263.227                    21783272.309
 109754057.295 8  85522749.75946  20885473.445                    20885482.047
 124655832.607 7  97134488.88044  23721225.820                    23721237.563
 112548424.999 8  87700141.761 7  21417243.758                    21417251.598
 122073518.066 7  95122330.763 6  23229826.055                    23229835.512
 114971906.369 7  89588596.762 7  21878407.508                    21878416.723
 126556013.471 7  98615082.044 6  24082800.172                    24082811.914
 108451322.213 8  84507700.31446  20637579.211                    20637585.426
 126124491.954 7  98278899.30343  24000699.508                    24000708.996
 11  8 24  0  7  0.0000000  0  9G04G10G09G12G17G05G25G02G30
 114549210.479 8  89259257.21145  21797970.258                    21797979.285
 109758363.563 8  85526105.30646  20886292.633                    20886301.230
 124734051.233 7  97195438.33244  23736109.938                    23736122.051
 112489554.102 8  87654268.364 7  21406041.148                    21406049.461
 122126130.607 7  95163327.488 6  23239837.922                    23239847.648
 114883942.878 7  89520053.885 7  21861668.422                    21861677.488
 126457114.309 7  98538017.828 6  24063979.852                    24063991.832
 108452590.603 8  84508688.69646  20637821.195                    20637826.465
 126024177.680 7  98200732.49444  23981609.773                    23981619.660
 11  8 24  0  7 30.0000000  0  9G04G10G09G12G17G05G25G02G30
 114626618.697 8  89319575.26545  21812700.398                    21812709.160
 109763300.149 8  85529952.01246  20887232.117                    20887240.805
 124812420.165 7  97256504.92744  23751023.281                    23751035.754
 112431119.267 8  87608734.756 7  21394921.086                    21394928.820
 122178902.322 7  95204448.255 6  23249879.586                    23249890.156
 114796300.437 7  89451761.181 7  21844990.891                    21844999.723
 126358397.595 7  98461095.791 6  24045194.836                    24045206.855
 108454138.454 8  84509894.83846  20638115.555                    20638121.031
 125924105.242 7  98122754.08844  23962566.742                    23962576.926
 11  8 24  0  8  0.0000000  0  9G04G10G09G12G17G05G25G02G30
 114704148.236 8  89379987.88145  21827454.055                    21827462.879
 109768868.019 8  85534290.64246  20888291.633                    20888300.121
 124890936.668 7  97317686.49244  23765964.398                    23765976.520
 112373123.237 8  87563543.059 7  21383885.305                    21383893.000
 122231833.889 7  95245693.582 6  23259952.133                    23259962.738
 114708982.217 7  89383721.108 7  21828374.539                    21828383.379
 126259866.461 7  98384318.344 6  24026445.039                    24026456.805
 108455965.060 8  84511318.19546  20638462.680                    20638468.652
 125824278.027 7  98044966.76544  23943570.148                    23943580.367
 11  8 24  0  8 30.0000000  0  9G04G10G09G12G17G05G25G02G30
 114781796.629 8  89440493.10145  21842229.836                    21842238.934
 109775066.686 8  85539120.79046  20889471.367                    20889479.969
 124969596.975 7  97378980.11144  23780933.117                    23780945.008
 112315567.500 8  87518694.450 7  21372932.922                    21372940.008
 122284925.593 7  95287063.696 6  23270055.609                    23270065.262
 114621990.993 7  89315935.844 7  21811820.313                    21811829.859
 126161523.061 7  98307687.191 6  24007731.242                    24007742.859
 108458069.028 8  84512957.67146  20638863.203                    20638869.047
 125724698.301 6  97967372.28544  23924620.391                    23924630.457
 11  8 24  0  9  0.0000000  0  9G04G10G09G12G17G05G25G02G30
 114859562.344 8  89501089.75845  21857028.227                    21857037.063
 109781896.050 8  85544442.39246  20890770.984                    20890779.105
 125048397.827 7  97440383.28044  23795928.461                    23795940.473
 112258454.708 8  87474190.990 7  21362064.477                    21362072.160
 122338178.134 7  95328559.158 6  23280188.930                    23280198.965
 114535329.356 7  89248407.407 7  21795328.773                    21795338.688
 126063370.153 7  98231204.461 6  23989053.438                    23989064.746
 108460448.978 8  84514812.20246  20639316.055                    20639321.602
 125625369.041 6  97889972.97444  23905719.023                    23905728.441
 11  8 24  0  9 30.0000000  0  9G04G10G09G12G17G05G25G02G30
 114937443.588 8  89561776.42945  21871848.688                    21871857.586
 109789356.500 8  85550255.74646  20892190.570                    20892198.906
 125127335.982 7  97501893.44143  23810949.984                    23810961.926
 112201787.562 8  87430034.791 7  21351280.977                    21351288.504
 122391592.569 7  95370180.759 6  23290353.094                    23290363.277
 114449000.313 8  89181138.130 7  21778901.180                    21778910.391
 125965410.875 7  98154872.598 6  23970412.055                    23970423.559
 108463104.652 8  84516881.57446  20639821.375                    20639827.242
 125526293.469 6  97812771.34143  23886864.617                    23886875.168
 11  8 24  0 10  0.0000000  0  9G04G10G09G12G17G05G25G02G30
 115015438.173 8  89622551.42045  21886690.695                    21886700.000
 109797447.401 8  85556560.35646  20893729.992                    20893738.391
 125206407.932 7  97563507.85243  23825996.836                    23826009.059
 112145567.615 8  87386227.045 7  21340582.719                    21340590.043
 122445169.022 7  95411928.613 6  23300548.453                    23300558.617
 114363006.691 7  89114130.219 7  21762537.000                    21762546.395
 125867647.373 7  98078693.302 6  23951808.359                    23951819.656
 108466034.245 8  84519164.40146  20640378.734                    20640384.340
 125427474.130 6  97735769.32943  23868060.203                    23868070.363
 11  8 24  0 10 30.0000000  0  9G04G10G09G12G17G05G25G02G30
 115093544.395 8  89683413.39645  21901553.469                    21901562.457
 109806168.823 8  85563356.30546  20895389.672                    20895398.027
 125285610.218 7  97625223.83643  23841068.609                    23841080.730
 112089797.766 8  87342770.023 7  21329969.984                    21329977.965
 122498908.314 7  95453803.315 6  23310774.977                    23310785.277
 114277351.644 8  89047386.119 7  21746237.531                    21746247.133
 125770082.484 7  98002668.771 6  23933242.258                    23933254.113
 108469236.984 8  84521660.06546  20640988.305                    20640994.324
 125328913.978 6  97658969.29043  23849304.820                    23849314.813
 11  8 24  0 11  0.0000000  0  9G04G10G09G12G17G05G25G02G30
 115171760.129 8  89744360.70345  21916437.305                    21916446.438
 109815520.661 8  85570643.48046  20897169.102                    20897177.449
 125364939.626 6  97687038.88444  23856164.852                    23856176.883
 112034479.468 8  87299664.873 7  21319443.234                    21319451.145
 122552810.400 7  95495804.940 6  23321032.211                    23321042.410
 114192037.369 8  88980907.548 7  21730002.773                    21730012.195
 125672718.753 7  97926800.977 6  23914714.375                    23914726.414
 108472711.100 8  84524367.18546  20641649.594                    20641655.090
 125230615.759 6  97582373.32843  23830599.766                    23830609.559
 11  8 24  0 11 30.0000000  0  9G04G10G09G12G17G05G25G02G30
 115250083.769 8  89805392.10045  21931341.703                    21931350.914
 109825502.799 8  85578421.79346  20899069.141                    20899077.246
 125444392.927 7  97748950.46243  23871284.172                    23871296.266
 111979615.353 8  87256913.627 7  21309002.961                    21309010.613
 122606876.237 7  95537934.117 6  23331320.492                    23331331.047
 114107066.921 8  88914696.913 7  21713833.172                    21713842.293
 125575558.846 7  97851092.025 6  23896225.508                    23896237.246
 108476455.664 8  84527285.04846  20642362.148                    20642367.777
 125132582.435 6  97505983.78543  23811944.742                    23811953.820
 11  8 24  0 12  0.0000000  0  9G04G10G09G12G17G05G25G02G30
 115328513.496 8  89866506.16345  21946266.602                    21946275.539
 109836115.313 8  85586691.32646  20901088.258                    20901095.918
 125523966.832 6  97810956.02343  23886426.281                    23886438.117
 111925207.992 8  87214518.291 7  21298649.516                    21298657.305
 122661106.397 7  95580191.347 6  23341640.547                    23341650.727
 114022443.174 8  88848756.431 7  21697729.727                    21697738.719
 125478605.532 7  97775544.042 6  23877775.547                    23877787.801
 108480469.675 8  84530412.87946  20643125.711                    20643131.742
 125034816.837 7  97429802.84243  23793339.914                    23793349.590
 11  8 24  0 12 30.0000000  0  9G04G10G09G12G17G05G25G02G30
 115407046.840 8  89927700.96545  21961211.000                    21961220.066
 109847357.244 8  85595451.31246  20903227.500                    20903235.887
 125603657.255 6  97873052.39343  23901591.359                    23901602.863
 111871258.403 8  87172479.657 7  21288383.031                    21288390.965
 122715501.250 7  95622576.865 6  23351991.531                    23352001.801
 113938168.285 8  88783087.785 7  21681692.383                    21681701.559
 125381860.994 7  97700158.761 6  23859365.453                    23859377.688
 108484751.160 8  84533749.12146  20643940.398                    20643946.012
 124937321.278 7  97353832.33043  23774787.227                    23774796.492
 11  8 24  0 13  0.0000000  0  9G04G10G09G12G17G05G25G02G30
 115485682.658 8  89988975.62245  21976175.195                    21976184.004
 109859229.100 8  85604702.14046  20905486.297                    20905495.125
 125683461.585 7  97935237.47843  23916777.625                    23916789.598
 111817769.730 8  87130800.189 7  21278204.914                    21278212.570
 122770061.377 7  95665091.171 6  23362374.172                    23362384.133
 113854245.544 8  88717693.531 7  21665722.992                    21665731.965
 125285328.572 7  97624938.774 6  23840996.273                    23841008.289
 108489300.108 8  84537293.77646  20644805.945                    20644811.711
 124840099.403 7  97278075.06443  23756286.422                    23756295.656
 11  8 24  0 13 30.0000000  0  9G04G10G09G12G17G05G25G02G30
 115564418.760 8  90050328.41345  21991158.055                    21991166.984
 109871730.069 8  85614443.18546  20907865.625                    20907873.516
 125763376.058 7  97997508.44543  23931985.430                    23931997.004
 111764743.688 8  87089481.213 7  21268114.273                    21268122.129
 122824787.088 7  95707734.535 6  23372788.203                    23372798.340
 113770677.608 8  88652575.745 7  21649820.336                    21649829.477
 125189010.388 7  97549885.705 6  23822667.688                    23822679.215
 108494114.474 8  84541045.23546  20645722.211                    20645727.934
 124743153.386 7  97202532.75743  23737837.859                    23737847.523
 11  8 24  0 14  0.0000000  0  9G04G10G09G12G17G05G25G02G30
 115643253.501 7  90111758.04645  22006159.477                    22006168.762
 109884860.131 8  85624674.43246  20910364.078                    20910372.520
 125843397.570 7  98059862.80443  23947212.922                    23947224.898
 111712182.686 8  87048524.615 7  21258112.320                    21258119.844
 122879679.395 7  95750507.690 6  23383233.977                    23383243.707
 113687467.050 8  88587736.444 7  21633985.922                    21633994.789
 125092909.334 7  97475001.841 6  23804380.047                    23804391.828
 108499193.303 8  84545002.78346  20646688.625                    20646694.125
 124646486.365 7  97127207.86843  23719442.844                    23719452.484
 11  8 24  0 14 30.0000000  0  9G04G10G09G12G17G05G25G02G30
 115722184.804 8  90173262.92345  22021179.813                    22021189.270
 109898618.426 8  85635395.21146  20912982.125                    20912990.473
 125923522.695 6  98122297.90443  23962459.797                    23962471.969
 111660088.880 8  87007932.059 7  21248199.125                    21248206.789
 122934738.573 7  95793410.870 6  23393710.656                    23393721.352
 113604617.078 7  88523178.112 7  21618220.172                    21618228.828
 124997028.101 7  97400289.264 6  23786134.289                    23786146.254
 108504535.524 8  84549165.56346  20647705.461                    20647711.246
 124550101.154 7  97052102.56543  23701101.258                    23701111.262
 11  8 24  0 15  0.0000000  0  9G04G10G09G12G17G05G25G02G30
 115801211.107 8  90234841.84645  22036218.508                    22036227.273
 109913004.966 8  85646605.53446  20915719.422                    20915728.262
 126003748.120 6  98184811.16843  23977726.164                    23977738.508
 111608464.132 8  86967705.019 7  21238375.430                    21238383.164
 122989965.182 7  95836444.512 6  23404220.719                    23404231.094
 113522130.059 8  88458902.608 7  21602523.461                    21602531.895
 124901369.133 7  97325749.893 6  23767931.547                    23767942.652
 108510139.714 8  84553532.47946  20648771.875                    20648777.383
 124454000.454 7  96977218.95943  23682814.383                    23682823.871
 11  8 24  0 15 30.0000000  0  9G04G10G09G12G17G05G25G02G30
 115880330.687 8  90296493.44145  22051274.063                    22051282.875
 109928019.236 8  85658304.97946  20918576.758                    20918585.234
 126084070.822 6  98247400.19443  23993011.430                    23993023.703
 111557310.911 8  86927845.402 7  21228640.781                    21228649.074
 123045359.556 7  95879608.874 6  23414761.680                    23414772.684
 113440008.733 8  88394912.063 7  21586896.078                    21586904.523
 124805935.440 7  97251386.061 6  23749770.633                    23749781.988
 108516004.989 8  84558102.83846  20649888.102                    20649893.453
 124358187.312 7  96902559.45443  23664581.359                    23664591.344
 11  8 24  0 16  0.0000000  0  9G04G10G09G12G17G05G25G02G30
 115959541.447 8  90358216.09345  22066347.508                    22066356.090
 109943660.801 8  85670493.22046  20921553.250                    20921561.379
 126164487.468 6  98310062.39543  24008313.797                    24008327.156
 111506631.161 8  86888354.724 7  21218996.578                    21219004.848
 123100922.405 7  95922904.485 6  23425336.078                    23425345.668
 113358255.957 8  88331208.689 7  21571338.703                    21571347.531
 124710729.609 7  97177199.792 6  23731653.531                    23731664.578
 108522129.970 8  84562875.55746  20651053.672                    20651059.445
 124262664.503 6  96828126.18043  23646403.211                    23646413.742
 11  8 24  0 16 30.0000000  0  9G04G10G09G12G17G05G25G02G30
 116038842.020 7  90420008.70645  22081438.055                    22081446.297
 109959929.213 8  85683169.91046  20924649.539                    20924657.035
 126244994.625 7  98372795.13444  24023634.336                    24023647.684
 111456427.101 8  86849234.716 7  21209443.391                    21209451.094
 123156654.297 7  95966331.844 6  23435940.602                    23435950.906
 113276874.423 7  88267794.602 7  21555852.094                    21555861.406
 124615754.315 7  97103193.175 6  23713579.875                    23713592.117
 108528513.726 8  84567849.92946  20652267.898                    20652273.727
 124167435.001 6  96753921.48343  23628282.016                    23628291.938
 11  8 24  0 17  0.0000000  0  9G04G10G09G12G17G05G25G02G30
 116118230.488 7  90481869.81645  22096545.227                    22096553.707
 109976823.895 8  85696334.63046  20927864.180                    20927872.148
 126325588.730 7  98435595.63344  24038970.578                    24038984.324
 111406700.725 8  86810486.934 7  21199980.953                    21199988.520
 123212555.545 7  96009891.181 6  23446578.195                    23446588.738
 113195866.561 7  88204671.684 7  21540436.602                    21540445.754
 124521012.195 7  97029368.241 6  23695551.063                    23695562.793
 108535154.664 8  84573024.69446  20653531.852                    20653537.586
 124072501.449 6  96679947.38544  23610216.820                    23610226.813
 11  8 24  0 17 30.0000000  0  9G04G10G09G12G17G05G25G02G30
 116197704.902 7  90543797.89645  22111668.617                    22111677.297
 109994344.410 8  85709986.98646  20931197.969                    20931206.520
 126406266.617 6  98498461.41444  24054323.563                    24054335.887
 111357453.821 8  86772112.752 7  21190609.281                    21190616.574
 123268626.856 7  96053583.062 6  23457248.578                    23457258.684
 113115235.385 7  88141842.281 7  21525093.141                    21525102.340
 124426505.830 7  96955726.995 6  23677566.742                    23677578.121
 108542051.938 8  84578399.21246  20654844.352                    20654849.910
 123977866.667 7  96606206.08344  23592208.438                    23592218.586
 11  8 24  0 18  0.0000000  0  9G04G10G09G12G17G05G25G02G30
 116277263.502 7  90605791.57745  22126807.891                    22126816.652
 110012490.255 8  85724126.61246  20934651.250                    20934659.324
 126487025.058 6  98561389.92444  24069691.117                    24069703.734
 111308688.433 8  86734113.782 7  21181329.875                    21181337.184
 123324868.529 7  96097407.692 6  23467950.805                    23467961.281
 113034983.210 7  88079308.205 7  21509821.648                    21509830.262
 124332237.720 7  96882271.404 6  23659628.680                    23659639.512
 108549204.004 8  84583972.26146  20656205.273                    20656210.848
 123883533.390 7  96532699.71544  23574257.047                    23574267.188
 11  8 24  0 18 30.0000000  0  9G04G10G09G12G17G05G25G02G30
 116356904.728 7  90667849.62845  22141963.125                    22141972.039
 110031260.573 8  85738752.84446  20938222.539                    20938231.473
 126567860.831 6  98624378.70343  24085073.563                    24085086.211
 111260406.618 8  86696491.620 7  21172141.859                    21172149.563
 123381280.952 7  96141365.357 6  23478686.000                    23478696.297
 112955112.642 7  88017071.498 7  21494622.797                    21494631.230
 124238210.735 7  96809003.723 6  23641735.414                    23641747.336
 108556609.659 8  84589742.92246  20657614.781                    20657620.566
 123789504.459 7  96459430.49444  23556363.938                    23556374.293
 11  8 24  0 19  0.0000000  0  9G04G10G09G12G17G05G25G02G30
 116436626.675 7  90729970.59645  22157134.289                    22157143.105
 110050654.776 8  85753865.20846  20941913.594                    20941922.070
 126648770.378 6  98687424.97544  24100470.508                    24100482.965
 111212610.422 8  86659247.862 7  21163046.656                    21163053.629
 123437864.746 7  96185456.548 6  23489453.789                    23489463.941
 112875626.192 8  87955134.102 7  21479496.734                    21479505.590
 124144427.555 7  96735926.017 6  23623888.695                    23623900.750
 108564267.625 8  84595710.18646  20659071.820                    20659077.535
 123695782.792 7  96386400.70844  23538529.422                    23538539.230
 11  8 24  0 19 30.0000000  0  9G04G10G09G12G17G05G25G02G30
 116516427.776 7  90792153.22545  22172319.406                    22172328.480
 110070672.316 8  85769463.28546  20945723.070                    20945731.355
 126729750.715 6  98750526.40044  24115880.781                    24115893.668
 111165302.027 8  86622384.204 7  21154043.984                    21154051.648
 123494620.349 7  96229681.638 6  23500253.477                    23500264.332
 112796527.008 7  87893498.477 7  21464444.508                    21464453.855
 124050890.858 7  96663040.366 6  23606089.609                    23606101.695
 108572176.933 8  84601873.31146  20660576.781                    20660582.340
 123602371.238 7  96313612.57344  23520753.484                    23520763.543
 11  8 24  0 20  0.0000000  0  9G04G10G09G12G17G05G25G02G30
 116596306.416 8  90854396.27045  22187520.148                    22187529.262
 110091312.671 8  85785546.68846  20949650.344                    20949658.426
 126810798.384 7  98813680.29144  24131303.953                    24131316.609
 111118483.205 8  86585902.028 7  21145134.680                    21145142.266
 123551548.325 7  96274041.029 6  23511086.641                    23511097.484
 112717817.570 7  87832166.534 7  21449466.477                    21449475.125
 123957603.358 7  96590348.909 7  23588337.477                    23588349.262
 108580336.463 8  84608231.40146  20662129.867                    20662135.363
 123509272.630 7  96241068.27944  23503037.852                    23503047.598
 11  8 24  0 20 30.0000000  0  9G04G10G09G12G17G05G25G02G30
 116676260.692 7  90916698.26845  22202735.047                    22202743.680
 110112575.105 8  85802114.81046  20953696.508                    20953704.848
 126891910.145 6  98876884.12543  24146739.164                    24146752.070
 111072155.926 8  86549802.870 7  21136319.141                    21136326.090
 123608648.880 7  96318534.909 6  23521952.734                    23521963.102
 112639500.605 7  87771140.414 7  21434563.141                    21434572.223
 123864567.714 7  96517853.699 6  23570633.641                    23570644.766
 108588744.789 8  84614783.37646  20663729.938                    20663735.371
 123416489.612 7  96168769.88743  23485381.984                    23485391.352
 11  8 24  0 21  0.0000000  0  9G04G10G09G12G17G05G25G02G30
 116756289.046 7  90979057.98845  22217963.477                    22217972.645
 110134458.717 8  85819166.98246  20957860.992                    20957869.508
 126973082.545 6  98940135.19144  24162185.617                    24162198.895
 111026321.692 8  86514087.897 7  21127596.672                    21127604.523
 123665922.470 7  96363163.623 6  23532851.313                    23532861.152
 112561578.063 7  87710421.647 7  21419734.883                    21419743.832
 123771786.437 7  96445556.711 7  23552977.992                    23552989.293
 108597400.668 8  84621528.23146  20665376.766                    20665382.461
 123324025.071 7  96096719.68543  23467785.891                    23467795.703
 11  8 24  0 21 30.0000000  0  9G04G10G09G12G17G05G25G02G30
 116836389.689 7  91041474.02845  22233206.414                    22233215.457
 110156962.851 8  85836702.67246  20962143.484                    20962151.191
 127054312.661 6  99003431.22344  24177643.734                    24177656.688
 110980983.303 8  86478759.309 7  21118969.195                    21118976.570
 123723369.821 7  96407927.719 6  23543783.125                    23543793.277
 112484053.040 8  87650012.623 7  21404982.570                    21404991.801
 123679262.516 7  96373460.259 7  23535371.117                    23535382.426
 108606303.222 8  84628465.31046  20667070.859                    20667076.516
 123231881.946 7  96024919.91343  23450252.461                    23450261.461
 11  8 24  0 22  0.0000000  0  9G04G10G09G12G17G05G25G02G30
 116916560.820 7  91103945.00445  22248462.766                    22248471.641
 110180086.322 8  85854720.96346  20966543.664                    20966551.781
 127135596.895 6  99066769.46944  24193111.383                    24193124.387
 110936142.010 8  86443818.066 7  21110436.188                    21110443.773
 123780991.341 7  96452827.538 6  23554748.953                    23554758.656
 112406927.773 7  87589915.105 7  21390306.172                    21390314.750
 123586998.315 7  96301566.180 7  23517813.539                    23517825.078
 108615450.715 8  84635593.24746  20668811.828                    20668817.332
 123140062.842 7  95953372.64144  23432779.008                    23432788.750
 11  8 24  0 22 30.0000000  0  9G04G10G09G12G17G05G25G02G30
 116996801.098 7  91166469.83945  22263731.797                    22263740.961
 110203828.680 8  85873221.49846  20971061.352                    20971069.711
 127216932.113 6  99130147.40843  24208589.008                    24208601.906
 110891799.939 8  86409265.815 7  21101998.125                    21102005.699
 123838787.345 7  96497863.339 6  23565746.688                    23565757.313
 112330205.019 8  87530131.230 7  21375705.984                    21375714.754
 123494996.542 7  96229876.614 7  23500306.047                    23500317.598
 108624841.940 8  84642911.10346  20670598.625                    20670604.539
 123048570.556 7  95882080.03343  23415368.906                    23415378.238
 11  8 24  0 23  0.0000000  0  9G04G10G09G12G17G05G25G02G30
 117077108.857 7  91229047.27745  22279014.148                    22279023.180
 110228189.369 8  85892203.84846  20975697.000                    20975705.473
 127298315.531 6  99193562.94043  24224075.680                    24224088.902
 110847959.079 8  86375104.126 7  21093655.453                    21093663.199
 123896758.244 6  96543035.424 6  23576778.242                    23576788.348
 112253887.527 8  87470663.138 7  21361183.461                    21361192.152
 123403260.114 7  96158393.811 6  23482849.070                    23482860.770
 108634476.058 8  84650418.23046  20672432.094                    20672437.531
 122957408.061 7  95811044.42244  23398021.156                    23398030.059
 11  8 24  0 23 30.0000000  0  9G04G10G09G12G17G05G25G02G30
 117157482.401 7  91291675.98445  22294308.695                    22294317.773
 110253167.301 8  85911667.18446  20980450.359                    20980458.430
 127379743.747 6  99257013.36543  24239570.617                    24239584.051
 110804621.535 8  86341334.627 7  21085408.766                    21085416.090
 123954904.653 7  96588344.266 6  23587843.242                    23587853.367
 112177978.072 8  87411513.003 7  21346738.219                    21346746.898
 123311791.772 7  96087119.892 6  23465443.016                    23465454.727
 108644351.975 8  84658113.76446  20674311.266                    20674317.066
 122866578.265 6  95740268.06344  23380736.641                    23380746.055
 11  8 24  0 24  0.0000000  0  9G04G10G09G12G17G05G25G02G30
 117237920.273 7  91354354.82845  22309615.406                    22309624.520
 110278761.661 8  85931610.84945  20985320.828                    20985328.996
 127461213.434 6  99320496.12443  24255074.508                    24255087.660
 110761788.949 8  86307958.606 7  21077257.555                    21077265.195
 124013226.959 7  96633790.178 6  23598941.359                    23598951.887
 112102478.828 8  87352682.504 7  21332371.383                    21332380.086
 123220594.181 7  96016056.953 7  23448088.961                    23448100.066
 108654468.512 8  84665996.79746  20676236.305                    20676242.309
 122776084.063 6  95669753.21143  23363515.938                    23363525.645
 11  8 24  0 24 30.0000000  0  9G04G10G09G12G17G05G25G02G30
 117318420.556 7  91417082.29145  22324934.352                    22324943.645
 110304971.051 8  85952033.76546  20990308.328                    20990316.176
 127542721.048 6  99384008.46143  24270585.016                    24270597.922
 110719462.552 8  86274977.012 7  21069203.336                    21069210.711
 124071725.281 7  96679373.237 6  23610072.773                    23610084.215
 112027392.116 8  87294173.455 7  21318082.648                    21318091.211
 123129669.612 7  95945206.757 7  23430786.273                    23430797.523
 108664823.706 8  84674065.79846  20678206.953                    20678212.531
 122685927.632 7  95599501.58944  23346359.602                    23346369.109
 11  8 24  0 25  0.0000000  0  9G04G10G09G12G17G05G25G02G30
 117398981.660 7  91479857.16145  22340264.086                    22340273.500
 110331794.983 8  85972935.55746  20995412.625                    20995421.289
 127624263.725 6  99447548.09743  24286102.422                    24286114.723
 110677644.658 8  86242391.652 7  21061245.844                    21061253.000
 124130400.417 6  96725094.071 6  23621238.922                    23621249.520
 111952720.489 8  87235987.855 7  21303872.789                    21303881.695
 123039020.906 7  95874571.494 6  23413536.406                    23413547.742
 108675416.779 8  84682320.15046  20680222.391                    20680227.996
 122596112.148 7  95529515.64044  23329268.094                    23329277.832
 11  8 24  0 25 30.0000000  0  9G04G10G09G12G17G05G25G02G30
 117479602.123 7  91542678.26845  22355605.867                    22355615.203
 110359232.405 8  85994315.38846  21000633.750                    21000641.820
 127705838.173 6  99511112.52243  24301625.703                    24301638.422
 110636337.089 8  86210203.956 7  21053385.117                    21053392.684
 124189252.640 6  96770952.921 6  23632438.016                    23632449.113
 111878466.767 8  87178127.894 7  21289742.914                    21289751.867
 122948650.806 7  95804153.326 6  23396338.977                    23396350.785
 108686246.417 8  84690758.84946  20682283.320                    20682289.246
 122506640.303 6  95459797.43044  23312242.602                    23312252.305
 11  8 24  0 26  0.0000000  0  9G04G10G09G12G17G05G25G02G30
 117560280.371 7  91605544.43645  22370958.406                    22370967.551
 110387282.077 8  86016172.29746  21005971.352                    21005979.367
 127787441.248 6  99574699.21843  24317153.766                    24317167.586
 110595541.745 8  86178415.404 7  21045622.016                    21045629.176
 124248282.416 6  96816950.124 6  23643670.750                    23643681.871
 111804633.159 8  87120595.289 7  21275692.594                    21275701.578
 122858562.111 7  95733954.412 6  23379195.727                    23379207.121
 108697311.886 8  84699381.30246  20684389.297                    20684394.879
 122417515.001 6  95390349.29844  23295282.469                    23295292.000
 11  8 24  0 26 30.0000000  0  9G04G10G09G12G17G05G25G02G30
 117641014.763 7  91668454.32645  22386321.750                    22386331.586
 110415943.393 8  86038505.81746  21011425.625                    21011433.691
 127869069.431 6  99638305.47343  24332687.188                    24332700.992
 110555259.959 8  86147027.008 7  21037956.688                    21037964.242
 124307490.061 6  96863085.893 6  23654938.102                    23654948.445
 111731221.981 8  87063391.846 7  21261722.805                    21261731.891
 122768757.305 7  95663976.719 6  23362106.617                    23362118.055
 108708611.590 8  84708186.27046  20686539.508                    20686544.922
 122328738.850 7  95321173.18944  23278388.453                    23278396.992
 11  8 24  0 27  0.0000000  0  9G04G10G09G12G17G05G25G02G30
 117721803.654 7  91731406.68445  22401695.680                    22401704.879
 110445214.804 8  86061314.73146  21016995.703                    21017004.035
 127950719.920 6  99701929.11943  24348225.289                    24348238.715
 110515493.482 8  86116040.168 7  21030389.156                    21030397.070
 124366875.820 7  96909360.419 6  23666239.438                    23666248.793
 111658235.715 8  87006519.519 7  21247834.289                    21247842.844
 122679238.951 7  95594222.188 6  23345071.711                    23345082.680
 108720143.993 8  84717172.57146  20688733.641                    20688739.672
 122240314.551 6  95252271.24844  23261561.953                    23261570.766
 11  8 24  0 27 30.0000000  0  9G04G10G09G12G17G05G25G02G30
 117802645.624 7  91794400.41745  22417079.023                    22417088.313
 110475095.444 8  86084598.36846  21022681.555                    21022690.207
 128032389.727 6  99765567.77743  24363766.391                    24363780.012
 110476244.862 8  86085456.856 7  21022920.719                    21022928.234
 124426440.643 7  96955774.508 6  23677573.539                    23677583.813
 111585676.901 8  86949980.262 7  21234026.383                    21234035.012
 122590010.000 7  95524693.171 6  23328091.852                    23328103.125
 108731908.509 8  84726339.73146  20690972.547                    20690978.152
 122152245.178 6  95183645.85644  23244803.078                    23244811.992
 11  8 24  0 28  0.0000000  0  9G04G10G09G12G17G05G25G02G30
 117883539.433 7  91857434.53345  22432472.867                    22432482.035
 110505584.403 8  86108356.02246  21028483.125                    21028492.141
 128114075.359 6  99829218.80343  24379310.922                    24379324.246
 110437515.243 8  86055277.958 7  21015550.344                    21015558.063
 124486184.392 6  97002328.003 6  23688942.508                    23688953.395
 111513548.291 8  86893776.224 7  21220300.906                    21220309.324
 122501073.242 7  95455391.795 6  23311167.852                    23311179.484
 108743903.778 8  84735686.69946  20693255.234                    20693260.773
 122064533.453 7  95115299.15144  23228111.633                    23228121.117
 11  8 24  0 28 30.0000000  0  9G04G10G09G12G17G05G25G02G30
 117964483.261 7  91920507.63245  22447875.672                    22447885.027
 110536680.381 8  86132586.68046  21034400.852                    21034408.828
 128195773.634 6  99892879.67243  24394857.109                    24394870.789
 110399306.291 8  86025504.778 7  21008280.008                    21008287.238
 124546107.610 6  97049021.351 6  23700345.945                    23700356.672
 111441852.134 8  86837909.167 7  21206657.461                    21206666.113
 122412431.121 7  95386320.001 7  23294299.750                    23294311.434
 108756128.509 8  84745212.46546  20695581.367                    20695587.418
 121977182.048 7  95047233.19144  23211489.750                    23211498.746
 11  8 24  0 29  0.0000000  0  9G04G10G09G12G17G05G25G02G30
 118045475.721 7  91983618.63545  22463288.406                    22463297.352
 110568382.343 8  86157289.53546  21040433.555                    21040441.488
 128277481.475 6  99956547.97643  24410406.664                    24410419.547
 110361619.833 8  85996138.736 7  21001108.188                    21001114.988
 124606210.418 6  97095854.628 6  23711782.938                    23711794.203
 111370591.404 8  86782381.394 7  21193096.984                    21193105.656
 122324086.571 7  95317480.071 7  23277488.719                    23277499.797
 108768581.575 8  84754916.15046  20697951.188                    20697957.043
 121890193.692 7  94979450.10644  23194936.375                    23194945.508
 11  8 24  0 29 30.0000000  0  9G04G10G09G12G17G05G25G02G30
 118126514.878 7  92046766.00945  22478709.602                    22478718.996
 110600688.368 8  86182463.08146  21046581.164                    21046589.504
 128359195.524 6 100020221.16443  24425955.703                    24425969.500
 110324457.003 8  85967180.713 7  20994036.586                    20994043.609
 124666493.319 6  97142828.238 6  23723254.906                    23723265.129
 111299766.994 8  86727193.617 7  21179619.227                    21179627.961
 122236041.658 7  95248873.607 6  23260734.391                    23260745.766
 108781261.304 8  84764796.46046  20700364.016                    20700369.672
 121803570.773 7  94911951.77044  23178452.250                    23178461.168
 11  8 24  0 30  0.0000000  0  9G04G10G09G12G17G05G25G02G30
 118207599.409 7  92109948.74045  22494139.625                    22494148.691
 110633597.871 8  86208106.87446  21052843.477                    21052851.633
 128440912.872 6 100083896.87943  24441506.117                    24441519.523
 110287819.748 8  85938632.230 7  20987064.555                    20987071.844
 124726956.656 6  97189942.415 6  23734760.516                    23734771.230
 111229382.160 8  86672348.362 7  21166225.758                    21166234.066
 122148299.399 7  95180502.996 7  23244037.438                    23244048.609
 108794166.825 8  84774852.71946  20702820.102                    20702825.641
 121717316.318 7  94844740.53844  23162038.219                    23162047.398
 11  8 24  0 30 30.0000000  0  9G04G10G09G12G17G05G25G02G30
 118288728.011 7  92173165.81945  22509578.078                    22509587.324
 110667109.678 8  86234219.98645  21059220.547                    21059228.898
 128522630.516 6 100147572.83143  24457056.898                    24457070.273
 110251709.695 8  85910494.556 7  20980192.664                    20980200.320
 124787600.769 6  97237197.469 6  23746301.352                    23746311.832
 111159438.860 8  86617847.159 7  21152915.898                    21152924.090
 122060862.395 7  95112370.276 7  23227398.828                    23227410.363
 108807296.809 8  84785083.88146  20705318.484                    20705323.965
 121631433.006 7  94777818.46844  23145695.258                    23145703.547
 11  8 24  0 31  0.0000000  0  9G04G10G09G12G17G05G25G02G30
 118369898.974 7  92236415.90345  22525024.375                    22525033.352
 110701222.471 8  86260801.40745  21065712.352                    21065719.789
 128604345.176 6 100211246.44043  24472606.539                    24472620.527
 110216128.217 8  85882768.754 7  20973422.039                    20973429.188
 124848425.964 6  97284593.671 6  23757875.477                    23757886.523
 111089939.719 8  86563692.062 7  21139690.781                    21139698.730
 121973733.351 7  95044477.534 7  23210818.664                    23210830.102
 108820650.102 8  84795489.04646  20707859.570                    20707865.559
 121545923.539 7  94711187.71244  23129423.609                    23129431.984
 11  8 24  0 31 30.0000000  0  9G04G10G09G12G17G05G25G02G30
 118451111.053 7  92299698.04345  22540477.969                    22540487.922
 110735934.957 8  86287850.10646  21072317.938                    21072326.254
 128686053.555 6 100274915.17943  24488155.273                    24488168.711
 110181077.359 8  85855456.422 7  20966752.125                    20966759.313
 124909433.078 6  97332131.619 6  23769484.578                    23769496.199
 111020887.098 8  86509884.892 7  21126550.289                    21126558.621
 121886915.141 7  94976827.016 7  23194297.930                    23194309.285
 108834225.769 8  84806067.48846  20710443.055                    20710448.371
 121460790.845 7  94644850.52144  23113223.219                    23113231.715
 11  8 24  0 32  0.0000000  0  9G04G10G09G12G17G05G25G02G30
 118532362.477 7  92363010.80645  22555940.102                    22555949.375
 110771245.416 8  86315364.76746  21079036.969                    21079045.441
 128767752.847 6 100338576.80843  24503701.688                    24503715.383
 110146558.567 8  85828558.682 7  20960183.344                    20960190.688
 124970622.172 6  97379811.366 6  23781128.289                    23781139.570
 110952283.162 8  86456427.345 7  21113495.164                    21113503.512
 121800410.115 7  94909420.546 7  23177835.820                    23177847.543
 108848022.172 8  84816817.92346  20713068.164                    20713074.031
 121376037.438 7  94578808.92344  23097095.719                    23097104.098
 11  8 24  0 32 30.0000000  0  9G04G10G09G12G17G05G25G02G30
 118613652.047 7  92426353.30745  22571408.906                    22571417.758
 110807152.623 8  86343344.43046  21085869.953                    21085878.344
 128849439.674 6 100402228.72643  24519246.688                    24519260.473
 110112572.983 8  85802076.420 7  20953715.805                    20953723.395
 125031992.996 6  97427632.719 6  23792807.617                    23792817.961
 110884130.204 8  86403321.208 7  21100526.023                    21100533.719
 121714220.989 7  94842260.243 7  23161434.914                    23161445.996
 108862038.114 8  84827739.43546  20715735.273                    20715740.789
 121291665.968 7  94513064.93144  23081039.484                    23081048.836
 11  8 24  0 33  0.0000000  0  9G04G10G09G12G17G05G25G02G30
 118694978.198 7  92489724.31044  22586885.156                    22586894.211
 110843655.342 8  86371788.12546  21092816.102                    21092824.598
 128931110.974 6 100465868.55643  24534788.453                    24534802.320
 110079122.118 8  85776010.827 7  20947350.773                    20947357.844
 125093546.129 6  97475596.131 6  23804520.711                    23804531.418
 110816430.528 8  86350568.285 7  21087643.367                    21087651.508
 121628350.319 7  94775348.105 7  23145094.578                    23145105.477
 108876272.570 8  84838831.21046  20718444.234                    20718449.676
 121207679.188 7  94447620.70144  23065057.430                    23065065.973
 11  8 24  0 33 30.0000000  0  9G04G10G09G12G17G05G25G02G30
 118776339.540 7  92553122.72444  22602367.070                    22602376.086
 110880752.170 8  86400694.75945  21099875.547                    21099883.570
 129012763.695 6 100529493.91043  24550326.703                    24550340.176
 110046207.626 8  85750363.186 7  20941086.859                    20941094.352
 125155282.191 6  97523702.117 6  23816268.523                    23816279.059
 110749186.797 8  86298170.639 7  21074846.734                    21074854.813
 121542800.843 7  94708686.260 7  23128814.758                    23128826.105
 108890724.222 8  84850092.22846  20721194.094                    20721199.977
 121124079.797 7  94382478.34744  23049148.555                    23049157.965
 11  8 24  0 34  0.0000000  0  9G04G10G09G12G17G05G25G02G30
 118857734.872 7  92616547.63244  22617856.281                    22617865.414
 110918441.892 8  86430063.39145  21107047.273                    21107055.543
 129094395.242 6 100593102.75043  24565860.492                    24565874.313
 110013831.812 8  85725135.293 7  20934926.234                    20934933.844
 125217201.547 6  97571950.923 6  23828050.688                    23828061.570
 110682400.780 8  86246129.649 7  21062138.195                    21062146.105
 121457575.433 7  94642276.933 7  23112596.547                    23112608.160
 108905392.115 8  84861521.75346  20723985.398                    20723991.512
 121040870.722 7  94317640.16844  23033314.945                    23033323.824
 11  8 24  0 34 30.0000000  0  9G04G10G09G12G17G05G25G02G30
 118939162.489 7  92679997.68944  22633351.523                    22633360.297
 110956722.851 8  86459892.71946  21114332.109                    21114339.902
 129176001.869 6 100656692.23943  24581389.945                    24581403.336
 109981995.066 8  85700327.453 7  20928867.750                    20928875.332
 125279304.349 6  97620342.681 6  23839869.234                    23839879.871
 110616074.593 8  86194446.970 7  21049516.859                    21049525.277
 121372676.440 7  94576121.968 6  23096440.586                    23096452.086
 108920274.817 8  84873118.65346  20726817.438                    20726823.285
 120958054.438 7  94253108.02944  23017555.391                    23017564.613
 11  8 24  0 35  0.0000000  0  9G04G10G09G12G17G05G25G02G30
 119020621.162 7  92743471.93444  22648851.945                    22648861.523
 110995593.523 8  86490181.55745  21121728.773                    21121737.234
 129257580.690 6 100720260.05143  24596913.656                    24596927.801
 109950698.577 8  85675940.594 7  20922912.016                    20922919.695
 125341590.627 6  97668877.397 6  23851721.922                    23851732.617
 110550210.426 8  86143124.306 7  21036983.461                    21036991.422
 121288106.519 7  94510223.406 7  23080347.742                    23080359.195
 108935371.203 8  84884882.06646  20729690.469                    20729696.113
 120875633.563 7  94188884.00744  23001871.430                    23001880.387
 11  8 24  0 35 30.0000000  0  9G04G10G09G12G17G05G25G02G30
 119102109.505 7  92806969.29944  22664359.500                    22664368.711
 111035052.516 8  86520928.84646  21129237.836                    21129246.125
 129339128.642 6 100783803.78043  24612431.734                    24612445.570
 109919944.670 8  85651976.517 7  20917059.961                    20917067.410
 125404060.736 6  97717555.355 6  23863609.242                    23863620.121
 110484810.870 8  86092163.684 7  21024537.734                    21024546.004
 121203868.337 7  94444583.350 7  23064317.516                    23064328.340
 108950680.043 8  84896811.02046  20732603.383                    20732609.254
 120793610.764 7  94124970.19644  22986262.844                    22986272.242
 11  8 24  0 36  0.0000000  0  9G04G10G09G12G17G05G25G02G30
 119183625.840 7  92870488.48644  22679871.250                    22679880.879
 111075097.866 8  86552133.01845  21136858.375                    21136866.543
 129420642.907 6 100847321.29243  24627943.594                    24627957.059
 109889734.004 8  85628435.742 7  20911310.883                    20911318.227
 125466714.983 6  97766376.793 6  23875532.805                    23875543.156
 110419877.904 8  86041566.634 7  21012181.641                    21012189.539
 121119964.414 7  94379203.744 7  23048351.313                    23048362.477
 108966200.145 8  84908904.59946  20735557.195                    20735562.484
 120711988.646 7  94061368.60844  22970731.070                    22970739.836
 11  8 24  0 36 30.0000000  0  9G04G10G09G12G17G05G25G02G30
 119265169.142 7  92934028.67444  22695388.578                    22695397.832
 111115728.431 8  86583793.20546  21144589.891                    21144598.238
 129502120.542 6 100910810.26343  24643447.813                    24643462.137
 109860068.731 8  85605319.951 7  20905665.961                    20905673.164
 125529554.014 6  97815342.213 6  23887491.047                    23887501.074
 110355413.805 8  85991334.934 7  20999914.266                    20999922.199
 121036397.524 7  94314086.762 7  23032449.141                    23032459.879
 108981930.344 8  84921161.89546  20738550.195                    20738555.730
 120630769.906 7  93998081.33844  22955274.844                    22955284.215
 11  8 24  0 37  0.0000000  0  9G04G10G09G12G17G05G25G02G30
 119346738.091 7  92997588.84844  22710910.617                    22710919.188
 111156942.767 8  86615908.29045  21152432.648                    21152440.781
 129583557.923 6 100974267.86943  24658945.281                    24658959.398
 109830949.449 8  85582629.607 7  20900124.859                    20900132.277
 125592577.814 6  97864451.580 6  23899483.133                    23899493.605
 110291420.537 8  85941470.126 7  20987736.438                    20987745.070
 120953170.232 7  94249234.375 7  23016611.430                    23016622.004
 108997869.341 8  84933581.89046  20741583.266                    20741588.703
 120549957.269 7  93935110.50344  22939897.211                    22939905.895
 11  8 24  0 37 30.0000000  0  9G04G10G09G12G17G05G25G02G30
 119428331.394 7  93061168.00744  22726437.289                    22726446.469
 111198739.319 8  86648477.03445  21160386.156                    21160394.426
 129664952.437 6 101037692.05943  24674434.320                    24674447.859
 109802377.991 8  85560366.144 7  20894687.750                    20894694.996
 125655786.763 6  97913705.222 6  23911511.727                    23911522.379
 110227900.310 8  85891973.915 7  20975649.375                    20975657.496
 120870285.141 7  94184648.674 7  23000838.344                    23000850.129
 109014016.280 8  84946163.92846  20744656.141                    20744661.520
 120469553.279 7  93872458.10944  22924596.703                    22924606.301
 11  8 24  0 38  0.0000000  0  9G04G10G09G12G17G05G25G02G30
 119509947.677 7  93124765.05544  22741968.430                    22741977.371
 111241116.427 8  86681498.17345  21168450.633                    21168458.707
 129746301.301 6 101101080.68843  24689915.117                    24689927.480
 109774355.506 8  85538530.446 7  20889354.953                    20889362.566
 125719180.983 6  97963103.250 6  23923575.383                    23923585.594
 110164855.253 8  85842847.957 7  20963652.180                    20963660.133
 120787744.981 7  94120331.733 7  22985131.555                    22985143.313
 109030369.898 8  84958907.01446  20747767.852                    20747773.578
 120389560.664 7  93810126.25844  22909374.219                    22909383.391
 11  8 24  0 38 30.0000000  0  9G04G10G09G12G17G05G25G02G30
 119591585.613 7  93188378.97044  22757503.281                    22757512.648
 111284072.670 7  86714970.57545  21176624.898                    21176632.508
 129827601.413 6 101164431.32243  24705385.961                    24705399.012
 109746883.771 8  85517123.913 7  20884127.500                    20884134.398
 125782760.945 6  98012646.007 6  23935674.234                    23935684.348
 110102287.729 8  85794094.116 7  20951745.813                    20951754.086
 120705552.579 7  94056285.753 7  22969490.609                    22969502.320
 109046929.090 8  84971810.27846  20750918.852                    20750924.953
 120309982.253 6  93748117.15744  22894231.125                    22894240.500
 11  8 24  0 39  0.0000000  0  9G04G10G09G12G17G05G25G02G30
 119673243.844 7  93252008.69644  22773042.258                    22773051.980
 111327605.658 8  86748892.39246  21184908.625                    21184916.766
 129908849.559 6 101227741.46843  24720847.578                    24720860.316
 109719963.404 8  85496147.014 7  20879004.703                    20879011.996
 125846526.448 6  98062333.334 6  23947808.289                    23947819.355
 110040199.406 8  85745713.663 7  20939930.547                    20939939.035
 120623709.978 7  93992512.347 7  22953916.617                    22953928.078
 109063692.428 8  84984872.62946  20754108.844                    20754114.789
 120230820.189 7  93686432.48644  22879167.594                    22879175.965
 11  8 24  0 39 30.0000000  0  9G04G10G09G12G17G05G25G02G30
 119754920.774 7  93315653.01244  22788585.664                    22788594.590
 111371714.087 8  86783262.60845  21193302.406                    21193310.328
 129990042.857 6 101291008.87043  24736297.766                    24736311.602
 109693595.665 8  85475600.737 7  20873987.211                    20873994.590
 125910478.066 6  98112165.684 6  23959977.344                    23959989.008
 109978592.345 8  85697708.215 7  20928207.406                    20928215.871
 120542219.851 7  93929013.582 6  22938410.000                    22938420.582
 109080658.619 8  84998093.04546  20757337.789                    20757343.254
 120152076.994 7  93625074.23044  22864182.500                    22864191.559
 11  8 24  0 40  0.0000000  0  9G04G10G09G12G17G05G25G02G30
 119836615.448 7  93379311.16144  22804131.320                    22804140.535
 111416396.366 7  86818079.98645  21201804.992                    21201813.203
 130071178.450 6 101354231.35143  24751737.234                    24751751.227
 109667781.893 8  85455486.120 7  20869075.086                    20869082.156
 125974615.815 6  98162143.091 6  23972182.734                    23972194.375
 109917468.765 8  85650079.508 7  20916576.047                    20916584.246
 120461084.948 7  93865791.609 7  22922970.539                    22922981.332
 109097826.423 8  85011470.56746  20760604.914                    20760610.125
 120073755.449 7  93564044.52944  22849278.219                    22849287.324
 11  8 24  0 40 30.0000000  0  9G04G10G09G12G17G05G25G02G30
 119918326.469 7  93442982.06544  22819680.688                    22819689.945
 111461650.614 8  86853343.02645  21210416.359                    21210424.789
 130152253.038 7 101417406.28243  24767165.578                    24767179.215
 109642522.990 8  85435803.873 7  20864268.398                    20864275.828
 126038939.889 6  98212265.675 6  23984423.469                    23984434.477
 109856830.729 8  85602829.155 7  20905036.586                    20905044.926
 120380307.625 7  93802848.279 7  22907599.047                    22907609.938
 109115194.606 8  85025004.22746  20763909.492                    20763915.371
 119995857.926 7  93503345.22144  22834454.883                    22834463.992
 11  8 24  0 41  0.0000000  0  9G04G10G09G12G17G05G25G02G30
 120000052.475 7  93506664.63444  22835231.766                    22835242.016
 111507475.001 8  86889050.34245  21219136.508                    21219144.996
 130233263.943 6 101480531.54943  24782581.828                    24782595.469
 109617820.793 8  85416555.424 7  20859567.594                    20859574.488
 126103450.574 6  98262533.649 6  23996700.188                    23996710.160
 109796679.921 8  85555958.451 7  20893590.328                    20893598.430
 120299890.570 7  93740185.665 7  22892295.516                    22892306.852
 109132762.304 8  85038693.36346  20767252.336                    20767258.102
 119918387.092 7  93442978.40644  22819713.039                    22819721.375
 11  8 24  0 41 30.0000000  0  9G04G10G09G12G17G05G25G02G30
 120081792.380 7  93570358.04644  22850787.102                    22850796.559
 111553867.865 8  86925200.62645  21227964.813                    21227973.004
 130314207.960 6 101543604.74143  24797984.656                    24797998.453
 109593675.697 8  85397741.088 7  20854972.969                    20854980.180
 126168148.196 6  98312947.327 6  24009011.070                    24009021.895
 109737017.968 8  85509468.668 7  20882237.320                    20882245.500
 120219836.460 7  93677805.873 7  22877062.352                    22877073.098
 109150528.492 8  85052537.15346  20770633.375                    20770639.137
 119841345.580 7  93382946.11944  22805052.578                    22805061.297
 11  8 24  0 42  0.0000000  0  9G04G10G09G12G17G05G25G02G30
 120163544.946 7  93634061.27344  22866344.258                    22866353.719
 111600827.466 8  86961792.53145  21236901.250                    21236909.070
 130395082.477 6 101606623.73043  24813374.141                    24813387.906
 109570089.420 8  85379362.181 7  20850484.789                    20850491.797
 126233032.671 6  98363506.568 6  24021358.414                    24021369.375
 109677847.592 8  85463361.938 7  20870977.305                    20870985.281
 120140147.818 7  93615710.857 7  22861897.938                    22861908.559
 109168491.787 8  85066534.53946  20774051.586                    20774057.395
 119764735.948 7  93323250.34644  22790473.766                    22790482.789
 11  8 24  0 42 30.0000000  0  9G04G10G09G12G17G05G25G02G30
 120245308.913 7  93697773.41944  22881903.625                    22881913.164
 111648352.028 8  86998824.66345  21245944.859                    21245952.957
 130475884.349 6 101669586.17143  24828750.945                    24828764.434
 109547062.759 8  85361419.343 7  20846102.742                    20846110.133
 126298104.228 6  98414211.643 6  24033741.125                    24033752.199
 109619170.613 8  85417639.674 8  20859811.414                    20859819.711
 120060827.160 7  93553902.583 7  22846803.789                    22846814.418
 109186650.857 8  85080684.47046  20777507.141                    20777513.012
 119688560.557 7  93263892.96644  22775978.383                    22775987.402
 11  8 24  0 43  0.0000000  0  9G04G10G09G12G17G05G25G02G30
 120327082.984 7  93761493.46644  22897464.281                    22897473.742
 111696439.644 8  87036295.53145  21255095.672                    21255103.793
 130556610.859 6 101732489.83343  24844112.938                    24844126.008
 109524596.921 8  85343913.516 7  20841827.539                    20841834.824
 126363363.256 6  98465062.806 6  24046159.406                    24046170.609
 109560988.824 8  85372303.265 7  20848739.367                    20848747.980
 119981877.099 7  93492383.095 7  22831780.047                    22831791.051
 109205004.874 8  85094986.32246  20781000.133                    20781005.828
 119612822.095 7  93204876.04644  22761565.383                    22761574.391
 11  8 24  0 43 30.0000000  0  9G04G10G09G12G17G05G25G02G30
 120408865.983 7  93825220.46844  22913027.164                    22913036.813
 111745088.561 8  87074203.76845  21264353.172                    21264361.598
 130637259.020 6 101795332.44543  24859459.414                    24859472.988
 109502692.817 8  85326845.392 7  20837659.352                    20837666.902
 126428809.940 6  98516060.156 6  24058614.906                    24058624.809
 109503304.359 8  85327354.380 7  20837762.727                    20837770.785
 119903300.169 7  93431154.364 7  22816827.383                    22816838.086
 109223552.431 8  85109438.98546  20784529.164                    20784534.898
 119537522.967 7  93146201.44744  22747236.422                    22747245.344
 11  8 24  0 44  0.0000000  0  8G04G10G12G17G05G25G02G30
 120490657.238 7  93888953.88044  22928591.305                    22928600.887
 111794297.022 8  87112548.02645  21273716.969                    21273725.629
 109481352.094 8  85310216.277 7  20833598.563                    20833605.609
 126494444.999 6  98567204.313 6  24071103.695                    24071114.391
 109446119.312 8  85282794.654 7  20826880.766                    20826889.047
 119825099.279 7  93370218.650 7  22801945.867                    22801956.531
 109242292.799 8  85124041.88746  20788095.406                    20788100.785
 119462666.040 7  93087871.42044  22732991.758                    22733000.352
 11  8 24  0 44 30.0000000  0  8G04G10G12G17G05G25G02G30
 120572455.215 7  93952692.53544  22944157.391                    22944166.793
 111844063.036 8  87151326.72945  21283187.172                    21283195.379
 109460575.502 8  85294026.734 7  20829644.961                    20829652.164
 126560268.125 6  98618495.001 6  24083628.781                    24083640.707
 109389435.306 8  85238625.348 7  20816094.055                    20816102.148
 119747276.856 7  93309577.841 7  22787137.219                    22787147.684
 109261224.978 8  85138794.25846  20791697.992                    20791703.617
 119388253.757 7  93029887.87044  22718831.836                    22718840.238
 11  8 24  0 45  0.0000000  0  8G04G10G12G17G05G25G02G30
 120654258.468 7  94016435.28244  22959723.930                    22959733.563
 111894384.450 8  87190538.23045  21292763.477                    21292771.406
 109440363.501 8  85278277.136 7  20825798.734                    20825805.648
 126626278.997 6  98669932.015 6  24096191.258                    24096202.176
 109333254.020 8  85194847.773 8  20805403.156                    20805410.848
 119669834.935 8  93249233.548 7  22772400.281                    22772410.766
 109280346.997 8  85153694.55546  20795336.891                    20795342.195
 119314288.016 7  92972252.27144  22704756.016                    22704765.164
 11  8 24  0 45 30.0000000  0  8G04G10G12G17G05G25G02G30
 120736065.570 7  94080181.02244  22975291.281                    22975300.922
 111945259.429 8  87230181.06145  21302444.219                    21302452.590
 109420717.260 8  85262968.395 7  20822059.891                    20822067.340
 126692477.708 6  98721515.422 6  24108788.555                    24108799.438
 109277577.027 8  85151463.158 7  20794808.047                    20794816.188
 119592775.956 7  93189187.647 7  22757736.141                    22757746.793
 109299657.598 8  85168741.80646  20799011.438                    20799017.246
 119240771.265 7  92914966.54944  22690766.891                    22690775.273
 11  8 24  0 46  0.0000000  0  8G04G10G12G17G05G25G02G30
 120817875.421 7  94143928.92944  22990859.484                    22990868.973
 111996685.841 7  87270253.57545  21312230.461                    21312238.539
 109401637.605 8  85248101.140 7  20818429.328                    20818436.430
 126758864.641 6  98773245.451 6  24121421.094                    24121432.754
 109222406.057 8  85108472.828 8  20784309.445                    20784317.117
 119516102.346 7  93129442.047 7  22743145.961                    22743156.492
 109319155.700 8  85183935.15646  20802722.102                    20802727.734
 119167705.919 7  92858032.57344  22676863.102                    22676871.297
 11  8 24  0 46 30.0000000  0  8G04G10G12G17G05G25G02G30
 120899687.378 7  94207678.47044  23006427.680                    23006437.066
 112048662.007 7  87310754.49445  21322121.242                    21322129.387
 109383125.662 8  85233676.268 7  20814906.227                    20814913.477
 126825440.133 6  98825122.427 6  24134090.055                    24134101.551
 109167743.461 8  85065878.644 7  20773907.375                    20773915.105
 119439817.174 7  93069999.123 7  22728629.188                    22728639.848
 109338841.027 8  85199274.40146  20806468.055                    20806473.555
 119095094.891 7  92801452.60844  22663045.398                    22663053.668
 11  8 24  0 47  0.0000000  0  8G04G10G12G17G05G25G02G30
 120981499.836 7  94271428.37044  23021996.313                    23022005.602
 112101185.746 8  87351682.07645  21332116.195                    21332124.430
 109365182.169 8  85219694.332 7  20811491.906                    20811499.219
 126892203.962 6  98877146.156 6  24146795.164                    24146805.762
 109113590.605 8  85023681.664 8  20763602.422                    20763610.340
 119363922.627 7  93010860.586 7  22714186.836                    22714197.520
 109358711.665 8  85214758.04446  20810249.195                    20810254.465
 119022940.369 7  92745228.35744  22649314.680                    22649323.332
 11  8 24  0 47 30.0000000  0  8G04G10G12G17G05G25G02G30
 121063311.863 6  94335177.92744  23037563.922                    23037574.211
 112154254.905 7  87393034.67545  21342214.914                    21342222.793
 109347808.035 8  85206156.061 7  20808185.633                    20808192.785
 126959156.363 6  98929316.804 6  24159535.953                    24159546.090
 109059949.404 8  84981883.377 7  20753394.750                    20753402.691
 119288421.071 7  92952028.274 7  22699819.273                    22699830.371
 109378766.734 8  85230385.39846  20814065.422                    20814071.215
 118951244.607 7  92689361.57744  22635671.047                    22635679.695
 11  8 24  0 48  0.0000000  0  8G04G10G12G17G05G25G02G30
 121145122.415 6  94398926.35344  23053132.289                    23053142.223
 112207867.721 8  87434810.89345  21352416.914                    21352424.789
 109331004.821 8  85193062.652 7  20804988.039                    20804995.297
 127026297.702 7  98981634.701 6  24172312.180                    24172323.051
 109006821.724 8  84940485.241 8  20743284.961                    20743292.754
 119213315.294 7  92893504.354 7  22685527.664                    22685537.719
 109399005.308 8  85246155.74046  20817916.672                    20817921.871
 118880010.251 7  92633854.33644  22622115.664                    22622124.855
 11  8 24  0 48 30.0000000  0  8G04G10G12G17G05G25G02G30
 121226930.325 7  94462672.71544  23068700.398                    23068709.445
 112262021.726 8  87477008.81945  21362722.453                    21362730.664
 109314772.196 8  85180413.855 7  20801899.063                    20801906.441
 127093627.677 7  99034099.562 6  24185124.742                    24185136.563
 108954209.200 8  84899488.513 7  20733272.711                    20733281.063
 119138607.481 7  92835290.533 7  22671310.477                    22671321.156
 109419425.966 8  85262067.96046  20821802.766                    20821808.520
 118809239.500 7  92578708.34844  22608648.469                    22608657.215
 11  8 24  0 49  0.0000000  0  8G04G10G12G17G05G25G02G30
 121308734.583 7  94526416.23944  23084267.383                    23084275.996
 112316715.246 8  87519627.12645  21373129.859                    21373138.266
 109299111.654 8  85168210.853 7  20798918.820                    20798926.012
 127161146.648 6  99086711.708 6  24197973.891                    24197985.051
 108902113.552 8  84858894.559 7  20723359.266                    20723367.313
 119064300.166 7  92777388.791 7  22657170.320                    22657181.285
 109440027.739 8  85278121.30846  20825722.844                    20825728.555
 118738934.825 7  92523925.52944  22595269.766                    22595278.883
 11  8 24  0 49 30.0000000  0  8G04G10G12G17G05G25G02G30
 121390534.203 7  94590156.14544  23099832.695                    23099842.344
 112371946.203 8  87562664.23545  21383640.039                    21383648.141
 109284024.135 8  85156454.355 7  20796047.852                    20796055.414
 127228854.517 6  99139471.051 6  24210857.922                    24210869.219
 108850536.588 8  84818704.769 7  20713544.375                    20713552.363
 118990395.942 7  92719801.146 7  22643107.023                    22643117.586
 109460809.604 8  85294314.97746  20829677.492                    20829683.609
 118669098.592 7  92469507.74644  22581980.383                    22581989.293
 11  8 24  0 50  0.0000000  0  8G04G10G12G17G05G25G02G30
 121472327.739 7  94653891.31344  23115397.922                    23115407.133
 112427712.073 7  87606118.15845  21394251.742                    21394260.254
 109269509.935 8  85145144.593 7  20793286.070                    20793293.352
 127296751.553 6  99192377.779 6  24223777.352                    24223789.441
 108799479.683 8  84778920.215 8  20703828.969                    20703836.668
 118916897.005 7  92662529.300 7  22629119.875                    22629130.699
 109481770.133 8  85310647.87446  20833666.461                    20833672.234
 118599732.965 7  92415456.63444  22568780.211                    22568788.723
 11  8 24  0 50 30.0000000  0  8G04G10G12G17G05G25G02G30
 121554114.544 7  94717621.25244  23130961.055                    23130970.813
 112484011.162 8  87649987.57845  21404965.320                    21404973.426
 109255570.009 8  85134282.323 7  20790633.297                    20790640.816
 127364837.677 6  99245431.851 6  24236734.734                    24236745.422
 108748944.761 8  84739542.405 8  20694212.570                    20694220.344
 118843806.020 8  92605575.331 7  22615211.875                    22615222.520
 109502908.690 8  85327119.48646  20837688.633                    20837694.324
 118530840.612 7  92361774.31444  22555671.094                    22555679.602
 11  8 24  0 51  0.0000000  0  8G04G10G12G17G05G25G02G30
 121635893.201 7  94781344.86744  23146522.914                    23146532.598
 112540841.017 8  87694270.57945  21415779.930                    21415788.023
 109242204.823 8  85123867.891 7  20788090.125                    20788097.359
 127433112.838 6  99298633.245 6  24249726.680                    24249737.660
 108698932.769 8  84700572.075 8  20684695.227                    20684703.285
 118771125.194 8  92548940.960 7  22601380.813                    22601391.332
 109524223.440 8  85343728.39846  20841744.711                    20841750.555
 118462423.404 7  92308462.22744  22542651.695                    22542660.059
 11  8 24  0 51 30.0000000  0  8G04G10G12G17G05G25G02G30
 121717662.561 7  94845061.19944  23162083.797                    23162093.352
 112598199.496 8  87738965.49645  21426694.797                    21426702.930
 109229414.895 8  85113901.720 7  20785656.367                    20785663.531
 127501577.093 6  99351981.984 6  24262755.188                    24262766.371
 108649445.826 8  84662010.876 8  20675278.188                    20675286.324
 118698856.875 7  92492628.028 7  22587628.570                    22587639.188
 109545713.650 8  85360474.02446  20845834.461                    20845840.254
 118394483.784 7  92255522.31144  22529723.266                    22529731.242
 11  8 24  0 52  0.0000000  0  8G04G10G12G17G05G25G02G30
 121799421.699 7  94908769.59344  23177641.742                    23177651.816
 112656084.477 8  87784070.67145  21437710.078                    21437717.891
 109217201.065 8  85104384.444 7  20783332.133                    20783339.324
 127570230.593 6  99405478.211 6  24275819.813                    24275830.699
 108600484.988 8  84623859.620 8  20665961.359                    20665968.996
 118627003.526 7  92436638.436 7  22573955.195                    22573966.070
 109567378.155 8  85377355.45746  20849957.141                    20849962.984
 118327024.013 7  92202956.28845  22516885.820                    22516894.359
 11  8 24  0 52 30.0000000  0  8G04G10G12G17G05G25G02G30
 121881169.723 7  94972469.33844  23193198.398                    23193207.332
 112714493.473 7  87829584.17545  21448824.656                    21448832.820
 109205564.139 8  85095316.716 7  20781117.430                    20781124.617
 127639073.301 6  99459121.844 6  24288920.344                    24288931.020
 108552051.992 8  84586119.669 8  20656744.750                    20656752.762
 118555567.557 7  92380974.095 7  22560360.836                    22560371.957
 109589215.846 8  85394371.84446  20854112.477                    20854118.555
 118260046.400 7  92150765.97445  22504140.617                    22504148.793
 11  8 24  0 53  0.0000000  0  8G04G10G12G17G05G25G02G30
 121962905.719 7  95036159.70144  23208752.039                    23208761.652
 112773424.509 8  87875504.44945  21460038.797                    21460047.031
 109194504.782 8  85086699.040 7  20779013.203                    20779020.648
 127708105.437 6  99512913.096 6  24302056.297                    24302067.316
 108504148.630 8  84548792.420 8  20647629.117                    20647637.082
 118484551.420 8  92325636.895 7  22546847.242                    22546857.973
 109611225.981 8  85411522.60146  20858300.773                    20858306.328
 118193553.214 7  92098953.13845  22491487.188                    22491495.762
 11  8 24  0 53 30.0000000  0  8G04G10G12G17G05G25G02G30
 122044628.462 7  95099839.73644  23224303.742                    23224312.824
 112832875.478 8  87921829.88245  21471352.008                    21471360.418
 109184023.412 8  85078531.746 7  20777018.500                    20777025.828
 127777326.763 6  99566851.793 6  24315228.609                    24315239.750
 108456776.500 8  84511879.120 8  20638614.156                    20638621.953
 118413957.493 7  92270628.688 7  22533414.242                    22533424.695
 109633407.234 8  85428806.68846  20862521.789                    20862527.270
 118127546.741 7  92047519.58245  22478926.313                    22478935.402
 11  8 24  0 54  0.0000000  0  8G04G10G12G17G05G25G02G30
 122126336.807 7  95163508.56644  23239852.070                    23239860.836
 112892843.812 8  87968558.44545  21482763.914                    21482771.828
 109174120.211 8  85070814.968 7  20775134.055                    20775141.543
 127846737.301 6  99620937.891 6  24328436.797                    24328448.070
 108409936.667 8  84475380.596 8  20629701.000                    20629708.410
 118343787.777 7  92215951.028 7  22520060.773                    22520071.926
 109655758.229 7  85446223.04746  20866775.023                    20866780.438
 118062028.881 7  91996466.76145  22466458.516                    22466467.430
 11  8 24  0 54 30.0000000  0  8G04G10G12G17G05G25G02G30
 122208029.732 7  95227165.37144  23255397.688                    23255406.715
 112953327.367 8  88015688.47645  21494273.531                    21494281.445
 109164795.880 8  85063549.270 7  20773359.492                    20773366.996
 127916337.182 6  99675171.551 5  24341681.031                    24341692.418
 108363630.511 8  84439297.925 7  20620889.234                    20620896.910
 118274044.711 7  92161605.822 7  22506789.219                    22506799.762
 109678277.815 8  85463770.76746  20871060.367                    20871066.188
 117997001.911 7  91945796.44945  22454084.391                    22454093.020
 11  8 24  0 55  0.0000000  0  9G04G10G29G12G17G05G25G02G30
 122289707.180 7  95290810.11644  23270940.047                    23270950.098
 113014324.361 8  88063218.60445  21505880.523                    21505888.750
 129567141.08416 100961467.08316  24655815.984                    24655826.309
 109156051.466 8  85056735.447 7  20771695.844                    20771703.094
 127986126.380 6  99729552.720 6  24354962.188                    24354972.949
 108317860.179 8  84403632.775 7  20612179.164                    20612187.285
 118204731.317 7  92107595.438 7  22493598.906                    22493609.992
 109700965.902 8  85481449.78546  20875378.016                    20875383.500
 117932468.673 7  91895510.87444  22441804.055                    22441812.789
 11  8 24  0 55 30.0000000  0  9G04G10G29G12G17G05G25G02G30
 122371367.508 7  95354441.52844  23286479.492                    23286489.215
 113075832.325 7  88111146.88245  21517585.109                    21517593.523
 129487553.469 6 100899450.818 6  24640671.070                    24640681.609
 109147887.619 8  85050374.022 7  20770142.039                    20770149.258
 128056105.191 6  99784081.627 6  24368277.984                    24368289.543
 108272626.783 8  84368386.013 8  20603571.656                    20603579.242
 118135849.682 7  92053921.488 7  22480491.414                    22480502.035
 109723821.063 8  85499258.99446  20879727.117                    20879732.582
 117868431.121 7  91845611.53545  22429618.086                    22429626.703
 11  8 24  0 56  0.0000000  0  9G04G10G29G12G17G05G25G02G30
 122453010.737 7  95418059.58744  23302016.422                    23302025.668
 113137849.370 7  88159471.84745  21529386.742                    21529394.414
 129407886.243 6 100837372.547 6  24625510.719                    24625521.629
 109140304.958 8  85044465.475 7  20768699.125                    20768706.285
 128126273.733 6  99838758.419 5  24381631.305                    24381641.980
 108227932.210 8  84333559.114 8  20595066.266                    20595074.027
 118067402.608 7  92000586.149 7  22467466.813                    22467476.973
 109746842.800 8  85517197.99146  20884107.711                    20884113.461
 117804891.908 7  91796100.52145  22417526.492                    22417535.395
 11  8 24  0 56 30.0000000  0  9G04G10G29G12G17G05G25G02G30
 122534634.678 6  95481662.62144  23317548.320                    23317558.148
 113200372.169 8  88208190.92245  21541284.563                    21541292.555
 129328138.996 7 100775231.908 6  24610334.977                    24610345.836
 109133302.938 8  85039009.376 7  20767366.914                    20767374.254
 128196631.470 6  99893582.609 6  24395019.711                    24395030.805
 108183777.255 8  84299152.695 8  20586664.000                    20586671.824
 117999391.517 7  91947590.526 7  22454524.516                    22454534.941
 109770029.153 8  85535265.26446  20888519.977                    20888525.660
 117741852.239 7  91746978.77045  22405530.555                    22405539.984
 11  8 24  0 57  0.0000000  0  9G04G10G29G12G17G05G25G02G30
 122616238.690 6  95545250.13644  23333076.523                    23333086.934
 113263398.457 7  88257302.30845  21553278.039                    21553286.016
 129248312.541 7 100713029.558 6  24595144.695                    24595155.289
 109126882.283 8  85034006.283 7  20766144.836                    20766152.207
 128267178.270 6  99948554.174 5  24408443.797                    24408455.516
 108140163.165 8  84265167.735 8  20578364.484                    20578372.617
 117931818.784 7  91894936.484 7  22441665.938                    22441676.305
 109793379.161 8  85553460.07046  20892963.469                    20892969.094
 117679314.375 7  91698248.01845  22393630.461                    22393639.352
 11  8 24  0 57 30.0000000  0  9G04G10G29G12G17G05G25G02G30
 122697821.724 6  95608821.27343  23348601.602                    23348611.555
 113326925.906 8  88306804.19945  21565366.383                    21565374.871
 129168407.271 7 100650765.783 6  24579939.133                    24579949.762
 109121043.204 8  85029456.371 7  20765033.633                    20765040.656
 128337914.124 6 100003673.007 6  24421905.008                    24421916.773
 108097090.999 8  84231605.051 8  20570168.352                    20570176.508
 117864686.551 8  91842625.698 7  22428890.742                    22428901.438
 109816891.589 8  85571781.42446  20897437.711                    20897443.352
 117617280.323 7  91649909.86045  22381825.523                    22381834.195
 11  8 24  0 58  0.0000000  0  9G04G10G29G12G17G05G25G02G30
 122779382.925 6  95672375.42744  23364122.133                    23364132.660
 113390952.409 7  88356694.96945  21577550.641                    21577558.715
 129088423.811 6 100588441.097 5  24564719.063                    24564728.414
 109115786.024 8  85025359.894 7  20764033.266                    20764040.410
 128408838.949 6 100058939.085 5  24435401.094                    24435412.891
 108054562.184 8  84198465.747 8  20562075.094                    20562082.969
 117797997.193 7  91790659.995 7  22416200.000                    22416210.613
 109840565.369 8  85590228.51346  20901942.633                    20901948.508
 117555752.188 7  91601965.91245  22370117.070                    22370125.316
 11  8 24  0 58 30.0000000  0  9G04G10G29G12G17G05G25G02G30
 122860921.170 6  95735911.68244  23379638.938                    23379648.707
 113455475.124 7  88406972.41445  21589828.648                    21589836.961
 129008362.643 6 100526055.835 5  24549483.531                    24549493.199
 109111110.789 8  85021716.874 7  20763143.703                    20763150.703
 128479952.849 6 100114352.508 5  24448933.625                    24448944.336
 108012578.090 8  84165750.911 8  20554085.664                    20554093.434
 117731752.624 7  91739040.882 7  22403594.055                    22403604.840
 109864399.271 8  85608800.37046  20906478.281                    20906484.125
 117494731.717 7  91554417.52945  22358505.023                    22358513.633
 11  8 24  0 59  0.0000000  0  9G04G10G29G12G17G05G25G02G30
 122942436.295 6  95799429.90344  23395150.766                    23395160.215
 113520492.702 8  88457635.45945  21602201.453                    21602209.914
 128928224.702 6 100463610.768 5  24534233.352                    24534242.734
 109107018.668 8  85018528.231 7  20762364.961                    20762372.117
 128551255.574 6 100169913.086 5  24462502.734                    24462513.207
 107971140.202 8  84133461.678 8  20546200.406                    20546208.609
 117665955.997 7  91687770.814 7  22391073.750                    22391084.121
 109888393.236 8  85627496.95446  20911044.500                    20911049.813
 117434221.867 7  91507267.04445  22346990.578                    22346999.023
 11  8 24  0 59 30.0000000  0  9G04G10G29G12G17G05G25G02G30
 123023926.859 6  95862928.96244  23410657.242                    23410667.316
 113586002.005 8  88508681.66645  21614667.492                    21614675.738
 128848010.645 6 100401106.378 5  24518969.375                    24518978.078
 109103509.526 8  85015793.850 7  20761697.320                    20761704.148
 128622746.897 6 100225620.619 5  24476106.844                    24476117.867
 107930249.521 8  84101598.857 8  20538419.102                    20538426.980
 117600608.996 7  91636851.105 7  22378638.797                    22378648.895
 109912545.682 8  85646317.02846  20915640.195                    20915645.754
 117374224.251 7  91460515.69445  22335573.148                    22335581.500
 11  8 24  1  0  0.0000000  0  9G04G10G29G12G17G05G25G02G30
 123105391.898 6  95926408.13543  23426160.313                    23426169.641
 113652000.094 8  88560108.74545  21627226.688                    21627234.773
 128767720.699 6 100338542.843 5  24503690.891                    24503699.984
 109100583.772 8  85013514.057 7  20761140.422                    20761147.469
 128694426.861 6 100281475.177 6  24489747.531                    24489758.328
 107889907.264 8  84070163.370 8  20530742.625                    20530750.188
 117535713.679 7  91586283.347 7  22366289.172                    22366300.203
 109936855.217 8  85665259.51646  20920266.156                    20920271.766
 117314740.709 7  91414164.91645  22324254.047                    22324262.172
 11  8 24  1  0 30.0000000  0  9G04G10G29G12G17G05G25G02G30
 123186831.366 7  95989867.39844  23441657.500                    23441667.137
 113718485.324 8  88611915.38245  21639878.063                    21639886.707
 128687356.196 6 100275921.248 5  24488398.406                    24488407.559
 109098241.459 8  85011688.891 7  20760694.508                    20760702.051
 128766295.950 6 100337477.089 6  24503422.766                    24503434.664
 107850114.876 8  84039156.351 8  20523170.117                    20523177.977
 117471272.900 7  91536069.778 7  22354026.859                    22354037.297
 109961321.825 8  85684324.40746  20924922.078                    20924927.828
 117255773.729 7  91368216.64945  22313033.047                    22313040.883
 11  8 24  1  1  0.0000000  0  8G04G10G29G12G05G25G02G30
 123268245.061 7  96053306.57544  23457149.641                    23457160.012
 113785456.221 8  88664100.47245  21652622.367                    21652630.895
 128606918.532 6 100213242.622 6  24473091.031                    24473100.297
 109096483.877 8  85010319.355 7  20760360.102                    20760367.219
 107810874.556 8  84008579.519 8  20515702.406                    20515710.152
 117407289.693 7  91486212.745 7  22341851.133                    22341861.695
 109985945.120 8  85703511.39046  20929607.617                    20929613.461
 117197326.273 7  91322673.20445  22301910.836                    22301919.414
 11  8 24  1  1 30.0000000  0  8G04G10G29G12G05G25G02G30
 123349630.545 7  96116723.73544  23472637.016                    23472646.777
 113852908.558 8  88716660.71945  21665458.008                    21665466.488
 128526406.789 6 100150506.281 6  24457770.391                    24457779.461
 109095309.700 8  85009404.421 7  20760136.688                    20760143.816
 107772185.761 8  83978432.449 8  20508340.563                    20508348.004
 117343764.508 7  91436712.625 7  22329762.742                    22329772.965
 110010722.489 8  85722818.43546  20934322.695                    20934328.281
 117139398.606 7  91277534.77945  22290887.594                    22290895.656
 11  8 24  1  2  0.0000000  0  8G04G10G29G12G05G25G02G30
 123430987.432 7  96180118.61444  23488119.148                    23488128.922
 113920840.397 8  88769594.59945  21678385.219                    21678393.285
 128445821.765 7 100087712.833 6  24442435.602                    24442445.582
 109094719.203 8  85008944.298 7  20760024.250                    20760031.555
 107734049.815 8  83948716.162 8  20501083.281                    20501091.176
 117280699.867 8  91387571.358 7  22317761.922                    22317772.242
 110035653.294 8  85742245.03746  20939066.930                    20939072.809
 117081992.938 7  91232803.11045  22279963.602                    22279971.617
 11  8 24  1  2 30.0000000  0  8G04G10G29G12G05G25G02G30
 123512314.293 7  96243490.10644  23503595.383                    23503605.223
 113989248.779 8  88822899.81145  21691402.672                    21691411.195
 128365164.155 7 100024862.812 6  24427087.258                    24427096.676
 109094712.476 8  85008939.057 7  20760023.016                    20760030.414
 107696467.943 8  83919431.615 8  20493932.008                    20493939.488
 117218097.599 7  91338790.394 7  22305849.047                    22305859.418
 110060736.342 8  85761790.27646  20943840.008                    20943845.852
 117025110.878 7  91188479.44645  22269138.914                    22269147.824
 11  8 24  1  3  0.0000000  0  8G04G10G29G12G05G25G02G30
 123593610.542 7  96306837.72643  23519065.367                    23519075.938
 114058131.284 8  88876574.46545  21704510.781                    21704518.906
 128284434.326 7  99961956.528 6  24411724.922                    24411734.570
 109095289.655 8  85009388.810 7  20760132.922                    20760139.887
 107659440.761 8  83890579.301 8  20486885.680                    20486893.145
 117155959.930 7  91290371.448 7  22294024.453                    22294035.051
 110085970.296 8  85781453.11146  20948641.891                    20948647.551
 116968754.526 7  91144565.42245  22258415.258                    22258422.980
 11  8 24  1  3 30.0000000  0  8G04G10G29G12G05G25G02G30
 123674875.495 6  96370161.01543  23534529.992                    23534539.391
 114127485.106 8  88930616.37545  21717708.359                    21717716.305
 128203633.101 7  99898994.599 6  24396348.664                    24396358.113
 109096450.844 8  85010293.627 7  20760354.016                    20760360.977
 107622969.539 8  83862160.200 8  20479945.414                    20479952.762
 117094288.940 7  91242316.157 7  22282288.969                    22282299.340
 110111354.398 8  85801232.93146  20953472.164                    20953478.137
 116912925.671 7  91101062.44645  22247791.328                    22247799.648
 11  8 24  1  4  0.0000000  0  8G04G10G29G12G05G25G02G30
 123756108.632 7  96433459.49343  23549987.789                    23549997.477
 114197308.152 8  88985023.91645  21730995.398                    21731003.426
 128122761.494 7  99835977.844 6  24380959.477                    24380968.730
 109098196.272 8  85011653.699 7  20760685.805                    20760693.109
 107587055.638 8  83834175.372 8  20473111.313                    20473118.934
 117033087.216 7  91194626.524 7  22270642.531                    22270652.789
 110136888.100 8  85821129.33146  20958331.016                    20958336.816
 116857626.690 7  91057972.34545  22237267.656                    22237276.605
 11  8 24  1  4 30.0000000  0  8G04G10G29G12G05G25G02G30
 123837308.968 7  96496732.42643  23565439.297                    23565449.922
 114267597.393 8  89039794.73445  21744371.289                    21744379.242
 128041819.843 7  99772906.506 6  24365556.336                    24365565.590
 109100525.386 8  85013468.587 7  20761129.453                    20761136.570
 107551699.519 8  83806625.179 8  20466383.313                    20466391.020
 116972356.345 8  91147303.797 7  22259086.289                    22259096.340
 110162569.959 8  85841141.17546  20963218.445                    20963224.066
 116802858.882 7  91015296.14945  22226845.961                    22226854.594
 11  8 24  1  5  0.0000000  0  8G04G10G29G12G05G25G02G30
 123918475.727 7  96559979.21743  23580884.984                    23580895.449
 114338350.868 8  89094927.28145  21757834.742                    21757843.160
 127960809.276 6  99709781.472 6  24350140.328                    24350149.891
 109103438.573 8  85015738.587 7  20761683.453                    20761690.758
 107516902.586 8  83779510.718 8  20459761.336                    20459769.410
 116912098.716 8  91100349.811 7  22247619.250                    22247629.496
 110188399.308 8  85861267.94546  20968133.461                    20968139.371
 116748624.412 7  90973035.53945  22216525.063                    22216533.805
 11  8 24  1  5 30.0000000  0  8G04G10G29G12G05G25G02G30
 123999608.566 7  96623199.59043  23596324.695                    23596334.023
 114409566.338 7  89150419.84945  21771386.719                    21771395.250
 127879730.515 6  99646603.273 6  24334711.281                    24334721.328
 109106936.205 8  85018464.007 7  20762349.367                    20762356.668
 107482665.960 8  83752832.864 8  20453246.797                    20453253.824
 116852316.696 8  91053766.442 7  22236243.516                    22236253.051
 110214375.732 8  85881509.32146  20973076.430                    20973082.270
 116694925.382 7  90931192.16545  22206306.883                    22206315.348
 11  8 24  1  6  0.0000000  0  8G04G10G29G12G05G25G02G30
 124080706.462 7  96686392.72043  23611757.398                    23611766.473
 114481240.656 8  89206269.95245  21785025.883                    21785034.398
 127798584.199 6  99583372.473 6  24319268.961                    24319279.664
 109111017.693 8  85021644.369 7  20763125.766                    20763133.012
 107448990.153 8  83726592.005 8  20446838.180                    20446846.141
 116793011.937 8  91007554.964 7  22224957.742                    22224967.766
 110240497.537 8  85901863.98046  20978047.328                    20978053.160
 116641763.262 7  90889767.15845  22196190.531                    22196199.160
 11  8 24  1  6 30.0000000  0  8G04G10G29G12G05G25G02G30
 124161768.546 7  96749557.95144  23627182.758                    23627192.004
 114553371.154 8  89262475.51845  21798751.805                    21798760.094
 127717371.117 6  99520089.632 6  24303813.852                    24303824.707
 109115683.223 8  85025279.836 7  20764013.445                    20764020.707
 107415876.261 8  83700789.010 8  20440536.820                    20440544.840
 116734186.578 8  90961717.049 7  22213763.813                    22213774.184
 110266763.955 8  85922331.31946  20983045.398                    20983051.297
 116589139.808 7  90848761.88145  22186176.852                    22186185.133
 11  8 24  1  7  0.0000000  0  8G04G10G29G12G05G25G02G30
 124242794.285 7  96812694.88743  23642601.367                    23642611.266
 114625955.414 8  89319034.67245  21812564.484                    21812572.605
 127636092.167 6  99456755.437 5  24288348.289                    24288358.160
 109120932.846 8  85029370.439 7  20765012.719                    20765019.980
 107383325.265 8  83675424.635 8  20434342.523                    20434350.191
 116675842.761 7  90916254.360 7  22202661.172                    22202671.027
 110293174.316 8  85942910.81846  20988071.320                    20988076.785
 116537057.018 7  90808177.92145  22176265.023                    22176274.418
 11  8 24  1  7 30.0000000  0  8G04G10G29G12G05G25G02G30
 124323782.556 7  96875802.64044  23658013.242                    23658022.254
 114698990.337 8  89375944.97545  21826462.453                    21826470.320
 127554747.233 6  99393369.808 6  24272868.813                    24272878.477
 109126765.745 8  85033915.540 7  20766122.555                    20766129.922
 107351337.548 8  83650499.170 8  20428255.500                    20428262.926
 116617981.804 8  90871167.925 7  22191650.070                    22191660.668
 110319726.789 8  85963601.05846  20993124.109                    20993129.676
 116485515.818 7  90768015.96045  22166457.313                    22166465.770
 11  8 24  1  8  0.0000000  0  8G04G10G29G12G05G25G02G30
 124404732.780 7  96938880.73043  23673417.273                    23673427.125
 114772473.557 8  89433204.62045  21840446.102                    21840453.688
 127473337.717 6  99329933.866 6  24257377.820                    24257386.984
 109133181.783 8  85038915.041 7  20767343.578                    20767350.629
 107319914.174 8  83626013.459 8  20422275.938                    20422283.316
 116560606.001 7  90826459.528 7  22180732.242                    22180742.332
 110346421.044 8  85984401.77246  20998204.109                    20998209.180
 116434518.323 7  90728277.67445  22156752.883                    22156761.094
 11  8 24  1  8 30.0000000  0  8G04G10G29G12G05G25G02G30
 124485644.750 7  97001929.01143  23688813.820                    23688823.809
 114846402.838 8  89490811.86245  21854514.273                    21854522.336
 127391864.769 7  99266448.498 6  24241873.766                    24241883.012
 109140181.605 8  85044369.438 7  20768675.500                    20768682.594
 107289056.359 8  83601968.436 8  20416403.609                    20416411.188
 116503717.964 8  90782131.206 7  22169906.914                    22169917.227
 110373256.831 8  86005312.76346  21003310.758                    21003316.332
 116384066.895 7  90688964.89745  22147152.070                    22147160.883
 11  8 24  1  9  0.0000000  0  8G04G10G29G12G05G25G02G30
 124566516.930 7  97064946.29143  23704203.398                    23704213.102
 114920774.690 7  89548763.95745  21868666.625                    21868674.656
 127310328.207 7  99202913.558 6  24226358.094                    24226366.867
 109147764.018 8  85050277.800 7  20770118.414                    20770125.660
 107258763.909 8  83578363.966 8  20410639.273                    20410646.750
 116447318.649 8  90738183.706 7  22159174.461                    22159184.824
 110400231.757 8  86026332.18246  21008443.953                    21008449.621
 116334162.113 7  90650078.07545  22137655.984                    22137664.133
 11  8 24  1  9 30.0000000  0  8G04G10G29G12G05G25G02G30
 124647349.125 6  97127932.39943  23719585.336                    23719595.262
 114995586.923 7  89607059.19645  21882902.672                    21882911.289
 127228729.588 7  99139330.262 6  24210830.023                    24210839.445
 109155929.068 7  85056640.173 7  20771672.367                    20771679.191
 107229037.871 7  83555200.857 8  20404982.563                    20404990.180
 116391410.412 7  90694618.886 7  22148535.195                    22148545.770
 110427345.623 7  86047459.86246  21013603.391                    21013608.871
 116284806.093 7  90611618.86445  22128263.703                    22128272.234
 11  8 24  1 10  0.0000000  0  8G04G10G29G12G05G25G02G30
 124728140.876 7  97190886.98243  23734959.438                    23734969.410
 115070837.366 7  89665695.88045  21897222.281                    21897230.762
 127147069.809 7  99075699.315 6  24195290.977                    24195300.352
 109164677.135 8  85063456.842 7  20773337.117                    20773343.980
 107199879.650 8  83532480.197 8  20399433.836                    20399441.410
 116335995.671 8  90651438.608 7  22137990.367                    22138000.914
 110454598.184 8  86068695.62346  21018789.391                    21018795.250
 116236000.925 7  90573588.90245  22118976.453                    22118984.762
 11  8 24  1 10 30.0000000  0  8G04G10G29G12G05G25G02G30
 124808891.001 6  97253809.17243  23750325.820                    23750335.988
 115146522.522 7  89724671.31545  21911625.047                    21911633.230
 127065348.794 7  99012020.653 6  24179739.852                    24179749.180
 109174006.679 8  85070726.611 7  20775112.273                    20775119.395
 107171288.974 8  83510201.775 8  20393993.227                    20394000.910
 116281075.396 8  90608643.617 7  22127539.141                    22127549.754
 110481987.139 8  86090037.66746  21024001.063                    21024006.820
 116187747.316 7  90535988.71045  22109793.734                    22109802.105
 11  8 24  1 11  0.0000000  0  8G04G10G29G12G05G25G02G30
 124889599.410 6  97316698.83043  23765684.219                    23765694.430
 115222640.571 7  89783984.05745  21926109.766                    21926118.176
 126983568.717 6  98948295.964 6  24164177.445                    24164187.148
 109183918.360 8  85078449.996 7  20776998.508                    20777005.805
 107143267.545 8  83488366.934 8  20388660.898                    20388668.473
 116226652.421 8  90566236.139 7  22117183.039                    22117193.797
 110509513.125 8  86111486.48046  21029239.211                    21029244.988
 116140047.837 7  90498820.30445  22100717.078                    22100724.895
 11  8 24  1 11 30.0000000  0  8G04G10G29G12G05G25G02G30
 124970265.334 7  97379555.34943  23781034.500                    23781044.629
 115299188.223 7  89843631.56645  21940676.133                    21940684.883
 126901729.616 6  98884525.319 6  24148604.109                    24148613.770
 109194411.776 8  85086626.688 7  20778995.359                    20779002.453
 107115815.672 8  83466975.894 8  20383436.617                    20383444.781
 116172728.279 7  90524217.358 7  22106921.289                    22106931.996
 110537174.668 8  86133040.92746  21034503.320                    21034508.723
 116092903.627 7  90462084.57045  22091746.055                    22091754.500
 11  8 24  1 12  0.0000000  0  8G04G10G29G12G05G25G02G30
 125050888.191 7  97442378.35643  23796376.484                    23796386.234
 115376162.779 7  89903611.73045  21955324.430                    21955331.965
 126819832.583 6  98820709.535 6  24133018.859                    24133029.047
 109205486.607 8  85095256.436 7  20781102.773                    20781110.172
 107088934.083 8  83446029.229 8  20378321.461                    20378329.238
 116119304.955 8  90482588.824 7  22096755.320                    22096765.750
 110564971.097 8  86154700.47246  21039792.758                    21039798.469
 116046316.386 7  90425782.84845  22082880.539                    22082889.016
 11  8 24  1 12 30.0000000  0  8G04G10G29G12G05G25G02G30
 125131467.242 7  97505167.20743  23811710.211                    23811719.961
 115453561.762 7  89963922.61745  21970052.906                    21970060.758
 126737878.677 6  98756849.461 6  24117422.992                    24117433.219
 109217142.189 8  85104338.713 7  20783320.719                    20783327.824
 107062623.029 8  83425527.137 8  20373314.422                    20373322.207
 116066384.143 8  90441351.861 7  22086684.555                    22086695.137
 110592901.340 8  86176464.29346  21045107.523                    21045113.438
 116000287.459 7  90389916.18445  22074121.734                    22074129.914
 11  8 24  1 13  0.0000000  0  8G04G10G29G12G05G25G02G30
 125212001.795 6  97567921.34644  23827035.523                    23827045.219
 115531382.513 7  90024562.16345  21984861.516                    21984869.340
 126655868.585 6  98692945.595 6  24101816.836                    24101827.418
 109229378.233 8  85113873.302 7  20785649.070                    20785656.551
 107036883.259 8  83405470.198 8  20368416.438                    20368423.641
 116013967.697 8  90400507.905 7  22076709.945                    22076720.039
 110620964.482 8  86198331.67746  21050447.570                    21050453.488
 115954818.471 7  90354485.83545  22065469.109                    22065477.250
 11  8 24  1 13 30.0000000  0  8G04G10G29G12G05G25G02G30
 125292491.209 7  97630640.29444  23842352.047                    23842362.223
 115609621.916 8  90085527.94645  21999749.813                    21999757.527
 126573802.815 6  98628998.336 6  24086201.133                    24086210.371
 109242193.986 8  85123859.617 7  20788087.797                    20788095.215
 107011715.479 8  83385858.977 8  20363627.172                    20363634.727
 115962057.218 8  90360058.205 7  22066831.883                    22066842.461
 110649159.494 8  86220301.81046  21055813.125                    21055819.023
 115909910.574 7  90319492.69245  22056922.945                    22056931.086
 11  8 24  1 14  0.0000000  0  8G04G10G29G12G05G25G02G30
 125372934.849 7  97693323.60444  23857659.719                    23857669.984
 115688277.170 7  90146817.74745  22014717.281                    22014726.262
 126491682.516 6  98565008.556 5  24070573.984                    24070583.527
 109255589.228 8  85134297.474 7  20790636.898                    20790644.145
 106987119.405 8  83366693.228 8  20358946.742                    20358954.426
 115910654.312 8  90320004.022 7  22057050.328                    22057060.605
 110677485.483 8  86242374.00746  21061203.617                    21061209.027
 115865565.186 7  90284937.86745  22048484.789                    22048492.781
 11  8 24  1 14 30.0000000  0  8G04G10G29G12G05G25G02G30
 125453332.464 7  97755971.03243  23872959.039                    23872969.195
 115767345.973 7  90208429.77645  22029763.766                    22029772.523
 126409508.556 7  98500976.955 5  24054936.992                    24054945.703
 109269563.043 8  85145186.175 7  20793296.023                    20793303.047
 106963096.305 8  83347973.965 8  20354375.039                    20354382.875
 115859761.236 8  90280347.113 7  22047365.336                    22047375.461
 110705941.946 8  86264547.87046  21066618.641                    21066624.488
 115821784.027 7  90250822.70445  22040153.219                    22040161.746
 11  8 24  1 15  0.0000000  0  8G04G10G29G12G05G25G02G30
 125533683.020 7  97818581.80143  23888249.383                    23888259.535
 115846825.074 7  90270361.53245  22044887.922                    22044896.805
 126327281.614 7  98436904.055 5  24039289.727                    24039297.953
 109284114.761 8  85156525.189 7  20796064.883                    20796072.289
 106939646.254 8  83329701.232 8  20349912.719                    20349920.320
 115809379.212 8  90241088.408 7  22037778.023                    22037788.324
 110734527.526 8  86286822.34046  21072058.219                    21072064.195
 115778568.197 7  90217148.04845  22031929.844                    22031937.785
 11  8 24  1 15 30.0000000  0  8G04G10G29G12G05G25G02G30
 125613985.965 7  97881155.44943  23903530.570                    23903540.609
 115926711.668 7  90332610.82945  22060089.820                    22060098.410
 126245003.043 7  98372790.901 5  24023632.055                    24023641.297
 109299244.522 8  85168314.625 7  20798944.219                    20798951.672
 106916769.433 8  83311875.166 8  20345559.367                    20345566.992
 115759510.132 8  90202229.402 7  22028288.547                    22028298.488
 110763241.534 8  86309196.88746  21077522.063                    21077528.047
 115735919.022 7  90183914.94845  22023813.836                    22023821.781
 11  8 24  1 16  0.0000000  0  8G04G10G29G12G05G25G02G30
 125694240.872 6  97943691.67443  23918802.586                    23918813.000
 116007003.302 7  90395175.73145  22075369.180                    22075377.656
 126162673.411 7  98308637.982 6  24007965.281                    24007974.516
 109314951.214 8  85180553.619 7  20801933.055                    20801940.559
 106894466.592 8  83294496.361 8  20341315.234                    20341323.047
 115710155.604 8  90163771.346 7  22018896.359                    22018906.875
 110792083.227 8  86331670.92946  21083010.297                    21083016.488
 115693837.940 7  90151124.50945  22015806.281                    22015814.027
 11  8 24  1 16 30.0000000  0  8G04G10G29G12G05G25G02G30
 125774447.443 7  98006190.23243  23934065.906                    23934075.559
 116087697.369 7  90458054.21945  22090724.547                    22090732.590
 126080294.167 7  98244446.428 6  23992289.656                    23992298.570
 109331234.736 8  85193242.079 7  20805031.898                    20805038.883
 106872738.497 8  83277565.406 8  20337180.773                    20337187.887
 115661317.740 8  90125715.884 7  22009602.992                    22009613.363
 110821052.234 8  86354244.17646  21088523.359                    21088529.082
 115652326.571 7  90118778.00545  22007906.344                    22007914.816
 11  8 24  1 17  0.0000000  0  8G04G10G29G12G05G25G02G30
 125854605.188 6  98068650.73843  23949318.672                    23949328.906
 116168790.968 7  90521244.03245  22106155.836                    22106164.699
 125997866.157 6  98180216.880 6  23976603.391                    23976613.027
 109348094.035 8  85206379.199 7  20808239.984                    20808247.109
 106851585.516 8  83261082.600 8  20333155.227                    20333162.348
 115612998.218 8  90088064.327 7  22000407.984                    22000418.059
 110850147.646 8  86376915.91546  21094059.938                    21094065.832
 115611386.297 7  90086876.51845  22000115.930                    22000123.840
 11  8 24  1 17 30.0000000  0  8G04G10G29G12G05G25G02G30
 125934712.835 6  98131072.23143  23964562.641                    23964573.094
 116250280.314 7  90584742.21145  22121662.867                    22121671.461
 125915389.501 6  98115949.435 6  23960908.602                    23960918.016
 109365527.930 8  85219964.062 7  20811557.445                    20811564.859
 106831007.025 8  83245047.445 8  20329239.453                    20329246.793
 115565197.836 8  90050817.290 7  21991312.164                    21991322.180
 110879367.434 8  86399684.57746  21099620.172                    21099625.547
 115571017.625 7  90055420.41345  21992433.531                    21992442.246
 11  8 24  1 18  0.0000000  0  8G04G10G29G12G05G25G02G30
 126014770.613 7  98193454.88243  23979797.469                    23979807.414
 116332163.713 7  90648547.45345  22137245.016                    22137253.801
 125832866.379 6  98051645.795 6  23945204.625                    23945213.996
 109383536.907 8  85233997.029 7  20814984.578                    20814991.723
 106811004.312 8  83229460.947 8  20325433.086                    20325440.430
 115517919.110 8  90013976.728 7  21982315.102                    21982325.129
 110908712.365 8  86422550.75646  21105204.672                    21105210.059
 115531222.594 7  90024411.31045  21984861.070                    21984869.617
 11  8 24  1 18 30.0000000  0  8G04G10G29G12G05G25G02G30
 126094778.143 6  98255798.36943  23995022.766                    23995033.113
 116414438.481 7  90712657.65445  22152901.461                    22152909.609
 125750297.348 6  97987306.389 6  23929491.789                    23929501.961
 109402120.036 8  85248477.392 7  20818520.648                    20818528.176
 106791577.962 8  83214323.567 8  20321736.234                    20321744.047
 115471163.835 8  89977544.059 7  21973418.102                    21973427.863
 110938181.582 8  86445513.78346  21110812.398                    21110818.207
 115492002.617 7  89993850.30145  21977398.133                    21977406.070
 11  8 24  1 19  0.0000000  0  8G04G10G29G12G05G25G02G30
 126174734.702 6  98318102.13743  24010237.469                    24010248.121
 116497101.588 7  90777070.44845  22168631.578                    22168640.398
 125667683.353 6  97922931.938 6  23913771.031                    23913781.125
 109421276.189 8  85263404.263 7  20822166.055                    20822173.133
 106772727.693 8  83199635.079 8  20318149.242                    20318156.641
 115424933.194 8  89941520.197 7  21964620.859                    21964630.477
 110967773.831 8  86468572.67346  21116443.547                    21116449.027
 115453358.543 7  89963738.04445  21970044.313                    21970052.078
 11  8 24  1 19 30.0000000  0  8G04G10G29G12G05G25G02G30
 126254639.369 6  98380365.49743  24025443.148                    24025454.199
 116580149.816 7  90841783.33545  22184435.133                    22184443.816
 125585025.012 6  97858522.914 6  23898041.180                    23898051.629
 109441004.425 8  85278776.903 7  20825920.313                    20825927.441
 106754453.329 8  83185395.340 8  20314671.578                    20314678.895
 115379228.433 8  89905906.123 7  21955923.156                    21955933.531
 110997487.893 8  86491726.49446  21122097.906                    21122103.930
 115415291.206 7  89934075.19445  21962800.273                    21962808.555
 11  8 24  1 20  0.0000000  0  8G04G10G29G12G05G25G02G30
 126334492.199 7  98442588.39643  24040639.086                    24040649.090
 116663580.944 7  90906794.57245  22200312.008                    22200319.902
 125502323.596 7  97794080.305 6  23882304.766                    23882314.121
 109461304.055 8  85294594.795 7  20829782.945                    20829790.488
 106736755.717 8  83171605.020 8  20311304.008                    20311311.621
 115334051.620 8  89870703.430 7  21947325.953                    21947336.309
 111027323.552 8  86514975.05846  21127775.219                    21127780.871
 115377802.291 7  89904863.06645  21955666.055                    21955674.164
 11  8 24  1 20 30.0000000  0  8G04G10G29G12G05G25G02G30
 126414292.114 6  98504770.12543  24055824.234                    24055834.414
 116747391.547 7  90972101.52445  22216260.508                    22216268.699
 125419579.918 7  97729604.761 6  23866558.711                    23866567.992
 109482174.280 8  85310857.293 7  20833754.695                    20833761.988
 106719634.519 8  83158263.856 8  20308046.164                    20308053.297
 115289403.787 8  89835912.952 7  21938830.102                    21938840.441
 111057279.619 8  86538317.44646  21133475.555                    21133481.023
 115340892.550 7  89876102.23445  21948642.516                    21948650.734
 11  8 24  1 21  0.0000000  0  8G04G10G29G12G05G25G02G30
 126494038.838 6  98566910.37043  24070999.797                    24071009.734
 116831578.812 7  91037701.98545  22232281.086                    22232288.660
 125336795.277 7  97665097.282 6  23850805.406                    23850814.809
 109503614.028 8  85327563.578 7  20837834.484                    20837841.832
 106703089.914 8  83145371.981 8  20304897.344                    20304904.707
 115245286.490 8  89801535.869 7  21930434.453                    21930445.191
 111087355.290 8  86561753.05046  21139198.609                    21139204.680
 115304562.974 7  89847793.49045  21941729.430                    21941737.523
 11  8 24  1 21 30.0000000  0  8G04G10G29G12G05G25G02G30
 126573731.976 6  98629008.90043  24086164.813                    24086174.191
 116916139.924 7  91103593.74645  22248372.070                    22248380.074
 125253970.834 7  97600558.801 6  23835044.797                    23835053.625
 109525622.331 8  85344712.897 7  20842022.516                    20842029.746
 106687122.098 8  83132929.553 8  20301858.797                    20301866.355
 115201701.312 8  89767573.419 7  21922140.797                    21922150.719
 111117549.888 8  86585281.31546  21144945.063                    21144950.738
 115268814.784 7  89819937.78045  21934926.258                    21934934.945
 11  8 24  1 22  0.0000000  0  8G04G10G29G12G05G25G02G30
 126653370.983 6  98691065.22243  24101319.633                    24101329.188
 117001072.043 7  91169774.60244  22264533.742                    22264542.492
 125171107.381 7  97535989.920 6  23819276.094                    23819284.664
 109548198.629 8  85362304.813 7  20846318.633                    20846326.172
 106671731.533 8  83120936.927 8  20298930.180                    20298937.238
 115158649.599 8  89734026.656 7  21913948.234                    21913958.605
 111147862.774 8  86608901.75646  21150713.219                    21150718.605
 115233649.005 7  89792535.89445  21928234.633                    21928243.051
 11  8 24  1 22 30.0000000  0  8G04G10G29G12G05G25G02G30
 126732956.203 6  98753079.61043  24116463.930                    24116473.773
 117086373.154 7  91236242.97945  22280766.297                    22280774.785
 125088206.577 7  97471391.934 6  23803500.391                    23803509.215
 109571342.605 8  85380339.071 7  20850722.852                    20850730.270
 106656918.487 8  83109394.319 8  20296111.047                    20296118.777
 115116133.666 8  89700897.395 7  21905857.609                    21905867.977
 111178294.201 8  86632614.56246  21156504.086                    21156509.969
 115199067.506 7  89765589.29445  21921654.281                    21921662.375
 11  8 24  1 23  0.0000000  0  8G04G10G29G12G05G25G02G30
 126812486.134 6  98815050.88943  24131597.734                    24131608.059
 117172039.313 7  91302995.80844  22297067.922                    22297076.766
 125005268.704 7  97406765.071 6  23787718.195                    23787726.777
 109595052.288 8  85398814.132 7  20855234.422                    20855241.684
 106642682.227 8  83098301.157 8  20293402.078                    20293409.445
 115074153.811 8  89668185.856 7  21897869.156                    21897879.535
 111208841.922 8  86656417.98646  21162317.203                    21162322.766
 115165070.100 7  89739097.83045  21915184.836                    21915193.008
 11  8 24  1 23 30.0000000  0  8G04G10G29G12G05G25G02G30
 126891960.671 6  98876979.05043  24146722.266                    24146732.246
 117258067.799 7  91370030.96844  22313438.961                    22313447.352
 124922294.824 7  97342110.140 6  23771928.641                    23771937.496
 109619326.984 8  85417729.475 7  20859853.938                    20859861.492
 106629023.013 8  83087657.634 8  20290802.656                    20290810.266
 115032711.754 8  89635893.374 7  21889982.977                    21889993.250
 111239505.529 8  86680311.71746  21168151.898                    21168157.746
 115131658.161 7  89713062.57845  21908826.609                    21908834.434
 11  8 24  1 24  0.0000000  0  8G04G10G29G12G05G25G02G30
 126971379.552 6  98938863.80743  24161834.172                    24161844.820
 117344456.086 7  91437346.47644  22329877.867                    22329886.344
 124839286.627 7  97277428.495 6  23756132.492                    23756140.957
 109644165.610 8  85437084.233 7  20864580.484                    20864587.965
 106615940.940 8  83077463.838 8  20288313.211                    20288320.637
 114991808.987 8  89604021.119 7  21882199.633                    21882209.383
 111270284.578 8  86704295.39946  21174009.203                    21174015.199
 115098832.772 7  89687484.37745  21902579.891                    21902588.316
 11  8 24  1 24 30.0000000  0  8G04G10G29G12G05G25G02G30
 127050742.384 6  99000704.91043  24176936.977                    24176947.316
 117431201.134 7  91504939.98445  22346384.656                    22346393.230
 124756245.098 7  97212720.862 6  23740329.617                    23740338.754
 109669567.368 8  85456877.801 7  20869414.203                    20869421.645
 106603436.126 8  83067719.851 8  20285933.906                    20285941.012
 114951446.905 8  89572570.177 7  21874518.992                    21874528.754
 111301178.458 8  86728368.55946  21179888.063                    21179894.234
 115066594.814 7  89662363.92845  21896445.148                    21896453.695
 11  8 24  1 25  0.0000000  0  8G04G10G29G12G05G25G02G30
 127130048.783 6  99062502.06643  24192028.828                    24192039.219
 117518300.072 7  91572809.26644  22362959.070                    22362967.793
 124673171.172 7  97147987.997 6  23724521.531                    23724530.402
 109695531.193 8  85477109.341 7  20874355.008                    20874362.504
 106591508.480 8  83058425.607 8  20283663.969                    20283671.211
 114911626.870 8  89541541.612 7  21866940.969                    21866951.613
 111332186.379 8  86752530.58646  21185788.727                    21185794.566
 115034945.267 7  89637701.96845  21890422.555                    21890430.953
 11  8 24  1 25 30.0000000  0  8G04G10G29G12G05G25G02G30
 127209297.933 6  99124254.61643  24207108.992                    24207119.809
 117605749.997 7  91640952.05345  22379601.203                    22379609.199
 124590065.586 7  97083230.456 6  23708707.336                    23708715.797
 109722056.054 8  85497778.045 7  20879402.883                    20879410.008
 106580157.758 8  83049580.909 8  20281503.836                    20281511.031
 114872349.827 8  89510936.150 7  21859467.273                    21859477.391
 111363307.191 8  86776780.59546  21191710.891                    21191716.754
 115003884.646 7  89613498.90945  21884512.273                    21884520.254
 11  8 24  1 26  0.0000000  0  9G04G10G29G12G26G05G25G02G30
 127288490.657 6  99185963.17843  24222179.133                    24222189.914
 117693549.021 7  91709366.86145  22396308.539                    22396317.164
 124506930.414 7  97018449.867 6  23692886.781                    23692896.207
 109749141.267 8  85518883.390 7  20884556.578                    20884564.023
 130558637.38015                  24844491.164
 106569384.791 8  83041186.415 8  20279454.070                    20279461.078
 114833618.207 8  89480755.694 7  21852096.836                    21852106.867
 111394541.821 8  86801119.27546  21197654.570                    21197660.297
 114973414.900 7  89589756.27745  21878713.586                    21878721.844
 11  8 24  1 26 30.0000000  0  9G04G10G29G12G26G05G25G02G30
 127367625.348 6  99247626.52343  24237238.430                    24237248.598
 117781693.119 7  91778050.54144  22413081.547                    22413090.508
 124423766.371 7  96953646.775 6  23677061.922                    23677069.930
 109776784.736 8  85540423.745 7  20889817.125                    20889824.785
 130467184.537 5                  24827088.609
 106559188.328 8  83033241.138 8  20277513.695                    20277520.926
 114795432.085 8  89451000.285 7  21844829.727                    21844839.980
 111425887.738 8  86825544.67446  21203619.594                    21203625.266
 114943535.699 7  89566473.80945  21873027.836                    21873036.426
 11  8 24  1 27  0.0000000  0  9G04G10G29G12G26G05G25G02G30
 127446702.257 6  99309244.83543  24252286.336                    24252296.480
 117870179.838 7  91847001.18844  22429919.867                    22429928.398
 124340574.654 7  96888822.115 6  23661230.422                    23661239.031
 109804985.947 8  85562398.711 7  20895183.797                    20895191.422
 130375591.532 6 101591448.93452  24809658.289                    24809669.762
 106549568.798 8  83025745.425 8  20275682.695                    20275690.516
 114757793.268 8  89421671.353 7  21837667.320                    21837677.793
 111457344.995 8  86850056.82346  21209605.680                    21209611.543
 114914248.341 7  89543652.52545  21867454.695                    21867462.598
 11  8 24  1 27 30.0000000  0  9G04G10G29G12G26G05G25G02G30
 127525720.793 7  99370817.69444  24267323.055                    24267332.848
 117959006.071 7  91916216.40744  22446823.391                    22446831.797
 124257356.266 7  96823976.655 6  23645394.063                    23645403.184
 109833743.322 8  85584807.044 7  20900656.055                    20900663.672
 130283861.050 6 101519970.80442  24792203.086                    24792214.078
 106540525.894 8  83018699.025 8  20273962.203                    20273969.938
 114720702.756 8  89392769.677 7  21830609.172                    21830619.895
 111488912.620 8  86874654.97846  21215612.977                    21215618.617
 114885553.518 7  89521292.94645  21861994.250                    21862002.246
 11  8 24  1 28  0.0000000  0  9G04G10G29G12G26G05G25G02G30
 127604680.618 7  99432344.79644  24282348.289                    24282358.891
 118048169.158 7  91985694.10244  22463789.992                    22463798.918
 124174112.421 7  96759111.356 6  23629553.734                    23629562.758
 109863056.153 8  85607648.210 7  20906234.492                    20906241.391
 130191995.904 6 101448387.78142  24774721.086                    24774732.449
 106532059.413 8  83012101.783 8  20272351.195                    20272358.422
 114684161.912 8  89364296.320 7  21823655.813                    21823666.500
 111520590.430 8  86899338.99146  21221640.883                    21221646.430
 114857452.008 7  89499395.69145  21856646.516                    21856654.715
 11  8 24  1 28 30.0000000  0  9G04G10G29G12G26G05G25G02G30
 127683581.197 7  99493825.76744  24297362.578                    24297373.223
 118137665.747 7  92055431.66845  22480821.156                    22480829.816
 124090844.377 7  96694227.183 6  23613708.375                    23613717.863
 109892922.673 8  85630920.810 7  20911917.406                    20911924.496
 130099998.641 6 101376701.74143  24757214.109                    24757226.074
 106524168.518 8  83005953.051 8  20270849.570                    20270856.875
 114648171.477 8  89336251.835 7  21816807.547                    21816817.094
 111552377.360 8  86924108.04046  21227689.484                    21227695.723
 114829944.144 7  89477961.00945  21851411.750                    21851420.141
 11  8 24  1 29  0.0000000  0  9G04G10G29G12G26G05G25G02G30
 127762422.463 7  99555260.47443  24312365.469                    24312376.250
 118227493.614 7  92125427.37444  22497915.086                    22497923.176
 124007553.367 7  96629325.112 6  23597859.008                    23597867.824
 109923342.146 8  85654624.287 7  20917706.414                    20917713.434
 130007872.533 6 101304915.35643  24739683.219                    24739694.523
 106516853.896 8  83000253.369 8  20269457.609                    20269464.902
 114612733.183 8  89308637.579 7  21810063.406                    21810073.656
 111584273.138 8  86948961.90946  21233759.422                    21233764.957
 114803031.170 7  89456989.88545  21846290.984                    21846299.305
 11  8 24  1 29 30.0000000  0  9G04G10G29G12G26G05G25G02G30
 127841204.118 7  99616648.72943  24327357.320                    24327367.699
 118317649.560 7  92195678.72345  22515071.070                    22515079.457
 123924240.466 7  96564405.977 6  23582004.461                    23582013.766
 109954313.047 8  85678757.451 7  20923599.805                    20923607.250
 129915620.126 6 101233030.49843  24722127.891                    24722139.703
 106510114.845 8  82995002.173 8  20268175.156                    20268182.754
 114577847.955 8  89281454.289 7  21803425.023                    21803435.559
 111616276.838 7  86973899.86846  21239849.086                    21239855.145
 114776713.503 7  89436482.62645  21841282.680                    21841290.949
 11  8 24  1 30  0.0000000  0  9G04G10G29G12G26G05G25G02G30
 127919925.549 7  99677990.08343  24342337.477                    24342347.641
 118408130.369 7  92266183.21845  22532288.961                    22532297.457
 123840906.818 7  96499470.672 6  23566146.734                    23566155.914
 109985833.880 8  85703319.140 7  20929597.672                    20929605.156
 129823244.252 6 101161049.45943  24704549.867                    24704560.770
 106503950.915 8  82990199.134 8  20267002.273                    20267009.477
 114543516.688 8  89254702.666 7  21796892.359                    21796902.570
 111648387.790 8  86998921.40846  21245959.805                    21245965.551
 114750991.615 7  89416439.62045  21836387.266                    21836396.020
 11  8 24  1 30 30.0000000  0  9G04G10G29G12G26G05G25G02G30
 127998586.763 7  99739284.51843  24357306.227                    24357317.191
 118498933.354 7  92336938.76145  22549567.695                    22549577.113
 123757553.684 7  96434520.193 6  23550285.305                    23550294.289
 110017903.658 8  85728308.575 7  20935700.914                    20935708.289
 129730747.950 6 101088974.56543  24686948.344                    24686959.754
 106498362.364 8  82985844.440 8  20265938.578                    20265945.637
 114509740.724 8  89228383.739 7  21790465.016                    21790475.238
 111680605.441 8  87024026.08846  21252090.734                    21252096.039
 114725866.361 7  89396861.50745  21831606.383                    21831614.758
 11  8 24  1 31  0.0000000  0  9G04G10G29G12G26G05G25G02G30
 128077187.113 7  99800531.49243  24372263.328                    24372274.113
 118590055.466 7  92407942.98344  22566907.547                    22566916.551
 123674182.450 7  96369555.625 6  23534420.055                    23534429.184
 110050520.659 8  85753724.425 7  20941907.617                    20941914.824
 129638133.857 6 101016807.87943  24669324.164                    24669335.461
 106493348.083 8  82981937.220 8  20264984.469                    20264991.703
 114476520.944 8  89202498.198 7  21784143.328                    21784152.992
 111712929.094 8  87049213.36246  21258241.594                    21258247.102
 114701338.154 7  89377748.61545  21826939.016                    21826947.164
 11  8 24  1 31 30.0000000  0  9G04G10G29G12G26G05G25G02G30
 128155726.408 6  99861730.90943  24387208.203                    24387219.340
 118681493.848 7  92479193.62644  22584308.406                    22584316.914
 123590794.275 7  96304577.862 6  23518552.188                    23518560.617
 110083683.716 8  85779565.762 7  20948218.273                    20948225.328
 129545405.002 6 100944551.76543  24651678.688                    24651689.754
 106488907.967 8  82978477.405 8  20264139.484                    20264147.117
 114443858.418 8  89177046.870 7  21777927.883                    21777937.770
 111745358.227 8  87074482.83246  21264412.547                    21264418.465
 114677407.613 7  89359101.45045  21822385.016                    21822393.691
 11  8 24  1 32  0.0000000  0  9G04G10G29G12G26G05G25G02G30
 128234204.631 6  99922882.70943  24402142.242                    24402153.563
 118773245.911 7  92550688.70144  22601767.961                    22601776.707
 123507390.515 6  96239587.964 6  23502680.664                    23502689.492
 110117391.352 7  85805831.442 7  20954632.625                    20954639.941
 129452564.319 6 100872208.49544  24634011.852                    24634022.223
 106485041.869 8  82975464.873 8  20263403.867                    20263410.980
 114411754.390 8  89152030.738 7  21771818.508                    21771828.566
 111777892.318 8  87099834.07946  21270603.523                    21270609.367
 114654075.374 7  89340920.49345  21817945.547                    21817953.602
 11  8 24  1 32 30.0000000  0  9G04G10G29G12G26G05G25G02G30
 128312621.416 6  99983986.59942  24417064.750                    24417075.785
 118865308.529 7  92622425.78344  22619286.938                    22619295.484
 123423972.424 7  96174586.914 6  23486806.688                    23486815.277
 110151642.466 8  85832520.620 7  20961150.211                    20961157.813
 129359614.631 6 100799780.31043  24616322.844                    24616334.371
 106481749.127 8  82972899.115 8  20262777.633                    20262784.508
 114380209.658 8  89127450.431 7  21765816.008                    21765825.820
 111810530.845 8  87125266.71046  21276814.289                    21276820.535
 114631341.864 7  89323206.07645  21813619.445                    21813627.387
 11  8 24  1 33  0.0000000  0  9G04G10G29G12G26G05G25G02G30
 128390976.340 6 100045042.29842  24431974.680                    24431985.785
 118957678.825 6  92694402.61444  22636864.125                    22636872.547
 123340541.240 7  96109575.677 6  23470930.859                    23470938.680
 110186435.250 8  85859631.873 7  20967770.961                    20967778.750
 129266558.989 6 100727269.52543  24598614.969                    24598626.133
 106479029.198 8  82970779.708 8  20262259.492                    20262267.172
 114349225.207 8  89103306.702 7  21759919.734                    21759929.730
 111843272.919 8  87150780.02346  21283045.320                    21283050.926
 114609207.596 8  89305958.58045  21809407.156                    21809415.148
 11  8 24  1 33 30.0000000  0  9G04G10G29G12G26G05G25G02G30
 128469269.164 6 100106049.73542  24446873.969                    24446884.418
 119050354.049 7  92766617.01744  22654500.336                    22654509.227
 123257098.515 7  96044555.461 6  23455051.883                    23455059.773
 110221768.512 7  85887164.290 7  20974494.914                    20974502.363
 129173400.245 6 100654678.40744  24580887.656                    24580899.016
 106476881.988 8  82969106.580 8  20261851.102                    20261858.359
 114318802.111 8  89079600.389 7  21754130.719                    21754140.449
 111876118.065 7  87176373.65246  21289295.445                    21289301.004
 114587673.020 7  89289178.38845  21805309.617                    21805317.855
 11  8 24  1 34  0.0000000  0  9G04G10G29G12G26G05G25G02G30
 128547499.974 6 100167008.71542  24461760.953                    24461772.141
 119143331.294 7  92839066.80244  22672193.125                    22672201.477
 123173645.175 7  95979526.979 6  23439170.680                    23439179.250
 110257640.752 8  85915116.677 7  20981321.172                    20981328.020
 129080141.389 6 100582009.25243  24563141.820                    24563152.129
 106475306.822 8  82967879.195 8  20261551.641                    20261558.551
 114288941.284 8  89056332.204 7  21748448.336                    21748458.414
 111909066.030 8  87202047.40746  21295565.148                    21295570.926
 114566738.614 8  89272865.86145  21801325.211                    21801333.762
 11  8 24  1 34 30.0000000  0  9G04G10G29G12G26G05G25G02G30
 128625668.191 6 100227918.97242  24476635.281                    24476647.035
 119236607.190 6  92911749.28044  22689942.609                    22689951.148
 123090182.663 7  95914491.345 6  23423288.727                    23423296.938
 110294050.220 8  85943487.682 7  20988249.750                    20988256.652
 128986785.430 6 100509264.45943  24545376.047                    24545386.520
 106474303.139 8  82967097.122 8  20261360.297                    20261367.840
 114259643.516 8  89033502.767 7  21742872.813                    21742883.152
 111942115.549 7  87227800.28546  21301854.344                    21301859.879
 114546404.670 8  89257021.22245  21797456.133                    21797464.477
 11  8 24  1 35  0.0000000  0  9G04G10G29G12G26G05G25G02G30
 128703773.695 6 100288780.32142  24491498.219                    24491509.684
 119330179.374 7  92984662.63744  22707748.352                    22707757.684
 123006712.434 7  95849449.700 6  23407404.250                    23407412.605
 110330995.450 8  85972276.162 7  20995280.219                    20995287.527
 128893335.230 6 100436446.24143  24527592.109                    24527603.520
 106473870.536 8  82966760.048 8  20261277.844                    20261285.359
 114230909.780 8  89011112.840 7  21737405.438                    21737415.277
 111975266.493 7  87253632.19846  21308162.461                    21308168.242
 114526671.603 8  89241644.79745  21793700.820                    21793709.145
 11  8 24  1 35 30.0000000  0  9G04G10G29G12G26G05G25G02G30
 128781816.288 6 100349592.68342  24506349.727                    24506360.945
 119424045.088 6  93057804.72444  22725611.203                    22725619.379
 122923235.741 6  95784403.009 6  23391519.430                    23391527.250
 110368475.296 8  86001481.228 7  21002412.672                    21002419.648
 128799793.974 6 100363557.01243  24509792.477                    24509803.531
 106474008.452 8  82966867.542 8  20261304.063                    20261311.371
 114202740.940 8  88989163.093 7  21732044.805                    21732054.730
 112008518.817 8  87279543.10246  21314490.297                    21314495.613
 114507539.866 8  89226736.95445  21790060.758                    21790068.500
 11  8 24  1 36  0.0000000  0  9G04G10G29G12G26G05G25G02G30
 128859795.926 6 100410355.97742  24521189.453                    24521199.922
 119518201.233 6  93131173.11344  22743528.070                    22743536.941
 122839753.989 6  95719352.376 6  23375632.555                    23375641.047
 110406488.043 8  86031101.542 7  21009645.852                    21009652.867
 128706164.686 6 100290599.23743  24491975.070                    24491986.602
 106474716.405 8  82967419.218 8  20261439.258                    20261446.172
 114175138.059 8  88967654.344 7  21726792.055                    21726801.934
 112041871.773 7  87305532.42246  21320837.195                    21320842.719
 114489009.975 8  89212298.07245  21786534.453                    21786542.352
 11  8 24  1 36 30.0000000  0  9G04G10G29G12G26G05G25G02G30
 128937712.083 6 100471069.84043  24536016.102                    24536027.555
 119612644.834 6  93204765.47444  22761500.914                    22761509.008
 122756268.438 6  95654298.786 6  23359746.242                    23359754.680
 110445031.719 8  86061135.571 7  21016980.578                    21016987.750
 128612450.151 6 100217575.00943  24474141.031                    24474152.773
 106475993.413 8  82968414.307 8  20261681.867                    20261689.035
 114148101.536 8  88946586.931 7  21721647.375                    21721657.344
 112075324.459 7  87331599.44546  21327203.063                    21327208.758
 114471081.728 8  89198327.99645  21783122.742                    21783130.340
 11  8 24  1 37  0.0000000  0  9G04G10G29G12G26G05G25G02G30
 129015564.584 6 100531734.14642  24550831.000                    24550842.047
 119707372.842 6  93278579.47444  22779526.313                    22779535.324
 122672780.432 7  95589243.250 6  23343858.305                    23343867.332
 110484105.045 8  86091582.315 7  21024415.906                    21024422.953
 128518653.390 6 100144486.71943  24456292.320                    24456304.063
 106477838.857 8  82969852.344 8  20262033.094                    20262040.266
 114121632.310 8  88925961.572 7  21716610.445                    21716620.367
 112108876.306 8  87357743.74146  21333587.914                    21333593.480
 114453755.656 8  89184827.15545  21779825.547                    21779833.734
 11  8 24  1 37 30.0000000  0  9G04G10G29G12G26G05G25G02G30
 129093353.525 6 100592348.87643  24565634.203                    24565644.598
 119802382.497 7  93352612.94044  22797606.492                    22797615.566
 122589291.409 6  95524186.928 6  23327971.102                    23327979.832
 110523706.297 8  86122440.419 7  21031951.711                    21031959.164
 128424777.559 6 100071336.87142  24438428.305                    24438439.703
 106480252.544 8  82971733.170 8  20262492.133                    20262499.668
 114095731.281 8  88905778.955 7  21711681.695                    21711691.488
 112142526.978 7  87383965.03846  21339991.383                    21339997.254
 114437032.033 8  89171795.75945  21776643.438                    21776651.773
 11  8 24  1 38  0.0000000  0  9G04G10G29G12G26G05G25G02G30
 129171078.543 6 100652913.79343  24580425.242                    24580435.148
 119897670.700 7  93426863.43744  22815739.313                    22815747.918
 122505802.696 6  95459130.842 6  23312083.422                    23312092.238
 110563833.576 8  86153708.418 7  21039587.727                    21039594.945
 128330825.653 6  99998127.72142  24420549.992                    24420561.004
 106483233.444 8  82974055.979 8  20263059.633                    20263067.000
 114070398.949 8  88886039.482 7  21706860.805                    21706870.578
 112176275.817 7  87410262.84646  21346413.422                    21346419.203
 114420910.921 8  89159233.85445  21773575.766                    21773583.652
 11  8 24  1 38 30.0000000  0  9G04G10G29G12G26G05G25G02G30
 129248739.235 6 100713428.61343  24595202.938                    24595212.891
 119993234.564 7  93501328.76944  22833924.266                    22833933.578
 122422315.601 6  95394076.002 6  23296197.016                    23296205.773
 110604485.146 8  86185384.962 7  21047323.773                    21047330.793
 128236800.457 6  99924861.45042  24402658.039                    24402668.535
 106486780.657 8  82976820.072 8  20263734.664                    20263742.102
 114045635.962 8  88866743.649 7  21702148.500                    21702158.613
 112210122.203 7  87436636.65046  21352854.375                    21352860.082
 114405392.356 8  89147141.47845  21770622.133                    21770630.313
 11  8 24  1 39  0.0000000  0  9G04G10G29G12G26G05G25G02G30
 129326335.698 7 100773893.42143  24609969.406                    24609978.789
 120089071.386 7  93576006.77644  22852162.250                    22852170.691
 122338831.532 7  95329023.518 6  23280310.648                    23280318.945
 110645659.656 8  86217468.981 7  21055159.031                    21055166.230
 128142705.190 6  99851540.63243  24384751.750                    24384761.773
 106490893.563 8  82980024.968 8  20264517.391                    20264524.551
 114021443.058 8  88847892.050 7  21697544.875                    21697555.031
 112244065.836 8  87463086.22446  21359313.617                    21359319.410
 114390476.633 8  89135518.83045  21767783.727                    21767792.328
 11  8 24  1 39 30.0000000  0  9G04G10G29G12G26G05G25G02G30
 129403867.416 6 100834307.74043  24624722.891                    24624732.836
 120185178.105 7  93650895.10044  22870450.227                    22870458.781
 122255352.107 7  95263974.645 6  23264424.797                    23264433.617
 110687355.129 8  86249958.956 7  21063093.219                    21063100.766
 128048542.956 6  99778167.61243  24366833.469                    24366843.688
 106495571.345 8  82983670.023 8  20265407.500                    20265414.777
 113997820.884 8  88829485.174 7  21693049.719                    21693059.852
 112278106.037 7  87489611.04946  21365791.430                    21365796.613
 114376163.762 8  89124365.94945  21765060.508                    21765068.262
 11  8 24  1 40  0.0000000  0  9G04G10G29G12G26G05G25G02G30
 129481334.418 7 100894671.64443  24639464.547                    24639474.660
 120281552.106 7  93725991.70144  22888789.906                    22888798.148
 122171878.526 7  95198930.331 6  23248539.852                    23248549.020
 110729569.842 8  86282853.534 7  21071126.492                    21071133.938
 127954316.823 6  99704744.75243  24348902.539                    24348912.750
 106500813.264 8  82987754.665 8  20266404.820                    20266411.824
 113974770.130 8  88811523.558 7  21688663.344                    21688673.102
 112312242.694 7  87516211.02946  21372287.164                    21372292.547
 114362453.996 8  89113683.02345  21762451.625                    21762459.879
 11  8 24  1 40 30.0000000  0  9G04G10G29G12G26G05G25G02G30
 129558736.312 6 100954984.80343  24654193.648                    24654204.051
 120378189.925 7  93801293.86144  22907179.078                    22907187.535
 122088412.284 7  95133891.728 6  23232657.336                    23232666.137
 110772301.825 8  86316151.167 7  21079258.219                    21079264.918
 127860029.803 7  99631274.47243  24330960.555                    24330970.773
 106506618.206 8  82992278.018 8  20267509.422                    20267516.516
 113952291.205 8  88794007.529 7  21684385.688                    21684396.191
 112346474.821 8  87542885.39746  21378801.305                    21378806.945
 114349347.091 8  89103469.86245  21759957.500                    21759965.305
 11  8 24  1 41  0.0000000  0  9G04G10G29G12G26G05G25G02G30
 129636073.543 6 101015247.55843  24668910.109                    24668920.098
 120475089.352 7  93876799.88644  22925618.586                    22925627.449
 122004955.010 7  95068860.130 6  23216776.023                    23216784.672
 110815549.896 8  86349850.953 7  21087487.883                    21087494.938
 127765685.134 6  99557759.31143  24313007.258                    24313016.875
 106512986.111 8  82997240.048 8  20268721.281                    20268728.402
 113930385.002 8  88776937.779 7  21680216.891                    21680226.797
 112380802.373 7  87569634.13246  21385333.961                    21385339.332
 114336843.530 8  89093726.83045  21757578.047                    21757585.926
 11  8 24  1 41 30.0000000  0  8G10G29G12G26G05G25G02G30
 120572248.051 7  93952507.92944  22944106.984                    22944115.688
 121921509.047 7  95003837.343 6  23200896.508                    23200905.520
 110859313.086 8  86383952.123 7  21095815.688                    21095823.012
 127671286.722 7  99484202.22143  24295043.844                    24295054.332
 106519916.593 8  83002640.447 8  20270039.734                    20270047.199
 113909052.871 8  88760315.358 7  21676157.547                    21676167.535
 112415225.780 8  87596457.55546  21391884.211                    21391890.203
 114324943.978 8  89084454.45545  21755313.320                    21755321.195
 11  8 24  1 42  0.0000000  0  8G10G29G12G26G05G25G02G30
 120669662.479 7  94028415.24744  22962644.438                    22962653.121
 121838074.702 7  94938823.602 7  23185019.766                    23185028.262
 110903587.877 8  86418451.949 7  21104240.828                    21104248.027
 127576836.835 7  99410605.04343  24277070.172                    24277081.113
 106527408.078 8  83008477.986 8  20271465.586                    20271472.813
 113888294.456 8  88744139.980 7  21672207.609                    21672217.633
 112449743.754 8  87623354.67046  21398452.727                    21398458.238
 114313647.584 8  89075652.09145  21753164.422                    21753172.188
 11  8 24  1 42 30.0000000  0  8G10G29G12G26G05G25G02G30
 120767329.226 6  94104519.17244  22981229.656                    22981238.617
 121754653.208 7  94873819.869 6  23169145.172                    23169154.203
 110948372.433 8  86453349.000 7  21112762.969                    21112770.770
 127482338.352 7  99336969.99543  24259087.781                    24259098.000
 106535458.982 8  83014751.439 8  20272997.875                    20273005.184
 113868109.906 8  88728411.781 7  21668366.555                    21668376.578
 112484355.302 8  87650324.70346  21405039.109                    21405044.719
 114302954.014 8  89067319.44845  21751129.234                    21751136.891
 11  8 24  1 43  0.0000000  0  8G10G29G12G26G05G25G02G30
 120865245.604 6  94180817.63144  22999862.453                    22999871.645
 121671246.537 7  94808827.712 6  23153273.594                    23153281.965
 110993665.006 8  86488641.898 7  21121382.242                    21121389.379
 127387794.336 7  99263299.47643  24241096.656                    24241106.402
 106544068.627 8  83021460.279 8  20274635.969                    20274642.969
 113848499.801 8  88713131.198 7  21664634.859                    21664644.730
 112519060.241 7  87677367.50946  21411643.375                    21411648.766
 114292863.239 8  89059456.51545  21749208.914                    21749216.949
 11  8 24  1 43 30.0000000  0  8G10G29G12G26G05G25G02G30
 120963409.126 6  94257308.64344  23018542.859                    23018551.262
 121587856.153 7  94743848.226 6  23137404.688                    23137413.211
 111039464.263 8  86524329.618 7  21130097.539                    21130104.734
 127293208.343 7  99189596.23744  24223097.563                    24223108.078
 106553236.514 8  83028604.100 8  20276380.695                    20276387.883
 113829465.026 8  88698298.925 7  21661012.813                    21661022.598
 112553858.545 8  87704483.07246  21418265.258                    21418270.949
 114283375.559 8  89052063.52445  21747403.414                    21747411.840
 11  8 24  1 44  0.0000000  0  8G10G29G12G26G05G25G02G30
 121061816.759 6  94333989.87944  23037268.898                    23037277.770
 121504483.538 7  94678882.611 6  23121539.086                    23121547.395
 111085768.255 8  86560410.639 7  21138908.711                    21138915.707
 127198583.748 7  99115862.91444  24205090.453                    24205101.832
 106562961.621 8  83036182.127 8  20278231.383                    20278238.328
 113811005.835 8  88683915.154 7  21657499.859                    21657509.691
 112588749.425 8  87731670.76546  21424904.609                    21424910.078
 114274490.628 8  89045140.22645  21745712.688                    21745720.949
 11  8 24  1 44 30.0000000  0  8G10G29G12G26G05G25G02G30
 121160465.541 6  94410859.01844  23056041.352                    23056049.996
 121421130.369 7  94613932.147 6  23105678.008                    23105685.832
 111132574.792 8  86596883.249 7  21147815.711                    21147822.879
 127103923.357 6  99042101.70443  24187077.375                    24187088.176
 106573242.828 8  83044193.469 8  20280187.523                    20280194.801
 113793122.700 8  88669980.271 7  21654096.641                    21654106.973
 112623732.689 8  87758930.45446  21431561.570                    21431567.449
 114266208.465 8  89038686.59645  21744136.711                    21744144.973
 11  8 24  1 45  0.0000000  0  8G10G29G12G26G05G25G02G30
 121259352.476 6  94487913.75944  23074859.375                    23074867.875
 121337797.961 7  94548997.855 6  23089819.938                    23089828.051
 111179881.949 8  86633745.953 7  21156817.773                    21156825.164
 127009230.432 6  98968315.10243  24169057.273                    24169067.945
 106584079.049 8  83052637.287 8  20282249.555                    20282256.832
 113775815.833 8  88656494.432 7  21650803.461                    21650813.355
 112658807.729 8  87786261.64946  21438236.070                    21438241.844
 114258528.684 8  89032702.35845  21742675.070                    21742683.188
 11  8 24  1 45 30.0000000  0  8G10G29G12G26G05G25G02G30
 121358475.103 7  94565152.13944  23093721.414                    23093730.715
 121254487.736 7  94484080.848 6  23073966.297                    23073974.680
 111227688.088 8  86670997.469 7  21165915.359                    21165922.527
 126914508.296 6  98894505.75343  24151032.563                    24151043.285
 106595469.470 8  83061512.945 8  20284417.258                    20284424.625
 113759085.683 8  88643457.953 7  21647619.727                    21647630.168
 112693974.405 8  87813664.25546  21444928.438                    21444933.949
 114251451.157 8  89027187.41345  21741328.352                    21741336.363
 11  8 24  1 46  0.0000000  0  8G10G29G12G26G05G25G02G30
 121457830.326 7  94642571.77744  23112628.531                    23112636.922
 121171201.745 7  94419182.731 6  23058117.211                    23058125.539
 111275990.807 8  86708635.935 7  21175106.961                    21175114.266
 126819759.833 6  98820675.90743  24133002.539                    24133013.402
 106607412.932 8  83070819.552 8  20286689.820                    20286697.129
 113742932.654 8  88630871.188 7  21644546.148                    21644555.863
 112729232.165 8  87841137.84746  21451637.625                    21451643.152
 114244975.683 8  89022141.58645  21740096.234                    21740104.246
 11  8 24  1 46 30.0000000  0  8G10G29G12G26G05G25G02G30
 121557415.103 7  94720170.28844  23131578.430                    23131587.098
 121087941.065 7  94354304.326 6  23042273.383                    23042281.984
 111324787.928 8  86746659.639 7  21184392.750                    21184400.156
 126724988.527 6  98746828.23943  24114967.875                    24114978.496
 106619908.084 8  83080556.046 8  20289067.672                    20289074.598
 113727356.679 8  88618734.079 7  21641581.945                    21641591.898
 112764580.573 8  87868682.07646  21458364.281                    21458369.895
 114239101.669 8  89017564.45045  21738978.320                    21738986.660
 11  8 24  1 47  0.0000000  0  8G10G29G12G26G05G25G02G30
 121657226.909 7  94797945.69344  23150571.820                    23150580.703
 121004707.299 7  94289446.893 6  23026434.859                    23026442.797
 111374077.602 8  86785067.158 7  21193772.359                    21193779.871
 126630197.612 7  98672965.30743  24096929.867                    24096940.207
 106632954.194 8  83090721.856 8  20291550.266                    20291557.445
 113712358.440 8  88607047.149 7  21638727.633                    21638737.523
 112800019.494 8  87896296.82446  21465107.930                    21465113.645
 114233829.246 8  89013456.07245  21737974.984                    21737983.395
 11  8 24  1 47 30.0000000  0  8G10G29G12G26G05G25G02G30
 121757262.627 7  94875895.57743  23169608.313                    23169617.035
 120921501.944 7  94224611.593 6  23010600.992                    23010609.586
 111423857.681 8  86823856.804 7  21203245.156                    21203252.695
 126535389.979 6  98599089.36343  24078888.523                    24078898.676
 106646549.472 8  83101315.584 8  20294137.273                    20294144.516
 113697937.745 8  88595810.262 7  21635983.523                    21635993.637
 112835547.821 8  87923981.23546  21471868.922                    21471874.438
 114229157.632 8  89009815.85645  21737086.008                    21737094.516
 11  8 24  1 48  0.0000000  0  8G10G29G12G26G05G25G02G30
 121857519.459 7  94954017.74644  23188686.297                    23188695.445
 120838326.900 7  94159799.918 6  22994773.305                    22994781.281
 111474126.515 8  86863027.315 7  21212810.922                    21212818.535
 126440569.361 6  98525203.27043  24060844.375                    24060854.535
 106660693.543 8  83112336.948 8  20296828.930                    20296835.992
 113684095.225 8  88585023.880 7  21633349.469                    21633359.621
 112871166.029 8  87951735.69146  21478646.797                    21478652.305
 114225086.831 8  89006643.80345  21736311.711                    21736319.664
 11  8 24  1 48 30.0000000  0  8G10G29G12G26G05G25G02G30
 121957994.823 7  95032310.21544  23207806.352                    23207814.824
 120755183.783 7  94095013.121 6  22978951.523                    22978959.582
 111524882.122 8  86902577.129 7  21222469.398                    21222476.367
 126345738.815 6  98451309.48243  24042798.148                    24042809.148
 106675385.175 8  83123784.981 8  20299624.594                    20299631.578
 113670831.079 8  88574688.195 7  21630825.297                    21630835.488
 112906873.567 8  87979559.75746  21485441.953                    21485447.383
 114221616.490 8  89003939.63245  21735650.898                    21735658.887
 11  8 24  1 49  0.0000000  0  8G10G29G12G26G05G25G02G30
 122058685.738 7  95110770.66344  23226967.703                    23226975.605
 120672074.329 7  94030252.542 6  22963136.594                    22963144.512
 111576121.609 8  86942503.988 7  21232219.914                    21232227.074
 126250901.560 6  98377410.40743  24024751.859                    24024762.168
 106690623.285 8  83135658.841 8  20302524.461                    20302531.504
 113658145.385 8  88564803.244 7  21628411.250                    21628421.949
 112942670.199 8  88007453.24946  21492253.531                    21492258.949
 114218746.125 7  89001702.98045  21735104.500                    21735113.520
 11  8 24  1 49 30.0000000  0  8G10G29G12G26G05G25G02G30
 122159589.076 7  95189396.61844  23246168.602                    23246177.305
 120588999.780 7  93965519.153 6  22947327.859                    22947336.016
 111627843.300 8  86982806.587 7  21242062.266                    21242069.484
 126156060.704 6  98303508.53843  24006703.617                    24006714.078
 106706406.038 8  83147957.100 8  20305527.695                    20305534.867
 113646038.120 8  88555369.022 7  21626107.508                    21626117.684
 112978555.356 8  88035415.71146  21499082.297                    21499087.477
 114216475.147 7  88999933.39645  21734672.555                    21734680.875
 11  8 24  1 50  0.0000000  0  8G10G29G12G26G05G25G02G30
 122260702.306 7  95268186.13344  23265410.094                    23265418.559
 120505961.929 7  93900814.363 6  22931526.680                    22931534.988
 111680044.869 8  87023483.128 7  21251995.883                    21252003.195
 126061219.715 6  98229606.57643  23988656.617                    23988665.703
 106722732.573 8  83160679.093 8  20308634.297                    20308641.816
 113634509.463 8  88546385.656 7  21623913.563                    21623923.723
 113014528.664 8  88063446.87246  21505927.859                    21505933.141
 114214803.080 8  88998630.48645  21734354.711                    21734362.445
 11  8 24  1 50 30.0000000  0  8G10G29G12G26G05G25G02G30
 122362022.433 7  95347136.85944  23284689.953                    23284699.102
 120422962.202 7  93836139.272 6  22915732.180                    22915740.363
 111732724.181 8  87064531.933 7  21262020.773                    21262027.914
 125966381.971 6  98155707.13343  23970609.570                    23970619.020
 106739601.656 8  83173823.843 8  20311844.469                    20311851.527
 113623559.562 8  88537853.269 7  21621829.688                    21621839.402
 113050589.936 8  88091546.56746  21512790.172                    21512795.441
 114213729.508 8  88997793.93445  21734150.617                    21734157.941
 11  8 24  1 51  0.0000000  0  8G10G29G12G26G05G25G02G30
 122463546.531 7  95426246.52744  23304010.008                    23304018.555
 120340002.203 7  93771495.131 7  22899944.922                    22899953.609
 111785879.053 8  87105951.294 7  21272135.789                    21272142.902
 125871550.496 7  98081812.59743  23952563.031                    23952573.055
 106757011.519 8  83187389.993 8  20315157.195                    20315164.641
 113613188.301 8  88529771.772 7  21619856.078                    21619865.945
 113086738.599 8  88119714.36346  21519668.961                    21519674.414
 114213253.810 8  88997423.25245  21734059.984                    21734067.918
 11  8 24  1 51 30.0000000  0  8G10G29G12G26G05G25G02G30
 122565272.101 7  95505513.18343  23323367.078                    23323376.301
 120257083.900 7  93706883.481 6  22884166.266                    22884174.602
 111839507.800 8  87147739.913 7  21282340.766                    21282347.984
 125776728.740 7  98007925.62343  23934519.508                    23934529.102
 106774961.288 8  83201376.837 8  20318573.258                    20318580.629
 113603395.955 8  88522141.383 7  21617992.938                    21618003.246
 113122974.560 8  88147950.17446  21526564.594                    21526570.160
 114213375.610 8  88997518.15845  21734083.195                    21734091.184
 11  8 24  1 52  0.0000000  0  8G10G29G12G26G05G25G02G30
 122667196.504 7  95584934.76744  23342762.867                    23342772.008
 120174208.923 7  93642305.599 6  22868396.258                    22868404.309
 111893607.432 8  87189895.460 7  21292635.383                    21292642.879
 125681920.135 7  97934048.90943  23916477.953                    23916487.777
 106793449.844 8  83215783.513 8  20322091.672                    20322098.469
 113594182.462 8  88514962.044 7  21616239.531                    21616249.730
 113159297.438 8  88176253.70746  21533476.211                    21533482.188
 114214094.256 8  88998078.15645  21734219.633                    21734227.762
 11  8 24  1 52 30.0000000  0  8G10G29G12G26G05G25G02G30
 122769316.726 7  95664508.92843  23362196.164                    23362204.941
 120091379.286 7  93577763.036 6  22852633.750                    22852642.039
 111948176.200 8  87232416.575 7  21303019.836                    21303026.902
 125587128.058 7  97860185.03943  23898439.406                    23898449.570
 106812476.077 8  83230609.168 8  20325712.094                    20325719.027
 113585548.110 8  88508233.980 7  21614596.852                    21614606.629
 113195707.515 8  88204625.19346  21540404.672                    21540410.891
 114215409.424 8  88999102.96045  21734470.008                    21734478.113
 11  8 24  1 53  0.0000000  0  8G10G29G12G26G05G25G02G30
 122871629.670 7  95744233.26943  23381665.688                    23381674.531
 120008596.046 7  93513256.622 6  22836880.656                    22836888.938
 112003211.540 8  87275301.236 7  21313492.742                    21313499.695
 125492355.699 6  97786336.54743  23880404.469                    23880414.543
 106832037.888 8  83245852.162 8  20329434.695                    20329441.352
 113577492.322 8  88501956.750 7  21613063.773                    21613073.930
 113232203.595 8  88233063.69446  21547350.039                    21547355.684
 114217319.959 8  89000591.68745  21734833.297                    21734841.508
 11  8 24  1 53 30.0000000  0  8G10G29G12G26G05G25G02G30
 122974132.872 7  95824105.87944  23401171.430                    23401180.426
 119925861.329 7  93448788.021 6  22821136.625                    22821144.816
 112058711.702 8  87318548.101 7  21324053.711                    21324061.313
 125397606.548 6  97712506.15043  23862374.320                    23862383.293
 106852134.556 8  83261511.921 8  20333258.672                    20333265.953
 113570015.544 8  88496130.704 7  21611640.984                    21611651.145
 113268786.276 8  88261569.68346  21554311.578                    21554317.223
 114219825.753 8  89002544.25945  21735310.641                    21735318.160
 11  8 24  1 54  0.0000000  0  8G10G29G12G26G05G25G02G30
 123076823.265 7  95904124.35044  23420712.484                    23420721.637
 119843176.514 7  93384358.305 6  22805402.117                    22805410.543
 112114673.952 8  87362155.027 7  21334703.273                    21334710.711
 125302883.801 6  97638696.31643  23844349.500                    23844359.340
 106872764.069 8  83277586.881 8  20337184.383                    20337191.082
 113563117.246 8  88490755.413 7  21610328.172                    21610338.074
 113305454.694 8  88290142.47746  21561289.109                    21561295.039
 114222925.600 8  89004959.73145  21735900.266                    21735908.082
 11  8 24  1 54 30.0000000  0  8G10G29G12G26G05G25G02G30
 123179698.216 7  95984286.61044  23440289.188                    23440298.082
 119760543.702 7  93319969.131 6  22789677.719                    22789685.891
 112171095.778 7  87406120.064 7  21345440.102                    21345447.383
 125208190.734 6  97564909.61643  23826329.578                    23826339.527
 106893925.361 8  83294076.212 8  20341211.313                    20341218.496
 113556797.459 8  88485830.908 7  21609125.438                    21609135.375
 113342208.533 8  88318781.82746  21568283.188                    21568288.449
 114226619.042 8  89007837.73645  21736603.070                    21736611.102
 11  8 24  1 55  0.0000000  0  8G10G29G12G26G05G25G02G30
 123282755.560 7  96064590.98544  23459899.930                    23459909.313
 119677964.582 7  93255621.784 6  22773963.648                    22773971.586
 112227975.491 7  87450441.905 7  21356263.586                    21356271.531
 125113530.959 6  97491148.85143  23808316.289                    23808325.965
 106915617.439 8  83310979.151 8  20345339.156                    20345346.051
 113551056.388 8  88481357.359 7  21608032.906                    21608043.199
 113379048.233 8  88347488.08645  21575293.742                    21575298.742
 114230905.618 7  89011177.94745  21737418.680                    21737426.773
 11  8 24  1 55 30.0000000  0  8G10G29G12G26G05G25G02G30
 123385991.972 7  96145034.93043  23479545.430                    23479554.180
 119595440.561 7  93191317.376 6  22758259.914                    22758267.898
 112285310.333 7  87495118.393 7  21367174.156                    21367181.813
 125018907.807 6  97417416.61643  23790310.523                    23790319.770
 106937838.332 8  83328294.145 8  20349567.242                    20349574.820
 113545893.393 8  88477334.250 7  21607050.547                    21607060.707
 113415973.140 8  88376260.74046  21582319.969                    21582325.707
 114235784.071 8  89014979.33845  21738347.063                    21738355.238
 11  8 24  1 56  0.0000000  0  8G10G29G12G26G05G25G02G30
 123489404.372 7  96225615.98543  23499224.250                    23499233.348
 119512973.838 7  93127057.621 6  22742566.773                    22742574.355
 112343098.259 7  87540147.927 7  21378171.266                    21378178.484
 124924324.570 6  97343715.50444  23772310.789                    23772321.410
 106960586.546 8  83346020.038 8  20353896.352                    20353903.703
 113541308.422 8  88473761.558 7  21606178.063                    21606188.262
 113452982.922 8  88405099.53045  21589362.875                    21589368.285
 114241253.800 8  89019241.47045  21739387.883                    21739395.555
 11  8 24  1 56 30.0000000  0  8G10G29G12G26G05G25G02G30
 123592990.486 7  96306332.42143  23518936.445                    23518944.480
 119430565.982 7  93062843.749 6  22726885.188                    22726892.535
 112401336.686 7  87585528.506 7  21389253.320                    21389260.789
 124829784.907 6  97270048.30743  23754321.227                    23754331.750
 106983860.880 8  83364155.895 8  20358325.250                    20358332.152
 113537301.357 8  88470639.176 7  21605415.625                    21605425.926
 113490077.599 8  88434004.46346  21596421.813                    21596427.457
 114247314.043 8  89023963.74645  21740540.836                    21740549.289
 11  8 24  1 57  0.0000000  0  8G10G29G12G26G05G25G02G30
 123696747.221 7  96387181.79843  23538680.898                    23538688.641
 119348218.477 7  92998676.922 6  22711214.891                    22711222.277
 112460023.218 8  87631258.254 7  21400421.000                    21400428.262
 124735291.809 6  97196417.42644  23736339.242                    23736349.938
 107007659.378 8  83382700.197 8  20362854.148                    20362861.246
 113533871.717 8  88467966.732 7  21604762.711                    21604773.156
 113527256.502 8  88462975.03246  21603496.852                    21603502.344
 114253963.782 8  89029145.36445  21741806.750                    21741814.691
 11  8 24  1 57 30.0000000  0  9G15G10G29G12G26G05G25G02G30
 129386077.57216 100820384.51516  24621356.367                    24621366.711
 123800672.197 7  96468162.29043  23558456.586                    23558465.008
 119265933.299 7  92934558.646 6  22695556.414                    22695564.266
 112519155.520 8  87677335.351 7  21411673.906                    21411681.316
 124640848.702 6  97122825.48843  23718367.406                    23718377.582
 107031980.649 8  83401651.848 8  20367482.242                    20367489.398
 113531019.278 8  88465744.053 7  21604219.992                    21604230.078
 113564519.664 8  88492011.25846  21610587.563                    21610593.277
 114261202.108 8  89034785.62645  21743183.828                    21743191.785
 11  8 24  1 58  0.0000000  0  9G15G10G29G12G26G05G25G02G30
 129293273.416 6 100748069.733 6  24603695.891                    24603706.781
 123904762.124 7  96549271.33743  23578264.398                    23578272.492
 119183712.434 7  92870490.491 6  22679911.227                    22679918.203
 112578730.843 8  87723757.656 7  21423010.547                    21423017.961
 124546459.177 6  97049275.29543  23700405.227                    23700415.484
 107056823.076 8  83421009.595 8  20372209.391                    20372216.660
 113528743.643 8  88463970.827 7  21603786.797                    21603796.957
 113601866.641 8  88521112.79446  21617694.656                    21617700.203
 114269028.105 8  89040883.81345  21744672.898                    21744681.387
 11  8 24  1 58 30.0000000  0  9G15G10G29G12G26G05G25G02G30
 129200337.497 6 100675652.270 6  24586011.102                    24586021.805
 124009014.891 7  96630507.23143  23598103.383                    23598110.848
 119101557.541 7  92806473.742 6  22664276.734                    22664284.813
 112638747.598 8  87770523.943 7  21434431.406                    21434438.410
 124452127.110 6  96975769.90044  23682454.805                    23682464.617
 107082185.686 8  83440772.670 8  20377036.117                    20377042.906
 113527044.970 8  88462647.188 7  21603463.867                    21603473.938
 113639298.003 8  88550280.08845  21624817.727                    21624823.156
 114277441.323 7  89047439.57045  21746274.359                    21746282.254
 11  8 24  1 59  0.0000000  0  9G15G10G29G12G26G05G25G02G30
 129107271.698 6 100603133.595 6  24568301.172                    24568311.520
 124113427.672 7  96711867.83444  23617972.102                    23617980.906
 119019470.445 7  92742509.821 7  22648655.984                    22648663.910
 112699202.740 8  87817631.825 7  21445935.133                    21445942.984
 124357855.577 6  96902311.65743  23664515.477                    23664524.598
 107108066.749 8  83460939.746 8  20381960.711                    20381967.973
 113525922.628 8  88461772.639 7  21603249.711                    21603260.379
 113676813.025 8  88579512.57746  21631956.156                    21631961.977
 114286440.500 8  89054451.91745  21747986.523                    21747994.551
 11  8 24  1 59 30.0000000  0  9G15G10G29G12G26G05G25G02G30
 129014078.582 6 100530515.717 6  24550567.117                    24550577.148
 124217997.722 7  96793350.96443  23637870.711                    23637879.543
 118937452.855 7  92678600.054 6  22633048.977                    22633056.871
 112760093.881 8  87865079.447 7  21457522.797                    21457530.266
 124263647.933 7  96828903.18643  23646588.125                    23646598.004
 107134464.523 8  83481509.439 8  20386984.352                    20386991.445
 113525376.201 8  88461346.849 7  21603146.039                    21603156.148
 113714411.476 8  88608810.07346  21639111.078                    21639116.617
 114296024.582 7  89061920.02545  21749810.469                    21749818.520
 11  8 24  2  0  0.0000000  0  9G15G10G29G12G26G05G25G02G30
 128920760.302 6 100457800.303 5  24532809.016                    24532819.547
 124322721.971 7  96874954.28343  23657799.688                    23657808.000
 118855506.769 7  92614746.018 6  22617454.414                    22617462.875
 112821418.542 8  87912864.881 7  21469192.305                    21469199.828
 124169507.629 6  96755547.20444  23628674.281                    23628683.926
 107161377.110 8  83502480.296 8  20392105.602                    20392112.484
 113525405.254 8  88461369.486 7  21603151.945                    21603162.031
 113752093.507 8  88638172.69845  21646281.961                    21646287.039
 114306192.594 8  89069843.14045  21751745.203                    21751753.344
 11  8 24  2  0 30.0000000  0  9G15G10G29G12G26G05G25G02G30
 128827319.416 6 100384989.348 5  24515027.484                    24515037.469
 124427597.672 6  96956675.56543  23677756.375                    23677765.555
 118773633.893 7  92550949.012 7  22601874.539                    22601882.922
 112883173.930 7  87960985.950 7  21480944.008                    21480951.465
 124075437.937 6  96682246.22544  23610773.242                    23610782.777
 107188802.686 8  83523850.887 8  20397324.430                    20397331.672
 113526009.115 8  88461840.017 7  21603266.789                    21603276.711
 113789858.408 8  88667599.89245  21653468.023                    21653473.410
 114316943.201 8  89078220.24845  21753790.953                    21753799.184
 11  8 24  2  1  0.0000000  0  9G15G10G29G12G26G05G25G02G30
 128733758.873 6 100312085.152 5  24497222.891                    24497233.777
 124532622.459 6  97038513.02743  23697742.039                    23697750.684
 118691835.954 7  92487210.394 7  22586308.836                    22586317.336
 112945357.849 7  88009440.935 7  21492777.516                    21492784.805
 123981442.534 7  96609003.15544  23592885.930                    23592895.805
 107216739.934 8  83545620.172 8  20402640.695                    20402647.738
 113527187.592 8  88462758.302 7  21603490.977                    21603501.047
 113827706.287 8  88697091.75046  21660670.250                    21660676.234
 114328275.597 8  89087050.67645  21755947.398                    21755955.480
 11  8 24  2  1 30.0000000  0  9G15G10G29G12G26G05G25G02G30
 128640080.916 6 100239089.498 5  24479397.141                    24479407.273
 124637793.570 6  97120464.49443  23717755.648                    23717764.730
 118610114.850 7  92423531.648 7  22570758.445                    22570766.359
 113007967.804 8  88058227.880 7  21504691.461                    21504698.824
 123887524.851 7  96535820.61644  23575014.719                    23575023.211
 107245187.243 8  83567786.918 8  20408053.867                    20408060.789
 113528940.068 8  88464123.855 7  21603824.508                    21603834.590
 113865637.102 8  88726648.22746  21667888.430                    21667894.320
 114340188.665 8  89096333.58145  21758214.695                    21758221.934
 11  8 24  2  2  0.0000000  0  9G15G10G29G12G26G05G25G02G30
 128546288.074 6 100166004.293 6  24461548.891                    24461559.004
 124743108.359 6  97202527.94643  23737796.867                    23737805.336
 118528472.547 7  92359914.292 7  22555221.664                    22555230.117
 113071001.246 8  88107344.834 7  21516686.461                    21516694.059
 123793688.559 7  96462701.51044  23557158.117                    23557167.297
 107274142.869 8  83590349.753 8  20413564.172                    20413571.266
 113531266.069 8  88465936.323 7  21604266.977                    21604277.270
 113903650.388 8  88756268.97046  21675122.180                    21675127.613
 114352681.226 8  89106068.03845  21760591.945                    21760599.523
 11  8 24  2  2 30.0000000  0  9G15G10G29G12G26G05G25G02G30
 128452383.100 6 100092831.736 6  24443678.680                    24443689.633
 124848564.121 6  97284701.25643  23757863.406                    23757872.738
 118446910.872 7  92296359.780 7  22539701.133                    22539709.641
 113134455.979 8  88156790.066 7  21528761.391                    21528769.508
 123699937.101 7  96389648.51244  23539317.930                    23539326.426
 107303605.219 8  83613307.429 8  20419170.500                    20419177.754
 113534165.202 8  88468195.382 7  21604818.953                    21604828.254
 113941746.436 8  88785954.21346  21682371.469                    21682376.980
 114365752.315 8  89116253.30245  21763079.117                    21763087.387
 11  8 24  2  3  0.0000000  0  9G15G10G29G12G26G05G25G02G30
 128358368.096 6 100019573.427 6  24425788.273                    24425799.398
 124954158.114 6  97366982.26343  23777958.008                    23777966.098
 118365431.718 7  92232869.570 7  22524196.188                    22524204.598
 113198328.776 8  88206561.057 7  21540916.133                    21540923.406
 123606273.678 7  96316664.12544  23521493.430                    23521502.730
 107333572.341 8  83636658.432 8  20424873.039                    20424879.898
 113537636.733 8  88470900.461 7  21605479.344                    21605489.488
 113979924.818 8  88815703.61345  21689636.461                    21689642.414
 114379400.593 8  89126888.32845  21765676.172                    21765684.102
 11  8 24  2  3 30.0000000  0  9G15G10G29G12G26G05G25G02G30
 128264245.761 6  99946231.487 6  24407877.773                    24407888.301
 125059887.656 6  97449368.87943  23798077.547                    23798086.652
 118284036.887 7  92169445.057 7  22508707.344                    22508715.734
 113262617.128 8  88256655.860 7  21553149.844                    21553156.965
 123512701.889 7  96243751.12544  23503687.281                    23503696.758
 107364042.431 8  83660401.369 8  20430671.070                    20430678.426
 113541679.874 8  88474050.955 7  21606248.578                    21606258.793
 114018185.400 8  88845517.06246  21696917.227                    21696922.703
 114393624.655 8  89137972.00845  21768383.242                    21768391.281
 11  8 24  2  4  0.0000000  0  9G15G10G29G12G26G05G25G02G30
 128170018.644 6  99872807.900 6  24389946.563                    24389957.547
 125165750.311 6  97531859.23743  23818222.922                    23818231.758
 118202728.226 7  92106087.698 7  22493234.523                    22493242.949
 113327318.858 8  88307072.772 7  21565462.055                    21565469.313
 123419225.399 7  96170912.38144  23485899.430                    23485909.691
 107395013.838 8  83684534.932 8  20436565.000                    20436572.137
 113546294.291 8  88477646.591 7  21607126.930                    21607136.867
 114056528.190 7  88875394.57646  21704213.828                    21704219.094
 114408423.607 8  89149503.65445  21771198.914                    21771206.793
 11  8 24  2  4 30.0000000  0  9G15G10G29G12G26G05G25G02G30
 128075689.508 6  99799304.821 6  24371995.906                    24372006.902
 125271743.245 7  97614451.08743  23838392.273                    23838401.488
 118121507.981 7  92042799.245 7  22477779.523                    22477786.668
 113392431.056 8  88357809.539 7  21577852.461                    21577859.672
 123325847.837 6  96098150.74544  23468129.844                    23468139.980
 107426485.084 8  83709057.988 8  20442553.844                    20442561.043
 113551479.402 8  88481686.928 7  21608113.539                    21608123.434
 114094953.059 7  88905336.04545  21711525.625                    21711531.383
 114423796.253 8  89161482.33945  21774124.719                    21774132.418
 11  8 24  2  5  0.0000000  0  9G15G10G29G12G26G05G25G02G30
 127981260.770 6  99725724.121 6  24354027.258                    24354037.809
 125377863.484 7  97697142.15443  23858586.180                    23858595.910
 118040377.758 7  91979580.947 7  22462340.742                    22462348.445
 113457950.956 7  88408863.991 7  21590321.023                    21590328.398
 123232572.365 7  96025468.61444  23450380.766                    23450390.238
 107458453.751 8  83733968.634 8  20448637.180                    20448644.250
 113557234.191 8  88486171.167 7  21609208.523                    21609218.508
 114133459.726 7  88935341.23945  21718853.227                    21718858.949
 114439740.910 8  89173906.74445  21777158.828                    21777166.566
 11  8 24  2  5 30.0000000  0  9G15G10G29G12G26G05G25G02G30
 127886735.080 6  99652067.879 6  24336039.641                    24336049.910
 125484108.758 7  97779930.65343  23878804.039                    23878813.266
 117959339.557 7  91916434.369 7  22446919.828                    22446927.504
 113523876.695 8  88460234.682 7  21602865.992                    21602873.414
 123139402.860 7  95952869.10444  23432650.867                    23432660.461
 107490918.610 8  83759265.931 8  20454815.148                    20454822.184
 113563558.225 8  88491098.980 7  21610411.977                    21610422.363
 114172048.251 7  88965410.22545  21726196.250                    21726201.680
 114456256.636 8  89186776.13945  21780301.563                    21780309.484
 11  8 24  2  6  0.0000000  0  9G15G10G29G12G26G05G25G02G30
 127792115.181 6  99578338.223 6  24318033.398                    24318044.055
 125590476.652 7  97862814.69144  23899044.766                    23899054.094
 117878395.543 7  91853361.174 7  22431515.992                    22431523.875
 113590205.334 7  88511919.313 7  21615487.547                    21615494.969
 123046342.846 7  95880354.89644  23414942.195                    23414951.609
 107523878.048 8  83784948.612 8  20461087.133                    20461094.367
 113570450.933 8  88496469.918 7  21611723.695                    21611733.738
 114210718.751 7  88995543.08845  21733555.000                    21733560.223
 114473342.179 8  89200089.54845  21783552.945                    21783560.996
 11  8 24  2  6 30.0000000  0  9G15G10G29G12G26G05G25G02G30
 127697403.185 6  99504536.811 6  24300010.313                    24300021.074
 125696964.171 6  97945791.93543  23919309.680                    23919318.676
 117797547.246 7  91790362.571 7  22416131.219                    22416138.832
 113656933.698 8  88563915.429 7  21628185.875                    21628193.305
 122953395.282 7  95807928.30144  23397254.656                    23397264.207
 107557329.257 8  83811014.493 8  20467452.742                    20467459.758
 113577911.030 8  88502282.970 7  21613143.266                    21613152.996
 114249470.827 7  89025739.51845  21740929.469                    21740934.965
 114490995.695 8  89213845.52045  21786912.273                    21786920.145
 11  8 24  2  7  0.0000000  0  9G15G10G29G12G26G05G25G02G30
 127602602.108 6  99430665.975 6  24281970.938                    24281980.398
 125803568.582 6  98028860.26143  23939595.367                    23939604.148
 117716796.820 7  91727440.231 7  22400764.992                    22400773.000
 113724059.353 7  88616221.107 7  21640959.328                    21640966.535
 122860564.460 7  95735592.68644  23379589.563                    23379598.672
 107591271.215 8  83837462.783 8  20473911.703                    20473918.512
 113585938.103 8  88508537.810 7  21614670.750                    21614680.484
 114288304.402 7  89055999.46745  21748319.031                    21748324.941
 114509216.079 8  89228043.22745  21790379.320                    21790387.137
 11  8 24  2  7 30.0000000  0  9G15G10G29G12G26G05G25G02G30
 127507714.506 6  99356727.709 6  24263913.594                    24263923.605
 125910287.647 7  98112017.93943  23959903.742                    23959912.473
 117636146.351 7  91664595.792 7  22385417.273                    22385425.617
 113791579.884 8  88668834.488 7  21653808.188                    21653815.520
 122767853.480 7  95663350.45544  23361946.836                    23361956.457
 107625701.710 8  83864291.743 8  20480463.727                    20480470.340
 113594531.273 8  88515233.784 7  21616305.828                    21616316.160
 114327219.563 8  89086322.97445  21755724.227                    21755730.574
 114528001.966 8  89242681.57445  21793954.055                    21793962.156
 11  8 24  2  8  0.0000000  0  9G15G10G29G12G26G05G25G02G30
 127412743.148 6  99282724.191 5  24245840.938                    24245851.004
 126017118.707 6  98195262.90943  23980232.969                    23980241.547
 117555597.707 7  91601830.695 7  22370089.320                    22370097.363
 113859492.519 7  88721753.418 7  21666731.133                    21666738.988
 122675266.201 7  95591204.59544  23344328.625                    23344337.355
 107660619.200 8  83891500.189 8  20487108.242                    20487115.020
 113603689.931 8  88522370.390 7  21618048.531                    21618059.082
 114366216.321 8  89116710.05145  21763145.375                    21763151.172
 114547352.095 8  89257759.58545  21797636.633                    21797644.008
 11  8 24  2  8 30.0000000  0  9G15G10G29G12G26G05G25G02G30
 127317690.385 6  99208657.227 6  24227753.625                    24227762.512
 126124059.057 6  98278593.01743  24000582.570                    24000591.398
 117475152.593 7  91539146.271 7  22354781.344                    22354788.953
 113927794.530 7  88774975.744 7  21679728.961                    21679736.137
 122582805.856 7  95519157.66244  23326733.445                    23326743.270
 107696021.172 8  83919086.143 8  20493845.023                    20493852.098
 113613412.789 8  88529946.630 7  21619899.109                    21619908.922
 114405294.245 8  89147160.38345  21770581.719                    21770587.129
 114567264.543 8  89273275.76545  21801425.789                    21801434.141
 11  8 24  2  9  0.0000000  0  9G15G10G29G12G26G05G25G02G30
 127222558.921 7  99134528.945 6  24209650.961                    24209659.594
 126231105.986 6  98362006.19443  24020953.391                    24020962.180
 117394813.415 7  91476544.385 7  22339493.156                    22339500.664
 113996482.981 7  88828499.193 7  21692799.906                    21692807.324
 122490476.285 7  95447212.62144  23309163.453                    23309173.531
 107731905.981 8  83947048.343 8  20500673.531                    20500680.438
 113623699.174 8  88537961.979 7  21621856.602                    21621866.637
 114444453.597 7  89177674.17045  21778033.367                    21778038.656
 114587738.124 8  89289229.19945  21805321.563                    21805329.871
 11  8 24  2  9 30.0000000  0  9G15G10G29G12G26G05G25G02G30
 127127351.674 6  99060341.621 6  24191532.648                    24191543.219
 126338257.199 6  98445500.65443  24041343.547                    24041352.078
 117314581.911 7  91414026.396 7  22324225.289                    22324233.543
 114065555.199 7  88882321.688 7  21705943.695                    21705951.199
 122398281.020 6  95375372.23244  23291619.117                    23291628.898
 107768272.008 8  83975385.525 8  20507593.680                    20507600.617
 113634548.294 8  88546415.810 7  21623921.094                    21623931.039
 114483694.258 8  89208251.32045  21785500.680                    21785506.430
 114608771.358 8  89305618.71745  21809324.219                    21809332.203
 11  8 24  2 10  0.0000000  0  9G15G10G29G12G26G05G25G02G30
 127032071.128 6  98986097.178 6  24173401.352                    24173411.387
 126445510.136 6  98529074.29243  24061752.805                    24061762.051
 117234460.234 7  91351593.978 7  22308978.938                    22308986.938
 114135008.579 8  88936441.185 7  21719160.227                    21719167.930
 122306223.512 7  95303639.16644  23274101.164                    23274111.488
 107805117.138 8  84004096.028 8  20514605.063                    20514611.992
 113645959.058 8  88555307.302 7  21626092.258                    21626102.539
 114523016.296 7  89238891.87645  21792982.914                    21792988.758
 114630362.639 8  89322443.06845  21813433.031                    21813440.344
 11  8 24  2 10 30.0000000  0  9G15G10G29G12G26G05G25G02G30
 126936719.779 6  98911797.558 6  24155255.875                    24155266.324
 126552862.239 6  98612725.23543  24082181.508                    24082190.520
 117154450.203 7  91289248.572 7  22293754.000                    22293761.492
 114204840.366 7  88990855.550 7  21732448.961                    21732456.695
 122214307.500 7  95232016.37344  23256610.063                    23256619.766
 107842439.302 8  84033178.255 8  20521707.055                    20521714.211
 113657930.535 8  88564635.718 7  21628370.516                    21628380.113
 114562419.710 7  89269595.82845  21800481.047                    21800487.184
 114652510.386 8  89339701.03945  21817647.563                    21817655.266
 11  8 24  2 11  0.0000000  0  9G15G10G29G12G26G05G25G02G30
 126841300.362 7  98837444.898 6  24137098.617                    24137108.773
 126660310.858 6  98696451.34643  24102628.609                    24102637.047
 117074554.177 7  91226991.982 7  22278549.945                    22278557.551
 114275048.316 7  89045563.024 7  21745809.289                    21745816.168
 122122536.376 7  95160506.47844  23239146.875                    23239156.281
 107880236.518 8  84062630.641 8  20528899.625                    20528906.676
 113670461.710 8  88574400.247 7  21630754.969                    21630764.961
 114601904.265 7  89300363.00645  21807995.406                    21808000.941
 114675213.010 8  89357391.37845  21821967.242                    21821975.453
 11  8 24  2 11 30.0000000  0  9G15G10G29G12G26G05G25G02G30
 126745815.751 7  98763041.432 6  24118928.391                    24118938.438
 126767853.687 6  98780250.95143  24123092.742                    24123102.242
 116994773.791 7  91164825.499 7  22263368.313                    22263376.090
 114345629.025 7  89100560.969 7  21759240.109                    21759247.824
 122030914.056 7  95089112.51744  23221711.922                    23221721.051
 107918507.007 8  84092451.820 8  20536182.164                    20536189.078
 113683551.766 8  88584600.275 7  21633245.992                    21633256.047
 114641470.030 7  89331193.47345  21815524.492                    21815529.781
 114698469.047 8  89375512.94445  21826392.922                    21826400.973
 11  8 24  2 12  0.0000000  0  9G15G10G29G12G26G05G25G02G30
 126650268.561 6  98688589.192 6  24100746.789                    24100756.340
 126875487.748 6  98864121.62343  24143574.852                    24143584.363
 116915111.339 7  91102750.902 7  22248208.750                    22248216.605
 114416579.717 7  89155847.207 7  21772741.469                    21772749.207
 121939443.981 7  95017837.20044  23204305.742                    23204314.262
 107957248.597 8  84122640.094 7  20543554.992                    20543561.480
 113697199.521 8  88595234.890 7  21635843.047                    21635853.137
 114681117.216 7  89362087.38645  21823069.242                    21823074.477
 114722276.823 8  89394064.43745  21830923.578                    21830932.203
 11  8 24  2 12 30.0000000  0  9G15G10G29G12G26G05G25G02G30
 126554661.427 6  98614090.260 6  24082552.563                    24082563.105
 126983210.568 6  98948061.46443  24164074.344                    24164082.543
 116835568.514 7  91040769.525 7  22233072.477                    22233080.238
 114487897.703 7  89211419.656 7  21786313.242                    21786320.578
 121848129.787 7  94946683.36344  23186929.055                    23186938.246
 107996459.090 8  84153193.741 8  20551016.297                    20551022.641
 113711403.909 8  88606303.231 7  21638546.125                    21638556.406
 114720845.554 7  89393044.53745  21830629.047                    21830634.914
 114746634.558 8  89413044.46945  21835558.875                    21835567.117
 11  8 24  2 13  0.0000000  0  9G15G10G29G12G26G05G25G02G30
 126458997.393 6  98539547.022 6  24064347.992                    24064358.125
 127091020.118 6  99032068.86143  24184589.695                    24184598.309
 116756147.841 8  90978883.317 7  22217959.156                    22217966.496
 114559580.501 7  89267276.377 7  21799953.805                    21799961.332
 121756975.275 7  94875653.93644  23169582.867                    23169592.379
 108036137.313 8  84184111.851 8  20558566.313                    20558573.582
 113726164.058 8  88617804.628 7  21641354.750                    21641364.805
 114760655.348 8  89424065.16345  21838205.156                    21838210.625
 114771540.914 8  89432452.00745  21840298.109                    21840306.160
 11  8 24  2 13 30.0000000  0  9G15G10G29G12G26G05G25G02G30
 126363278.784 6  98464961.264 6  24046133.352                    24046143.641
 127198913.579 6  99116141.67843  24205121.250                    24205129.789
 116676851.136 7  90917093.710 7  22202869.336                    22202877.168
 114631625.063 7  89323414.996 7  21813663.625                    21813671.160
 121665983.491 7  94804751.33244  23152267.359                    23152276.879
 108076280.267 8  84215392.088 8  20566205.953                    20566212.645
 113741478.487 8  88629737.942 7  21644269.203                    21644279.387
 114800546.183 7  89455148.93445  21845795.703                    21845801.277
 114796993.718 7  89452285.34945  21845141.758                    21845149.949
 11  8 24  2 14  0.0000000  0  9G15G10G29G12G26G05G25G02G30
 126267508.378 6  98390335.109 6  24027908.609                    24027918.668
 127306888.663 6  99200278.06343  24225668.094                    24225677.000
 116597680.271 7  90855402.154 7  22187803.789                    22187811.449
 114704028.401 7  89379833.179 7  21827441.266                    21827448.934
 121575158.338 7  94733978.56144  23134983.633                    23134992.969
 108116886.207 8  84247033.100 7  20573932.828                    20573939.559
 113757346.179 8  88642102.374 7  21647288.594                    21647298.742
 114840518.256 7  89486296.01145  21853402.109                    21853407.348
 114822991.406 8  89472543.26745  21850088.852                    21850096.789
 11  8 24  2 14 30.0000000  0  9G15G10G29G12G26G05G25G02G30
 126171688.983 6  98315670.778 6  24009674.953                    24009685.086
 127414942.733 6  99284476.01843  24246230.484                    24246239.113
 116518637.515 8  90793810.410 7  22172762.297                    22172770.262
 114776787.868 7  89436528.850 7  21841286.781                    21841294.566
 121484503.490 7  94663338.47544  23117733.117                    23117741.520
 108157953.088 8  84279033.284 7  20581747.461                    20581754.301
 113773766.018 8  88654897.049 7  21650413.203                    21650423.305
 114880571.625 7  89517506.42745  21861023.789                    21861029.094
 114849532.245 7  89493224.41545  21855139.734                    21855147.625
 11  8 24  2 15  0.0000000  0  9G15G10G29G12G26G05G25G02G30
 126075823.274 7  98240970.333 5  23991432.516                    23991442.000
 127523073.104 6  99368733.41643  24266806.445                    24266815.328
 116439725.037 7  90732320.184 7  22157745.594                    22157753.410
 114849900.624 7  89493499.817 7  21855199.813                    21855207.238
 121394022.595 7  94592833.96544  23100514.844                    23100524.078
 108199478.760 8  84311390.968 8  20589649.258                    20589656.223
 113790736.810 8  88668121.039 7  21653642.711                    21653652.582
 114920706.199 7  89548780.10845  21868661.172                    21868666.582
 114876614.535 7  89514327.46345  21860293.102                    21860301.598
 11  8 24  2 15 30.0000000  0  9G15G10G29G12G26G05G25G02G30
 125979914.215 7  98166236.085 6  23973182.086                    23973190.383
 127631277.511 7  99453048.49743  24287397.070                    24287405.766
 116360944.818 7  90670933.006 7  22142754.055                    22142762.199
 114923363.999 7  89550743.993 7  21869179.555                    21869187.078
 121303719.448 7  94522467.95744  23083330.500                    23083340.145
 108241461.364 8  84344104.704 8  20597638.844                    20597645.262
 113808257.369 8  88681773.426 7  21656976.906                    21656986.688
 114960922.262 7  89580117.29345  21876314.023                    21876319.371
 114904236.432 7  89535851.00945  21865549.477                    21865557.742
 11  8 24  2 16  0.0000000  0  9G15G10G29G12G26G05G25G02G30
 125883964.787 7  98091470.391 6  23954923.695                    23954932.113
 127739553.510 7  99537419.37343  24308001.188                    24308010.457
 116282299.154 7  90609650.672 7  22127788.625                    22127796.191
 114997175.035 7  89608259.069 7  21883225.086                    21883232.555
 121213597.486 7  94452243.11944  23066181.063                    23066189.852
 108283898.923 8  84377172.943 7  20605714.203                    20605721.078
 113826326.589 8  88695853.345 7  21660415.195                    21660425.055
 115001219.892 8  89611518.03045  21883982.719                    21883988.082
 114932396.279 7  89557793.72745  21870907.977                    21870916.695
 11  8 24  2 16 30.0000000  0  9G15G10G29G12G26G05G25G02G30
 125787977.176 7  98016674.954 6  23936657.242                    23936666.391
 127847898.445 6  99621843.98543  24328619.539                    24328628.109
 116203789.875 7  90548474.618 7  22112848.406                    22112856.129
 115071330.542 7  89666042.573 7  21897336.633                    21897343.961
 121123660.276 7  94382162.25344  23049066.375                    23049075.328
 108326788.890 8  84410593.712 8  20613875.680                    20613882.676
 113844942.990 8  88710359.637 7  21663958.039                    21663967.906
 115041599.066 7  89642982.33445  21891666.445                    21891671.984
 114961092.038 8  89580154.04345  21876368.680                    21876376.508
 11  8 24  2 17  0.0000000  0  9G15G10G29G12G26G05G25G02G30
 125691954.009 7  97941851.817 6  23918384.148                    23918393.492
 127956309.913 6  99706320.39543  24349249.438                    24349258.438
 116125419.186 7  90487406.563 7  22097935.109                    22097943.027
 115145827.573 7  89724092.182 7  21911512.930                    21911520.293
 121033911.460 7  94312228.18744  23031987.836                    23031997.258
 108370129.011 8  84444365.242 8  20622123.102                    20622130.238
 113864105.217 8  88725291.249 7  21667604.516                    21667614.211
 115082059.557 8  89674509.98545  21899366.063                    21899371.297
 114990321.693 8  89602930.38845  21881931.000                    21881938.965
 11  8 24  2 17 30.0000000  0  9G15G10G29G12G26G05G25G02G30
 125595898.712 6  97867003.638 6  23900105.828                    23900114.852
 128064785.356 6  99790846.62043  24369891.609                    24369900.906
 116047189.180 7  90426448.135 7  22083048.430                    22083055.879
 115220663.701 7  89782406.020 7  21925754.047                    21925761.469
 120944354.766 7  94242443.81544  23014945.477                    23014954.684
 108413917.356 8  84478486.045 7  20630455.633                    20630462.090
 113883812.131 8  88740647.289 7  21671354.422                    21671364.688
 115122601.658 7  89706101.21945  21907081.055                    21907086.387
 115020083.654 8  89626121.50245  21887594.656                    21887603.125
 11  8 24  2 18  0.0000000  0  9G15G10G29G12G26G05G25G02G30
 125499813.925 6  97792132.505 6  23881820.773                    23881830.031
 128173322.917 6  99875421.34542  24390545.297                    24390554.082
 115969102.184 7  90365601.144 7  22068188.922                    22068196.590
 115295836.274 8  89840982.037 7  21940058.945                    21940066.559
 120854994.084 7  94172812.19744  22997941.289                    22997949.461
 108458152.284 8  84512954.834 8  20638873.305                    20638880.129
 113904062.623 8  88756426.901 7  21675208.125                    21675218.375
 115163225.607 8  89737756.24145  21914810.977                    21914816.488
 115050376.130 8  89649726.03245  21893358.930                    21893367.633
 11  8 24  2 18 30.0000000  0  9G15G10G29G12G26G05G25G02G30
 125403702.409 6  97717240.547 6  23863531.344                    23863541.047
 128281919.981 5  99960042.40242  24411210.188                    24411219.535
 115891160.240 7  90304867.193 7  22053357.258                    22053364.758
 115371342.315 8  89899817.897 7  21954427.320                    21954434.770
 120765832.908 7  94103336.02444  22980973.742                    22980982.641
 108502831.427 8  84547769.752 8  20647375.891                    20647382.219
 113924855.237 8  88772628.947 7  21679164.594                    21679174.727
 115203931.608 7  89769475.19945  21922557.406                    21922562.879
 115081197.112 8  89673742.37945  21899224.258                    21899232.770
 11  8 24  2 19  0.0000000  0  9G15G10G29G12G26G05G25G02G30
 125307567.116 6  97642330.069 6  23845237.484                    23845246.691
 128390574.171 5 100044707.92842  24431886.570                    24431895.129
 115813365.316 7  90244247.804 7  22038553.180                    22038560.988
 115447178.553 8  89958911.056 7  21968858.680                    21968865.734
 120676874.533 7  94034017.88344  22964045.484                    22964054.590
 108547952.171 8  84582928.786 7  20655961.773                    20655968.902
 113946188.329 8  88789252.145 7  21683224.070                    21683233.660
 115244719.254 7  89801257.76545  21930318.984                    21930324.691
 115112544.433 7  89698168.87045  21905189.328                    21905198.074
 11  8 24  2 19 30.0000000  0  9G15G10G29G12G26G05G25G02G30
 125211410.426 6  97567402.895 6  23826939.289                    23826949.152
 128499282.847 6 100129415.95242  24452573.000                    24452582.445
 115735719.880 7  90183744.910 7  22023777.406                    22023785.340
 115523342.166 8  90018259.308 7  21983352.117                    21983359.301
 120588123.030 7  93964860.92744  22947156.508                    22947165.730
 108593512.671 8  84618430.483 8  20664631.555                    20664638.484
 113968060.606 8  88806295.478 7  21687386.297                    21687396.203
 115285588.666 8  89833104.04145  21938096.102                    21938101.457
 115144416.198 8  89723004.01345  21911254.195                    21911262.461
 11  8 24  2 20  0.0000000  0  9G15G10G29G12G26G05G25G02G30
 125115235.522 7  97492461.502 6  23808638.320                    23808647.223
 128608043.729 6 100214164.66242  24473269.555                    24473278.836
 115658225.846 7  90123359.989 7  22009031.156                    22009038.977
 115599830.195 8  90077860.364 7  21997907.102                    21997914.477
 120499581.826 7  93895867.85644  22930307.594                    22930316.668
 108639510.564 8  84654273.001 8  20673384.797                    20673391.137
 113990470.664 8  88823757.876 7  21691651.055                    21691660.727
 115326540.163 8  89865014.29045  21945889.070                    21945894.313
 115176810.429 7  89748246.27445  21917418.883                    21917426.707
 11  8 24  2 20 30.0000000  0  9G15G10G29G12G26G05G25G02G30
 125019045.263 7  97417508.155 6  23790333.727                    23790343.047
 128716854.569 6 100298952.28042  24493976.211                    24493985.008
 115580885.387 8  90063094.748 7  21994313.523                    21994321.707
 115676639.841 8  90137712.023 7  22012523.398                    22012531.066
 120411254.875 7  93827041.73544  22913499.766                    22913508.160
 108685943.984 8  84690454.896 7  20682220.930                    20682227.270
 114013417.181 8  88841638.279 7  21696017.359                    21696027.137
 115367574.040 7  89896988.72345  21953697.422                    21953703.227
 115209725.266 7  89773894.19945  21923682.133                    21923690.305
 11  8 24  2 21  0.0000000  0  9G15G10G29G12G26G05G25G02G30
 124922842.428 7  97342544.982 6  23772026.859                    23772035.652
 128825712.678 6 100383776.80543  24514691.180                    24514700.617
 115503700.377 7  90002950.633 7  21979625.617                    21979633.594
 115753767.887 8  90197811.780 7  22027200.117                    22027208.078
 120323145.429 7  93758385.09244  22896733.086                    22896741.844
 108732810.150 8  84726973.998 7  20691138.930                    20691145.789
 114036898.355 8  88859935.297 7  21700485.953                    21700495.742
 115408690.120 7  89929027.22845  21961521.258                    21961526.820
 115243158.333 8  89799945.95245  21930044.242                    21930052.734
 11  8 24  2 21 30.0000000  0  9G15G10G29G12G26G05G25G02G30
 124826629.730 7  97267574.128 6  23753718.398                    23753726.969
 128934615.802 6 100468636.33742  24535414.430                    24535424.059
 115426673.322 8  89942929.611 7  21964968.172                    21964975.422
 115831211.792 8  90258157.665 7  22041937.555                    22041945.297
 120235257.371 7  93689900.95344  22880008.328                    22880017.461
 108780107.102 8  84763828.772 8  20700139.055                    20700146.203
 114060912.872 8  88878647.925 7  21705055.711                    21705065.902
 115449888.405 8  89961129.78545  21969361.328                    21969367.297
 115277107.700 8  89826400.02445  21936504.328                    21936512.473
 11  8 24  2 22  0.0000000  0  9G15G10G29G12G26G05G25G02G30
 124730410.106 7  97192597.860 6  23735407.766                    23735416.656
 129043561.630 6 100553529.18843  24556146.719                    24556155.512
 115349806.599 8  89883033.534 7  21950340.594                    21950348.531
 115908968.446 8  90318747.247 7  22056733.609                    22056741.680
 120147594.287 7  93621592.12544  22863326.578                    22863335.336
 108827832.748 8  84801017.593 8  20709221.211                    20709228.121
 114085459.296 8  88897775.007 7  21709726.859                    21709736.922
 115491169.482 7  89993296.85545  21977217.102                    21977222.086
 115311571.418 7  89853254.87245  21943062.531                    21943070.430
 11  8 24  2 22 30.0000000  0 10G15G10G29G12G26G05G25G02G30G21
 124634186.305 7  97117618.348 6  23717096.969                    23717105.328
 129152548.045 6 100638453.66543  24576886.602                    24576894.945
 115273102.003 8  89823263.787 7  21935744.477                    21935751.875
 115987034.820 8  90379578.180 7  22071589.383                    22071597.293
 120060159.811 7  93553461.44344  22846688.891                    22846697.254
 108875984.942 8  84838538.794 7  20718384.266                    20718390.945
 114110536.032 8  88917315.315 7  21714498.602                    21714508.176
 115532533.167 7  90025528.30145  21985088.133                    21985093.645
 115346547.422 8  89880508.91745  21949718.500                    21949726.332
 132357080.11816 103135456.45653  25186724.180                    25186732.387
 11  8 24  2 23  0.0000000  0  9G15G29G12G26G05G25G02G30G21
 124537962.603 6  97042638.892 6  23698785.828                    23698794.559
 115196563.267 8  89763623.283 7  21921179.391                    21921186.762
 116065409.616 8  90440649.425 7  22086504.070                    22086511.680
 119972959.242 7  93485513.01444  22830094.734                    22830103.332
 108924562.844 8  84876391.703 7  20727628.508                    20727635.285
 114136142.866 8  88937268.692 7  21719371.523                    21719381.215
 115573981.151 7  90057825.42945  21992975.297                    21992980.727
 115382034.834 8  89908161.45545  21956471.578                    21956479.801
 132301366.358 6 103092043.13342  25176122.008                    25176130.219
 11  8 24  2 23 30.0000000  0  9G15G29G12G26G05G25G02G30G21
 124441740.718 6  96967660.880 6  23680475.547                    23680484.324
 115120191.274 8  89704112.706 7  21906646.523                    21906653.922
 116144088.187 8  90501957.397 7  22101476.047                    22101483.438
 119885994.801 7  93417748.58244  22813546.211                    22813554.531
 108973562.669 8  84914573.393 7  20736952.828                    20736959.441
 114162276.917 8  88957632.887 7  21724344.367                    21724354.645
 115615512.110 8  90090187.21945  22000878.469                    22000884.203
 115418030.187 8  89936209.79145  21963321.047                    21963329.250
 132245659.586 6 103048635.34043  25165521.375                    25165529.668
 11  8 24  2 24  0.0000000  0  9G15G29G12G26G05G25G02G30G21
 124345523.811 6  96892686.731 6  23662166.063                    23662174.848
 115043988.440 8  89644733.942 7  21892145.273                    21892152.820
 116223067.993 8  90563500.087 7  22116505.508                    22116513.059
 119799270.125 7  93350170.95844  22797042.414                    22797051.742
 109022982.443 8  84953082.319 7  20746357.039                    20746363.695
 114188936.766 8  88978406.803 7  21729417.859                    21729428.094
 115657126.294 8  90122613.85445  22008797.586                    22008803.500
 115454531.584 8  89964652.43945  21970267.234                    21970275.133
 132189958.808 6 103005232.17243  25154921.352                    25154930.043
 11  8 24  2 24 30.0000000  0  9G15G29G12G26G05G25G02G30G21
 124249314.115 6  96817718.225 6  23643857.883                    23643866.676
 114967956.760 8  89585488.548 7  21877677.070                    21877684.285
 116302345.861 8  90625275.043 7  22131591.414                    22131599.297
 119712788.872 7  93282783.01444  22780585.602                    22780594.027
 109072819.422 8  84991916.341 7  20755840.469                    20755847.633
 114216120.490 8  88999588.928 7  21734590.695                    21734600.789
 115698823.720 8  90155105.36045  22016732.008                    22016737.965
 115491536.475 7  89993487.43545  21977308.781                    21977317.180
 132134263.347 6 102961833.14242  25144323.602                    25144331.926
 11  8 24  2 25  0.0000000  0  9G15G29G12G26G05G25G02G30G21
 124153114.331 6  96742757.441 6  23625551.609                    23625560.820
 114892098.241 8  89526378.086 7  21863241.477                    21863249.586
 116381918.292 8  90687279.518 7  22146733.703                    22146740.797
 119626554.305 7  93215587.31744  22764175.914                    22764184.672
 109123070.834 8  85031073.284 7  20765403.055                    20765410.043
 114243825.997 8  89021177.632 7  21739862.797                    21739872.930
 115740604.149 7  90187661.54545  22024682.727                    22024688.180
 115529042.372 8  90022712.81345  21984446.164                    21984453.988
 132078572.325 6 102918437.54142  25133725.531                    25133734.543
 11  8 24  2 25 30.0000000  0  9G15G29G12G26G05G25G02G30G21
 124056927.826 7  96667807.005 6  23607247.961                    23607257.348
 114816415.115 8  89467404.290 7  21848839.141                    21848846.875
 116461782.679 7  90749511.493 7  22161931.492                    22161938.551
 119540570.453 7  93148586.98244  22747813.625                    22747822.082
 109173734.717 8  85070551.639 7  20775043.641                    20775051.234
 114272052.074 8  89043171.975 7  21745234.250                    21745244.266
 115782467.903 7  90220282.66945  22032649.070                    22032654.527
 115567047.418 8  90052327.12845  21991678.156                    21991686.195
 132022885.317 6 102875045.09042  25123128.789                    25123137.563
 11  8 24  2 26  0.0000000  0  9G15G29G12G26G05G25G02G30G21
 123960757.952 7  96592869.541 6  23588947.484                    23588956.027
 114740910.139 8  89408569.320 7  21834471.117                    21834478.535
 116541936.439 8  90811968.955 7  22177183.883                    22177191.273
 119454841.490 7  93081785.26244  22731499.680                    22731508.320
 109224810.073 8  85110350.623 7  20784763.359                    20784770.281
 114300797.437 8  89065570.960 7  21750704.102                    21750714.512
 115824415.634 7  90252969.22445  22040631.266                    22040636.957
 115605549.789 8  90082328.98145  21999004.828                    21999013.461
 131967202.436 6 102831655.82742  25112532.922                    25112541.113
 11  8 24  2 26 30.0000000  0  9G15G29G12G26G05G25G02G30G21
 123864606.907 7  96517946.745 6  23570650.508                    23570658.965
 114665585.028 8  89349874.492 7  21820137.047                    21820144.191
 116622375.817 7  90874648.969 7  22192490.844                    22192498.379
 119369370.214 7  93015184.32244  22715235.297                    22715243.648
 109276293.338 8  85150467.464 7  20794560.422                    20794567.566
 114330059.648 8  89088372.672 7  21756272.570                    21756282.742
 115866447.300 7  90285721.17345  22048630.219                    22048635.465
 115644546.520 7  90112716.04145  22006425.484                    22006433.895
 131911522.191 6 102788268.70442  25101936.703                    25101945.211
 11  8 24  2 27  0.0000000  0  9G15G29G12G26G05G25G02G30G21
 123768477.327 7  96443040.662 6  23552357.656                    23552366.195
 114590441.589 8  89291321.219 7  21805838.086                    21805845.301
 116703097.318 7  90937548.822 7  22207851.727                    22207859.176
 119284160.047 7  92948786.85644  22699020.125                    22699028.438
 109328181.767 8  85190900.006 7  20804434.234                    20804441.016
 114359836.744 8  89111575.595 7  21761938.969                    21761949.090
 115908562.726 7  90318538.39845  22056644.016                    22056649.344
 115684035.176 7  90143486.42345  22013940.180                    22013948.441
 131855844.148 6 102744883.23943  25091341.406                    25091350.074
 11  8 24  2 27 30.0000000  0  9G15G29G12G26G05G25G02G30G21
 123672372.588 7  96368153.946 6  23534069.250                    23534077.828
 114515482.491 8  89232911.593 7  21791573.109                    21791581.000
 116784099.128 7  91000667.099 7  22223266.352                    22223273.020
 119199215.264 7  92882596.17644  22682855.086                    22682864.684
 109380473.691 8  85231646.958 7  20814384.992                    20814392.395
 114390127.379 8  89135178.669 7  21767702.789                    21767713.203
 115950762.373 7  90351421.24345  22064674.414                    22064680.059
 115724013.782 8  90174638.57845  22021547.992                    22021555.789
 131800168.058 6 102701499.31643  25080746.742                    25080754.934
 11  8 24  2 28  0.0000000  0  9G15G29G12G26G05G25G02G30G21
 123576296.088 7  96293289.225 6  23515786.695                    23515795.203
 114440710.574 8  89174647.818 7  21777344.891                    21777351.945
 116865378.370 7  91064001.566 7  22238732.906                    22238740.457
 119114540.020 7  92816615.52245  22666742.828                    22666751.293
 109433167.353 8  85272706.948 7  20824412.383                    20824419.438
 114420930.258 8  89159180.910 7  21773564.195                    21773575.063
 115993046.701 7  90384370.07945  22072720.867                    22072726.500
 115764480.530 8  90206171.09745  22029248.367                    22029256.531
 131744493.486 6 102658116.61443  25070151.828                    25070160.691
 11  8 24  2 28 30.0000000  0  9G15G29G12G26G05G25G02G30G21
 123480250.160 7  96218448.323 6  23497510.117                    23497518.402
 114366127.472 8  89116531.161 7  21763152.336                    21763159.664
 116946931.281 7  91127549.264 7  22254251.898                    22254259.219
 119030137.379 7  92750847.30644  22650680.992                    22650690.063
 109486259.436 8  85314077.416 7  20834515.773                    20834522.586
 114452243.042 8  89183580.488 7  21779523.156                    21779533.848
 116035415.608 7  90417384.83845  22080783.484                    22080788.992
 115805432.608 7  90238081.80945  22037041.297                    22037049.730
 131688819.356 6 102614734.17643  25059557.445                    25059566.266
 11  8 24  2 29  0.0000000  0  9G15G29G12G26G05G25G02G30G21
 123384238.351 7  96143634.014 6  23479238.984                    23479247.910
 114291735.902 8  89058563.745 7  21748996.086                    21749003.020
 117028755.288 7  91191308.211 7  22269822.359                    22269830.309
 118946011.488 7  92685294.72945  22634672.172                    22634681.465
 109539748.432 8  85355757.148 7  20844694.328                    20844701.043
 114484064.259 8  89208376.227 7  21785578.625                    21785588.828
 116077869.519 7  90450465.82645  22088862.344                    22088867.328
 115846867.990 7  90270369.10345  22044926.070                    22044934.457
 131633145.307 6 102571351.87243  25048962.617                    25048971.922
 11  8 24  2 29 30.0000000  0  9G15G29G12G26G05G25G02G30G21
 123288262.945 7  96068848.054 6  23460975.461                    23460984.000
 114217537.804 8  89000747.091 7  21734876.117                    21734884.148
 117110847.175 7  91255275.897 7  22285444.242                    22285451.680
 118862165.371 7  92619960.15545  22618716.883                    22618725.488
 109593631.307 8  85397743.807 7  20854947.875                    20854954.766
 114516391.609 8  89233566.358 7  21791730.195                    21791740.695
 116120408.428 7  90483613.03745  22096957.094                    22096962.641
 115888783.898 8  90303030.83245  22052903.008                    22052911.105
 131577470.691 6 102527969.10142  25038368.594                    25038377.602
 11  8 24  2 30  0.0000000  0  9G15G29G12G26G05G25G02G30G21
 123192327.491 7  95994093.233 6  23442719.219                    23442727.805
 114143535.969 8  88943083.366 7  21720794.141                    21720801.773
 117193204.224 7  91319450.186 7  22301116.195                    22301123.691
 118778603.314 7  92554846.93745  22602815.547                    22602824.203
 109647906.609 8  85440036.239 7  20865275.914                    20865282.730
 114549223.844 8  89259149.903 7  21797978.117                    21797988.184
 116163033.164 8  90516827.12645  22105068.508                    22105073.609
 115931178.490 7  90336065.57545  22060970.234                    22060978.434
 131521795.046 6 102484585.53742  25027773.859                    25027782.500
 11  8 24  2 30 30.0000000  0  9G15G29G12G26G05G25G02G30G21
 123096434.639 7  95919371.605 6  23424470.766                    23424480.031
 114069732.233 8  88885574.003 7  21706749.813                    21706757.621
 117275823.338 7  91383828.692 7  22316838.336                    22316845.832
 118695328.622 7  92489957.63045  22586968.586                    22586977.391
 109702571.515 8  85482632.266 7  20875678.484                    20875685.313
 114582558.647 8  89285125.072 7  21804321.258                    21804332.020
 116205743.504 8  90550107.92545  22113195.875                    22113200.938
 115974049.068 8  90369471.20345  22069128.320                    22069136.297
 131466117.813 6 102441200.74242  25017178.555                    25017186.902
 11  8 24  2 31  0.0000000  0  9G15G29G12G26G05G25G02G30G21
 123000587.714 7  95844685.767 6  23406231.883                    23406240.461
 113996128.974 8  88828220.851 7  21692743.750                    21692751.133
 117358701.290 7  91448408.883 7  22332609.109                    22332617.211
 118612345.183 7  92425295.27244  22571178.031                    22571186.586
 109757623.517 8  85525529.928 8  20886154.531                    20886161.500
 114616394.334 8  89311490.525 7  21810759.977                    21810770.355
 116248539.681 7  90583455.61445  22121339.758                    22121344.602
 116017393.296 7  90403245.90945  22077376.531                    22077384.238
 131410438.198 6 102397814.06343  25006583.156                    25006591.746
 11  8 24  2 31 30.0000000  0  9G15G29G12G26G05G25G02G30G21
 122904789.007 7  95770037.496 6  23388002.219                    23388010.797
 113922728.367 8  88771025.617 7  21678776.031                    21678783.543
 117441834.722 7  91513188.157 7  22348429.250                    22348437.063
 118529656.353 7  92360862.48145  22555442.625                    22555451.355
 109813059.958 8  85568727.151 7  20896703.414                    20896710.660
 114650728.566 8  89338244.458 7  21817293.680                    21817303.918
 116291421.800 8  90616870.28045  22129499.516                    22129505.500
 116061208.392 7  90437387.53345  22085713.961                    22085721.859
 131354755.636 6 102354425.15442  24995986.781                    24995995.648
 11  8 24  2 32  0.0000000  0  9G15G29G12G26G05G25G02G30G21
 122809042.019 7  95695429.522 6  23369782.563                    23369790.938
 113849532.767 8  88713990.114 7  21664847.594                    21664854.973
 117525220.963 7  91578164.426 7  22364297.125                    22364304.891
 118447265.906 7  92296662.18945  22539763.898                    22539772.996
 109868878.759 8  85612222.322 7  20907325.508                    20907332.398
 114685559.635 8  89365385.537 7  21823922.047                    21823931.977
 116334390.226 7  90650352.19445  22137676.781                    22137682.035
 116105492.190 7  90471894.36445  22094140.859                    22094149.176
 131299069.492 6 102311033.40943  24985390.148                    24985398.590
 11  8 24  2 32 30.0000000  0  9G15G29G12G26G05G25G02G30G21
 122713349.398 7  95620863.924 6  23351572.383                    23351580.957
 113776544.247 8  88657115.972 7  21650958.195                    21650965.352
 117608856.759 8  91643335.146 7  22380212.641                    22380220.270
 118365177.476 7  92232697.22944  22524142.828                    22524151.488
 109925077.507 8  85656013.558 7  20918019.898                    20918026.461
 114720885.538 8  89392912.215 7  21830644.125                    21830654.348
 116377445.224 8  90683901.55945  22145869.328                    22145874.684
 116150242.014 7  90506764.34445  22102656.469                    22102664.719
 131243379.257 6 102267638.44743  24974792.203                    24974801.469
 11  8 24  2 33  0.0000000  0  9G15G29G12G26G05G25G02G30G21
 122617714.386 7  95546343.205 6  23333373.164                    23333382.109
 113703765.508 8  88600405.292 7  21637108.641                    21637115.805
 117692739.123 7  91708698.005 7  22396174.859                    22396182.785
 118283394.668 7  92168970.43944  22508579.883                    22508588.668
 109981653.669 8  85700098.881 7  20928785.891                    20928792.793
 114756704.080 8  89420822.761 7  21837460.141                    21837469.961
 116420586.842 7  90717518.41145  22154078.727                    22154084.000
 116195455.396 7  90541995.53245  22111260.219                    22111268.961
 131187684.150 6 102224239.67843  24964194.938                    24964203.645
 11  8 24  2 33 30.0000000  0  9G15G29G12G26G05G25G02G30G21
 122522139.874 7  95471869.642 6  23315186.570                    23315195.324
 113631198.264 8  88543859.414 7  21623299.563                    21623306.871
 117776864.964 7  91774250.578 7  22412183.539                    22412191.035
 118201921.145 7  92105484.62645  22493076.320                    22493084.684
 110038604.930 8  85744476.485 7  20939623.352                    20939630.102
 114793013.355 8  89449115.694 7  21844369.727                    21844379.910
 116463815.284 7  90751202.91545  22162304.820                    22162310.703
 116241129.789 7  90577585.95545  22119951.914                    22119959.840
 131131983.804 6 102180836.82843  24953595.898                    24953604.152
 11  8 24  2 34  0.0000000  0  9G15G29G12G26G05G25G02G30G21
 122426629.124 7  95397445.745 6  23297011.359                    23297020.344
 113558845.560 8  88487480.715 7  21609531.336                    21609538.613
 117861231.519 7  91839990.718 7  22428237.422                    22428245.762
 118120760.875 7  92042242.91145  22477631.680                    22477640.746
 110095929.339 7  85789144.863 7  20950532.094                    20950538.625
 114829811.709 8  89477789.733 7  21851372.180                    21851381.988
 116507131.167 7  90784955.55645  22170547.844                    22170553.180
 116287263.049 7  90613533.93745  22128730.820                    22128738.953
 131076277.798 6 102137429.59043  24942994.555                    24943003.137
 11  8 24  2 34 30.0000000  0  9G15G29G12G26G05G25G02G30G21
 122331184.870 7  95323073.672 6  23278848.797                    23278857.836
 113486709.648 8  88431270.944 7  21595804.242                    21595811.633
 117945835.964 7  91905916.231 7  22444337.539                    22444345.285
 118039917.373 7  91979248.02645  22462247.570                    22462256.195
 110153624.203 8  85834101.896 7  20961510.992                    20961518.016
 114867096.926 8  89506843.146 7  21858467.719                    21858477.434
 116550534.819 7  90818776.58745  22178806.930                    22178812.793
 116333852.541 7  90649837.42645  22137596.242                    22137604.738
 131020565.444 6 102094017.39943  24932392.641                    24932401.113
 11  8 24  2 35  0.0000000  0  9G15G29G12G26G05G25G02G30G21
 122235810.500 7  95248756.051 6  23260699.805                    23260708.418
 113414792.918 8  88375231.966 7  21582118.523                    21582126.395
 118030675.088 7  91972024.613 7  22460481.898                    22460489.688
 117959394.345 7  91916502.85845  22446924.672                    22446933.438
 110211687.005 8  85879345.636 7  20972559.820                    20972566.820
 114904866.982 8  89536274.359 7  21865654.930                    21865664.855
 116594026.479 8  90852666.21345  22187083.672                    22187088.699
 116380895.733 7  90686494.43145  22146548.289                    22146557.266
 130964845.917 6 102050599.63943  24921789.297                    24921798.043
 11  8 24  2 35 30.0000000  0  9G15G29G12G26G05G25G02G30G21
 122140508.667 7  95174494.951 6  23242564.445                    23242572.660
 113343097.155 8  88319365.181 7  21568475.555                    21568482.965
 118115745.284 7  92038313.065 7  22476670.398                    22476677.840
 117879195.063 7  91854009.95645  22431663.492                    22431671.879
 110270115.137 8  85924874.043 7  20983678.180                    20983685.211
 114943119.451 8  89566081.474 7  21872933.891                    21872944.078
 116637606.022 8  90886624.31045  22195376.586                    22195381.629
 116428389.686 8  90723502.67745  22155586.227                    22155594.820
 130909118.900 6 102007176.00443  24911185.539                    24911193.172
 11  8 24  2 36  0.0000000  0  9G15G29G12G26G05G25G02G30G21
 122045282.250 7  95100292.614 6  23224443.227                    23224451.945
 113271624.493 8  88263672.237 7  21554874.508                    21554882.035
 118201043.339 7  92104779.050 6  22492902.078                    22492909.309
 117799323.180 7  91791772.18245  22416464.398                    22416472.328
 110328905.932 8  85970685.052 7  20994866.000                    20994872.461
 114981852.037 8  89596262.710 7  21880304.477                    21880314.590
 116681273.618 8  90920651.02645  22203685.750                    22203691.309
 116476331.655 8  90760860.05345  22164709.391                    22164717.523
 130853383.604 6 101963745.95343  24900578.508                    24900587.242
 11  8 24  2 36 30.0000000  0  9G15G29G12G26G05G25G02G30G21
 121950134.592 7  95026151.647 6  23206337.766                    23206345.859
 113200378.209 8  88208155.687 7  21541317.000                    21541324.625
 118286567.080 7  92171420.902 7  22509176.898                    22509183.703
 117719782.878 7  91729792.76645  22401328.281                    22401336.109
 110388058.184 8  86016777.712 7  21006121.898                    21006128.563
 115021063.403 8  89626817.022 7  21887766.352                    21887775.949
 116725030.314 7  90954747.15945  22212012.352                    22212017.953
 116524719.825 8  90798565.10745  22173917.250                    22173925.453
 130797640.085 6 101920309.47343  24889971.703                    24889979.645
 11  8 24  2 37  0.0000000  0  9G15G29G12G26G05G25G02G30G21
 121855068.637 7  94952074.338 6  23188246.875                    23188255.355
 113129359.978 8  88152816.834 7  21527802.047                    21527809.711
 118372312.692 7  92238235.630 7  22525493.391                    22525500.949
 117640577.102 7  91668074.03145  22386255.742                    22386264.129
 110447568.486 8  86063149.371 7  21017446.531                    21017453.582
 115060750.795 8  89657742.246 7  21895318.539                    21895328.820
 116768876.065 8  90988912.68745  22220356.039                    22220361.180
 116573550.974 7  90836615.34845  22183209.617                    22183217.914
 130741886.918 6 101876865.50643  24879361.586                    24879370.184
 11  8 24  2 37 30.0000000  0  9G15G29G12G26G05G25G02G30G21
 121760087.372 7  94878063.011 6  23170172.555                    23170180.855
 113058572.108 8  88097657.490 7  21514331.977                    21514339.738
 118458277.304 7  92305221.014 7  22541852.266                    22541859.363
 117561709.737 7  91606618.98045  22371248.523                    22371256.707
 110507434.387 8  86109798.123 7  21028838.914                    21028845.496
 115100912.092 8  89689036.763 7  21902961.250                    21902971.672
 116812811.026 8  91023147.70145  22228716.703                    22228722.215
 116622822.506 8  90875008.74145  22192585.914                    22192594.012
 130686123.907 6 101833413.79743  24868750.508                    24868758.602
 11  8 24  2 38  0.0000000  0  9G15G29G12G26G05G25G02G30G21
 121665193.599 7  94804119.878 6  23152114.555                    23152122.332
 112988017.214 8  88042679.674 7  21500905.922                    21500912.711
 118544458.337 7  92372375.046 7  22558252.063                    22558259.531
 117483184.476 7  91545430.51945  22356305.109                    22356313.832
 110567653.775 8  86156722.313 7  21040297.789                    21040305.137
 115141545.414 8  89720699.096 7  21910693.203                    21910703.668
 116856835.638 7  91057452.59045  22237094.531                    22237099.676
 116672532.080 8  90913743.46445  22202045.414                    22202053.168
 130630350.742 6 101789954.25243  24858137.063                    24858145.637
 11  8 24  2 38 30.0000000  0  9G15G29G12G26G05G25G02G30G21
 121570390.893 7  94730247.699 6  23134074.164                    23134082.414
 112917697.502 8  87987885.124 7  21487524.344                    21487531.656
 118630852.165 7  92439694.885 7  22574692.000                    22574699.512
 117405004.859 7  91484511.38645  22341428.164                    22341436.098
 110628223.994 8  86203919.871 7  21051824.086                    21051830.996
 115182648.211 8  89752727.238 7  21918514.828                    21918525.176
 116900949.969 7  91091827.39545  22245488.930                    22245494.695
 116722676.716 7  90952817.19645  22211587.289                    22211595.164
 130574566.611 6 101746486.14343  24847521.859                    24847530.285
 11  8 24  2 39  0.0000000  0  9G15G29G12G26G05G25G02G30G21
 121475682.288 7  94656448.837 6  23116051.664                    23116060.047
 112847615.684 8  87933275.947 7  21474188.539                    21474195.746
 118717456.470 7  92507178.730 7  22591172.273                    22591180.203
 117327174.828 7  91423864.64945  22326617.734                    22326625.922
 110689143.001 8  86251389.221 7  21063416.703                    21063423.977
 115224218.700 8  89785119.826 7  21926425.391                    21926435.430
 116945154.772 7  91126272.70345  22253900.922                    22253906.258
 116773254.072 7  90992228.11945  22221211.820                    22221219.781
 130518771.137 6 101703009.20742  24836903.945                    24836912.703
 11  8 24  2 39 30.0000000  0  9G15G29G12G26G05G25G02G30G21
 121381070.801 7  94582725.646 6  23098047.906                    23098056.383
 112777774.236 8  87878854.066 7  21460897.633                    21460905.105
 118804267.531 7  92574823.679 7  22607691.430                    22607699.359
 117249697.957 8  91363493.11845  22311873.719                    22311882.223
 110750408.362 8  86299128.448 7  21075075.000                    21075081.961
 115266254.653 8  89817875.099 7  21934424.352                    21934435.195
 116989450.321 8  91160788.72745  22262329.867                    22262335.359
 116824261.613 7  91031974.25545  22230918.391                    22230926.539
 130462963.830 6 101659523.02843  24826284.070                    24826292.648
 11  8 24  2 40  0.0000000  0  9G15G29G12G26G05G25G02G30G21
 121286559.333 7  94509080.397 6  23080062.625                    23080071.141
 112708175.085 8  87824620.992 7  21447653.484                    21447661.145
 118891282.328 7  92642627.389 7  22624250.219                    22624258.172
 117172577.550 7  91303399.33945  22297198.695                    22297206.660
 110812017.434 8  86347135.510 7  21086798.961                    21086806.074
 115308753.548 8  89850991.114 7  21942511.578                    21942522.156
 117033836.652 7  91195375.46545  22270776.508                    22270781.797
 116875696.331 7  91072053.25845  22240705.930                    22240714.113
 130407143.953 6 101616027.03643  24815662.453                    24815670.766
 11  8 24  2 40 30.0000000  0  9G15G29G12G26G05G25G02G30G21
 121192150.959 7  94435515.481 6  23062097.391                    23062106.047
 112638820.618 8  87770578.582 7  21434456.039                    21434463.230
 118978497.678 7  92710587.360 7  22640846.906                    22640854.789
 117095817.024 7  91243585.99145  22282591.445                    22282599.359
 110873967.440 8  86395408.234 7  21098587.578                    21098594.477
 115351712.984 8  89884465.985 7  21950686.453                    21950697.102
 117078314.218 8  91230033.28945  22279240.195                    22279245.684
 116927555.287 7  91112462.82645  22250574.695                    22250582.836
 130351310.765 6 101572520.70243  24805037.867                    24805045.516
 11  8 24  2 41  0.0000000  0  9G15G29G12G26G05G25G02G30G21
 121097848.554 7  94362033.123 6  23044152.523                    23044160.672
 112569713.435 8  87716728.856 7  21421305.141                    21421312.809
 119065910.747 7  92778701.417 7  22657480.945                    22657488.691
 117019420.150 8  91184056.00445  22268053.336                    22268061.496
 110936256.241 8  86443944.957 7  21110440.625                    21110448.090
 115395130.888 8  89918298.102 7  21958948.766                    21958959.602
 117122883.324 8  91264762.45145  22287721.484                    22287726.703
 116979836.019 7  91153201.04245  22260523.164                    22260531.824
 130295463.903 6 101529003.71543  24794410.023                    24794418.617
 11  8 24  2 41 30.0000000  0  9G15G29G12G26G05G25G02G30G21
 121003655.607 7  94288636.063 6  23026228.125                    23026236.531
 112500855.598 8  87663073.430 7  21408202.039                    21408209.301
 119153518.467 7  92846967.147 7  22674152.344                    22674159.930
 116943390.667 7  91124812.29045  22253585.656                    22253593.785
 110998881.516 8  86492743.856 7  21122358.031                    21122365.086
 115439004.992 8  89952485.690 7  21967297.656                    21967308.398
 117167544.463 8  91299563.33245  22296220.500                    22296225.520
 117032535.831 7  91194265.82745  22270551.984                    22270559.863
 130239602.780 6 101485475.63643  24783780.039                    24783788.203
 11  8 24  2 42  0.0000000  0  9G15G29G12G26G05G25G02G30G21
 120909575.108 7  94215326.601 6  23008325.000                    23008333.156
 112432249.171 8  87609613.901 7  21395146.758                    21395154.039
 119241317.532 7  92915381.981 7  22690859.852                    22690867.840
 116867732.069 8  91065857.58945  22239188.086                    22239195.836
 111061840.524 8  86541802.814 7  21134338.844                    21134345.863
 115483332.786 8  89987026.814 7  21975733.102                    21975743.797
 117212297.639 8  91334435.91145  22304736.555                    22304742.059
 117085651.746 7  91235654.85445  22280658.898                    22280667.555
 130183726.966 6 101441936.06743  24773146.906                    24773155.594
 11  8 24  2 42 30.0000000  0  9G15G29G12G26G05G25G02G30G21
 120815610.020 7  94142107.101 6  22990444.117                    22990452.395
 112363897.416 8  87556352.821 7  21382139.281                    21382147.336
 119329305.277 7  92983943.825 6  22707603.273                    22707611.223
 116792448.053 8  91007194.75745  22224861.898                    22224870.188
 111125131.205 8  86591120.224 7  21146382.648                    21146389.645
 115528112.261 8  90021919.896 7  21984254.578                    21984265.063
 117257143.606 8  91369380.80145  22313270.266                    22313275.988
 117139181.393 7  91277366.26945  22290845.492                    22290853.828
 130127836.034 6 101398384.73843  24762511.758                    24762519.898
 11  8 24  2 43  0.0000000  0  9G15G29G12G26G05G25G02G30G21
 120721763.329 7  94068979.855 6  22972585.602                    22972593.582
 112295801.958 8  87503291.453 7  21369181.563                    21369189.102
 119417477.969 7  93052649.788 6  22724382.172                    22724389.766
 116717541.893 8  90948826.36645  22210607.617                    22210615.695
 111188750.644 8  86640693.809 7  21158489.039                    21158495.855
 115573340.607 8  90057162.751 7  21992861.102                    21992871.961
 117302082.382 8  91404398.02145  22321822.375                    22321827.559
 117193121.524 7  91319397.53445  22301109.891                    22301117.848
 130071929.036 6 101354820.87143  24751872.477                    24751881.211
 11  8 24  2 43 30.0000000  0 10G15G18G29G12G26G05G25G02G30G21
 120628038.098 7  93995947.258 6  22954750.203                    22954758.242
 129715059.72716 101076716.60052  24683959.609                    24683966.672
 112227965.246 8  87450431.711 7  21356272.695                    21356280.125
 119505832.610 7  93121497.537 6  22741195.242                    22741203.066
 116643017.054 7  90890755.10245  22196426.320                    22196434.492
 111252696.198 8  86690521.503 7  21170657.484                    21170664.395
 115619015.455 8  90092753.531 7  22001553.219                    22001563.477
 117347114.243 7  91439487.76645  22330391.461                    22330396.520
 117247469.277 7  91361746.42845  22311452.008                    22311460.227
 130016005.502 6 101311244.13643  24741230.625                    24741239.770
 11  8 24  2 44  0.0000000  0 10G15G18G29G12G26G05G25G02G30G21
 120534437.591 7  93923011.844 6  22936938.773                    22936946.551
 129625664.394 6 101007058.06442  24666947.805                    24666955.965
 112160389.901 8  87397775.622 7  21343413.523                    21343420.344
 119594366.633 7  93190485.050 6  22758042.727                    22758050.703
 116568877.192 7  90832983.82145  22182318.094                    22182326.270
 111316965.660 8  86740601.600 7  21182887.242                    21182894.629
 115665134.668 8  90128690.571 7  22010329.234                    22010339.570
 117392239.766 8  91474650.50345  22338978.750                    22338983.871
 117302222.155 7  91404411.01045  22321871.539                    22321879.887
 129960064.979 7 101267654.13943  24730585.922                    24730594.406
 11  8 24  2 44 30.0000000  0 10G15G18G29G12G26G05G25G02G30G21
 120440964.635 7  93850175.820 6  22919151.063                    22919159.215
 129536434.244 6 100937528.19842  24649968.008                    24649976.965
 112093078.354 8  87345325.089 7  21330604.672                    21330611.875
 119683076.813 7  93259609.840 7  22774923.320                    22774931.754
 116495126.078 7  90775515.45245  22168283.430                    22168291.125
 111381556.607 8  86790932.207 7  21195178.469                    21195185.477
 115711695.797 8  90164971.965 7  22019189.344                    22019199.477
 117437459.186 7  91509886.40545  22347583.188                    22347589.039
 117357377.282 7  91447389.02245  22332367.008                    22332375.340
 129904107.336 7 101224050.82843  24719937.305                    24719945.570
 11  8 24  2 45  0.0000000  0 10G15G18G29G12G26G05G25G02G30G21
 120347622.265 7  93777441.569 6  22901388.680                    22901396.535
 129447370.526 6 100868128.00742  24633019.516                    24633028.559
 112026032.773 8  87293081.810 7  21317846.164                    21317853.586
 119771959.660 7  93328869.164 7  22791837.648                    22791845.914
 116421766.844 8  90718352.46545  22154323.789                    22154331.500
 111446466.436 8  86841511.288 7  21207530.891                    21207537.770
 115758696.224 8  90201595.654 7  22028133.664                    22028143.301
 117482772.824 7  91545195.72045  22356206.266                    22356211.758
 117412931.576 7  91490678.07345  22342938.438                    22342946.969
 129848131.614 6 101180433.43343  24709285.227                    24709293.949
 11  8 24  2 45 30.0000000  0 10G15G18G29G12G26G05G25G02G30G21
 120254413.915 7  93704811.746 6  22883651.469                    22883660.055
 129358474.035 6 100798858.12643  24616102.648                    24616111.715
 111959255.391 8  87241047.515 7  21305138.359                    21305146.309
 119861012.368 7  93398260.844 7  22808783.727                    22808792.090
 116348803.026 7  90661497.57845  22140439.344                    22140447.195
 111511692.757 8  86892336.991 7  21219942.922                    21219949.633
 115806133.597 8  90238559.831 7  22037160.719                    22037170.598
 117528181.288 7  91580578.94145  22364847.242                    22364852.723
 117468882.387 7  91534276.09645  22353585.492                    22353593.207
 129792137.447 6 101136801.66843  24698630.422                    24698638.652
 11  8 24  2 46  0.0000000  0 10G15G18G29G12G26G05G25G02G30G21
 120161342.595 7  93632288.702 7  22865940.828                    22865949.430
 129269746.481 6 100729719.90942  24599218.500                    24599227.316
 111892748.847 8  87189224.275 7  21292482.563                    21292490.277
 119950231.744 7  93467782.404 6  22825761.828                    22825769.617
 116276238.116 7  90604953.53245  22126630.484                    22126638.477
 111577233.017 8  86943407.320 7  21232414.453                    21232421.609
 115854005.501 8  90275862.597 7  22046270.391                    22046280.133
 117573684.749 7  91616036.19445  22373506.047                    22373511.813
 117525226.777 7  91578180.82645  22364307.773                    22364315.742
 129736124.067 6 101093154.94143  24687970.516                    24687979.434
 11  8 24  2 46 30.0000000  0 10G15G18G29G12G26G05G25G02G30G21
 120068411.522 7  93559874.935 6  22848256.352                    22848265.375
 129181189.552 6 100660714.58742  24582366.430                    24582375.078
 111826515.850 8  87137614.177 7  21279879.141                    21279886.813
 120039615.179 7  93537431.800 7  22842771.250                    22842779.031
 116204076.167 7  90548723.47945  22112898.188                    22112906.305
 111643085.142 8  86994720.668 7  21244945.672                    21244952.996
 115902309.720 8  90313502.246 7  22055462.070                    22055472.270
 117619283.750 7  91651567.87845  22382183.453                    22382189.016
 117581962.215 7  91622390.24345  22375103.969                    22375112.344
 129680091.363 6 101049493.14343  24677308.180                    24677316.473
 11  8 24  2 47  0.0000000  0 10G15G18G29G12G26G05G25G02G30G21
 119975623.639 7  93487572.747 6  22830599.445                    22830607.945
 129092803.981 6 100591842.87343  24565547.313                    24565556.152
 111760558.353 8  87086218.759 7  21267328.000                    21267335.340
 120129159.153 7  93607206.277 6  22859810.727                    22859818.496
 116132320.167 7  90492809.74245  22099243.531                    22099251.316
 111709246.428 8  87046274.922 7  21257536.016                    21257542.938
 115951043.408 8  90351476.534 7  22064735.781                    22064745.758
 117664978.417 7  91687174.10445  22390878.703                    22390883.879
 117639085.432 7  91666901.83145  22385974.328                    22385982.305
 129624038.679 6 101005815.79743  24666642.320                    24666650.027
 11  8 24  2 47 30.0000000  0 10G15G18G29G12G26G05G25G02G30G21
 119882982.258 7  93415384.722 7  22812970.477                    22812978.379
 129004591.555 6 100523106.03742  24548760.938                    24548769.922
 111694878.921 8  87035040.021 7  21254829.539                    21254837.008
 120218860.734 7  93677103.565 6  22876880.602                    22876888.078
 116060974.039 7  90437215.40145  22085666.563                    22085675.023
 111775714.397 8  87098068.147 7  21270184.492                    21270191.461
 116000204.366 8  90389783.759 7  22074090.758                    22074100.777
 117710769.413 7  91722855.39445  22399592.648                    22399598.277
 117696593.806 7  91711713.54945  22396917.680                    22396926.031
 129567965.310 6 100962122.33343  24655971.680                    24655979.344
 11  8 24  2 48  0.0000000  0 10G15G18G29G12G26G05G25G02G30G21
 119790490.217 7  93343313.060 7  22795369.445                    22795377.539
 128916552.870 6 100454504.60743  24532007.914                    24532016.715
 111629479.700 8  86984079.620 7  21242384.234                    21242391.504
 120308716.612 7  93747121.111 6  22893979.297                    22893987.250
 115990040.570 7  90381942.60545  22072168.578                    22072176.918
 111842486.017 8  87150097.985 7  21282890.984                    21282897.539
 116049789.737 8  90428421.681 7  22083526.891                    22083536.820
 117756656.934 7  91758611.89645  22408324.852                    22408330.574
 117754484.134 7  91756822.87745  22407933.758                    22407941.934
 129511870.949 6 100918412.50943  24645297.055                    24645305.070
 11  8 24  2 48 30.0000000  0 10G15G18G29G12G26G05G25G02G30G21
 119698150.673 7  93271360.235 6  22777798.250                    22777806.336
 128828689.749 6 100386039.95043  24515288.273                    24515296.320
 111564363.450 8  86933339.721 7  21229993.305                    21230000.316
 120398724.216 7  93817256.874 6  22911107.469                    22911114.957
 115919523.937 7  90326994.59845  22058749.703                    22058758.063
 111909559.978 8  87202363.407 7  21295654.484                    21295661.379
 116099797.371 8  90467388.648 7  22093042.523                    22093053.109
 117802641.616 7  91794444.10845  22417075.352                    22417080.711
 117812753.848 7  91802227.83345  22419022.156                    22419030.672
 129455755.264 6 100874686.11243  24634618.141                    24634625.895
 11  8 24  2 49  0.0000000  0 10G15G18G29G12G26G05G25G02G30G21
 119605967.081 7  93199528.931 6  22760256.070                    22760264.227
 128741003.336 6 100317712.96243  24498601.531                    24498610.090
 111499532.255 8  86882821.941 7  21217656.500                    21217663.418
 120488880.285 7  93887508.318 7  22928263.719                    22928271.531
 115849427.496 7  90272374.03245  22045410.727                    22045418.859
 111976933.170 8  87254862.001 7  21308475.039                    21308481.828
 116150224.640 8  90506682.601 7  22102638.695                    22102649.109
 117848723.731 7  91830352.23445  22425844.625                    22425849.648
 117871399.958 7  91847926.08145  22430182.617                    22430190.395
 129399617.570 6 100830942.53043  24623935.711                    24623943.484
 11  8 24  2 49 30.0000000  0 10G15G18G29G12G26G05G25G02G30G21
 119513941.875 7  93127821.040 6  22742743.773                    22742752.773
 128653494.723 6 100249524.56943  24481949.195                    24481958.148
 111434988.521 8  86832528.152 7  21205373.523                    21205381.027
 120579181.424 7  93957872.805 6  22945447.094                    22945455.059
 115779754.056 7  90218083.06445  22032152.508                    22032160.215
 112044603.004 8  87307591.740 7  21321352.047                    21321358.957
 116201068.690 8  90546301.321 7  22112314.070                    22112324.805
 117894903.629 7  91866336.54345  22434631.938                    22434637.766
 117930419.280 7  91893915.13745  22441413.383                    22441421.680
 129343457.217 6 100787181.31443  24613248.883                    24613256.699
 11  8 24  2 50  0.0000000  0 10G15G18G29G12G26G05G25G02G30G21
 119422078.988 7  93056239.615 6  22725263.734                    22725271.148
 128566165.337 6 100181475.85543  24465330.805                    24465339.875
 111370735.042 8  86782460.540 7  21193146.852                    21193154.063
 120669625.237 7  94028348.475 6  22962658.227                    22962665.855
 115710507.711 7  90164124.90345  22018974.789                    22018982.965
 112112567.301 8  87360550.927 7  21334285.289                    21334292.414
 116252327.389 8  90586243.130 7  22122068.508                    22122078.625
 117941181.794 7  91902397.42445  22443438.852                    22443444.078
 117989809.233 7  91940192.99745  22452714.766                    22452723.102
 129287274.178 6 100743402.43543  24602557.445                    24602565.340
 11  8 24  2 50 30.0000000  0 10G15G18G29G12G26G05G25G02G30G21
 119330381.189 7  92984786.840 6  22707813.664                    22707821.703
 128479016.230 6 100113567.59643  24448746.016                    24448755.926
 111306773.823 8  86732620.658 7  21180975.523                    21180982.797
 120760207.852 7  94098932.294 6  22979895.617                    22979903.332
 115641691.563 7  90110501.95745  22005879.758                    22005887.949
 112180823.134 8  87413737.298 7  21347273.906                    21347281.320
 116303997.931 8  90626505.858 7  22131900.758                    22131911.344
 117987558.521 7  91938535.10245  22452264.047                    22452269.387
 118049566.627 7  91986757.18245  22464086.633                    22464094.836
 129231067.640 6 100699605.21243  24591861.680                    24591869.285
 11  8 24  2 51  0.0000000  0 10G15G18G29G12G26G05G25G02G30G21
 119238851.765 7  92913465.272 6  22690396.180                    22690404.395
 128392048.771 6 100045800.88743  24432197.453                    24432205.855
 111243107.356 8  86683010.453 7  21168860.219                    21168867.195
 120850926.756 7  94169622.316 6  22997158.500                    22997166.234
 115573309.210 7  90057217.04545  21992867.383                    21992874.801
 112249368.333 8  87467149.136 7  21360317.828                    21360325.184
 116356077.785 8  90667087.546 7  22141811.102                    22141821.730
 118034034.264 8  91974749.94945  22461108.180                    22461113.582
 118109688.676 7  92033605.50745  22475526.789                    22475535.965
 129174837.194 6 100655789.35943  24581160.313                    24581168.645
 11  8 24  2 51 30.0000000  0 10G15G18G29G12G26G05G25G02G30G21
 119147493.527 7  92842277.096 6  22673011.031                    22673018.992
 128305264.258 6  99978176.71043  24415682.836                    24415691.578
 111179738.088 7  86633631.833 7  21156801.203                    21156808.555
 120941778.717 7  94240416.016 6  23014447.227                    23014454.922
 115505364.054 7  90004272.80145  21979937.813                    21979945.563
 112318200.596 8  87520784.661 7  21373416.555                    21373423.348
 116408564.344 8  90707986.125 7  22151799.641                    22151809.918
 118080609.711 7  92011042.47245  22469971.164                    22469976.855
 118170172.310 7  92080735.57945  22487036.891                    22487045.367
 129118582.285 6 100611954.41643  24570455.508                    24570463.309
 11  8 24  2 52  0.0000000  0 10G15G18G29G12G26G05G25G02G30G21
 119056309.515 7  92771224.684 7  22655659.313                    22655667.535
 128218663.688 6  99910695.89843  24399202.609                    24399211.559
 111116668.348 8  86584486.616 7  21144799.734                    21144806.770
 121032760.667 7  94311311.016 6  23031760.875                    23031768.395
 115437859.481 7  89951671.85645  21967091.914                    21967100.016
 112387317.324 8  87574641.841 7  21386568.555                    21386575.867
 116461454.901 8  90749199.520 7  22161863.969                    22161874.102
 118127285.058 7  92047412.85545  22478852.961                    22478858.871
 118231014.464 7  92128145.02545  22498614.625                    22498623.379
 129062302.499 6 100568100.11743  24559745.539                    24559753.789
 11  8 24  2 52 30.0000000  0 10G15G18G29G12G26G05G25G02G30G21
 118965302.976 7  92700310.546 7  22638341.367                    22638349.297
 128132248.267 6  99843359.27143  24382758.586                    24382767.160
 111053900.618 8  86535576.723 7  21132855.156                    21132861.969
 121123869.537 7  94382304.900 6  23049097.820                    23049105.992
 115370798.508 8  89899416.57945  21954330.391                    21954338.461
 112456716.050 8  87628718.766 7  21399774.867                    21399781.848
 116514746.732 8  90790725.600 7  22172005.336                    22172016.109
 118174060.578 7  92083861.30045  22487754.133                    22487759.625
 118292212.178 7  92175831.51545  22510260.414                    22510268.820
 129005997.292 6 100524226.01943  24549032.148                    24549039.695
 11  8 24  2 53  0.0000000  0 10G15G18G29G12G26G05G25G02G30G21
 118874477.120 7  92629537.203 7  22621057.516                    22621065.793
 128046019.138 6  99776167.89043  24366349.234                    24366358.309
 110991436.885 8  86486903.709 7  21120968.555                    21120975.801
 121215102.146 7  94453395.205 6  23066459.914                    23066467.313
 115304184.581 7  89847509.65545  21941654.234                    21941662.195
 112526393.816 8  87683013.134 7  21413034.172                    21413041.070
 116568437.132 8  90832562.252 7  22182222.547                    22182232.852
 118220936.584 7  92120388.03145  22496674.336                    22496680.344
 118353762.259 7  92223792.58345  22521972.813                    22521981.457
 128949666.146 6 100480331.69143  24538312.023                    24538320.402
 11  8 24  2 53 30.0000000  0 10G15G18G29G12G26G05G25G02G30G21
 118783835.092 7  92558907.108 7  22603809.141                    22603817.828
 127959977.583 6  99709122.61643  24349976.109                    24349985.176
 110929279.839 8  86438469.674 7  21109140.625                    21109147.598
 121306455.659 7  94524579.741 6  23083843.297                    23083851.117
 115238021.274 8  89795953.85845  21929063.422                    21929072.047
 112596348.701 8  87737523.432 7  21426346.336                    21426352.754
 116622523.656 8  90874707.568 7  22192514.313                    22192524.637
 118267913.767 7  92156993.59245  22505613.898                    22505619.363
 118415662.042 7  92272026.14045  22533752.016                    22533760.598
 128893308.628 6 100436416.78943  24527587.352                    24527595.066
 11  8 24  2 54  0.0000000  0 10G15G18G29G12G26G05G25G02G30G21
 118693379.808 7  92488422.525 7  22586595.891                    22586604.617
 127874124.895 6  99642224.50843  24333638.953                    24333648.023
 110867431.897 8  86390276.495 7  21097371.242                    21097378.344
 121397926.709 7  94595855.848 6  23101249.500                    23101257.402
 115172311.744 8  89744751.66345  21916559.023                    21916567.570
 112666578.086 8  87792247.628 7  21439710.297                    21439716.941
 116677003.474 8  90917159.354 7  22202881.766                    22202892.156
 118314992.474 7  92193678.26845  22514572.867                    22514578.582
 118477908.304 7  92320529.68945  22545596.961                    22545605.551
 128836924.225 6 100392480.96743  24516858.094                    24516865.387
 11  8 24  2 54 30.0000000  0 10G15G18G29G12G26G05G25G02G30G21
 118603113.942 7  92418085.551 7  22569418.734                    22569426.672
 127788461.481 6  99575473.88843  24317337.836                    24317346.219
 110805894.771 8  86342325.508 7  21085661.375                    21085668.441
 121489512.000 7  94667220.994 6  23118677.781                    23118685.508
 115107058.853 8  89693905.27645  21904142.367                    21904150.590
 112737078.817 8  87847183.261 7  21453126.188                    21453132.797
 116731873.495 8  90959915.189 7  22213323.211                    22213333.621
 118362172.847 7  92230442.14945  22523550.805                    22523556.473
 118540497.621 7  92369300.55745  22557507.680                    22557516.070
 128780512.462 6 100348523.79343  24506122.844                    24506130.715
 11  8 24  2 55  0.0000000  0 10G15G18G29G12G26G05G25G02G30G21
 118513041.425 7  92347899.220 7  22552278.531                    22552286.828
 127702989.095 6  99508872.14743  24301072.492                    24301081.469
 110744671.423 8  86294619.026 7  21074010.773                    21074017.785
 121581208.942 7  94738673.108 6  23136127.391                    23136134.691
 115042266.647 7  89643417.86645  21891812.766                    21891820.805
 112807849.135 8  87902328.960 7  21466592.734                    21466599.906
 116787131.457 8  91002973.328 7  22223838.438                    22223849.043
 118409455.531 7  92267285.76745  22532548.484                    22532553.602
 118603427.339 7  92418336.67145  22569482.992                    22569491.465
 128724073.061 6 100304545.11643  24495383.578                    24495390.098
 11  8 24  2 55 30.0000000  0 10G15G18G29G12G26G05G25G02G30G21
 118423165.581 7  92277866.155 7  22535175.820                    22535183.488
 127617709.437 6  99442420.55943  24284844.438                    24284853.313
 110683764.971 8  86247159.468 7  21062420.742                    21062427.695
 121673015.088 7  94810210.324 6  23153597.211                    23153604.879
 114977938.704 7  89593292.22245  21879571.523                    21879579.574
 112878887.188 8  87957683.289 7  21480111.477                    21480118.195
 116842775.159 8  91046332.047 7  22234426.891                    22234437.051
 118456841.379 7  92304209.77845  22541565.531                    22541571.016
 118666695.072 7  92467636.17745  22581522.297                    22581530.961
 128667605.682 6 100260544.63143  24484637.773                    24484645.191
 11  8 24  2 56  0.0000000  0 10G15G18G29G12G26G05G25G02G30G21
 118333489.146 7  92207988.473 7  22518111.055                    22518118.645
 127532623.132 6  99376119.61843  24268653.078                    24268662.168
 110623177.090 8  86199948.148 7  21050890.852                    21050898.320
 121764926.767 7  94881829.785 6  23171087.555                    23171095.297
 114914078.027 7  89543530.66645  21867419.391                    21867427.508
 112950189.951 8  88013243.886 7  21493679.719                    21493686.711
 116898801.566 8  91089988.979 7  22245088.523                    22245098.672
 118504330.499 7  92341214.25645  22550602.602                    22550607.898
 118730297.362 7  92517196.38445  22593625.180                    22593633.656
 128611109.852 6 100216521.95343  24473886.734                    24473894.730
 11  8 24  2 56 30.0000000  0 10G15G18G29G12G26G05G25G02G30G21
 118244015.039 7  92138268.446 7  22501084.570                    22501092.332
 127447731.208 6  99309970.15843  24252498.078                    24252507.215
 110562909.740 7  86152986.593 7  21039422.578                    21039429.824
 121856940.800 7  94953529.006 6  23188597.227                    23188604.906
 114850687.426 7  89494135.41545  21855356.656                    21855364.512
 113021754.654 8  88069008.597 7  21507297.828                    21507305.180
 116955207.429 8  91133941.590 7  22255822.039                    22255832.348
 118551923.254 7  92378299.48245  22559659.367                    22559665.000
 118794230.594 7  92567014.46545  22605791.164                    22605799.660
 128554584.644 6 100172476.41343  24463130.188                    24463138.441
 11  8 24  2 57  0.0000000  0 10G15G18G29G12G26G05G25G02G30G21
 118154746.839 7  92068708.869 7  22484097.383                    22484105.676
 127363035.146 6  99243973.33743  24236381.141                    24236390.086
 110502966.053 7  86106277.244 7  21028015.758                    21028022.707
 121949054.496 7  95025305.874 6  23206126.203                    23206133.578
 114787770.640 7  89445109.38145  21843383.750                    21843391.605
 113093579.459 8  88124975.968 7  21520965.688                    21520972.758
 117011990.592 7  91178188.204 7  22266627.500                    22266638.082
 118599620.217 7  92415465.90745  22568735.758                    22568742.121
 118858492.359 7  92617088.55345  22618020.281                    22618028.254
 128498030.154 6 100128408.06843  24452368.383                    24452376.090
 11  8 24  2 57 30.0000000  0 10G15G18G29G12G26G05G25G02G30G21
 118065686.987 7  91999311.617 7  22467150.266                    22467157.996
 127278535.328 6  99178129.33543  24220301.180                    24220309.727
 110443347.518 8  86059821.244 7  21016670.609                    21016678.121
 122041264.239 7  95097157.596 6  23223672.391                    23223681.012
 114725330.178 7  89396454.51245  21831501.734                    21831509.613
 113165661.026 8  88181143.415 7  21534682.430                    21534689.719
 117069147.662 8  91222726.178 7  22277504.484                    22277514.797
 118647421.472 7  92452713.60045  22577831.641                    22577837.859
 118923079.012 7  92667415.80545  22630310.453                    22630319.258
 128441445.716 6 100084316.37043  24441600.469                    24441608.035
 11  8 24  2 58  0.0000000  0 10G15G18G29G12G26G05G25G02G30G21
 117976839.449 7  91930079.816 7  22450242.648                    22450250.777
 127194233.448 6  99112439.65343  24204259.117                    24204267.902
 110384057.897 8  86013621.554 7  21005388.375                    21005395.340
 122133567.889 7  95169082.472 6  23241237.359                    23241245.191
 114663370.146 7  89348173.98645  21819711.422                    21819719.250
 113237997.768 8  88237509.705 7  21548447.977                    21548454.902
 117126676.587 7  91267553.916 7  22288451.344                    22288462.078
 118695328.264 7  92490043.53545  22586948.195                    22586954.129
 118987988.144 7  92717994.34645  22642662.023                    22642670.852
 128384831.345 6 100040201.35343  24430827.133                    24430834.777
 11  8 24  2 58 30.0000000  0 10G15G18G29G12G26G05G25G02G30G21
 117888206.657 7  91861015.353 7  22433375.961                    22433383.766
 127110130.596 6  99046905.06743  24188254.766                    24188263.520
 110325098.222 8  85967678.963 7  20994168.477                    20994175.594
 122225961.622 7  95241077.557 6  23258819.422                    23258826.934
 114601893.236 7  89300269.90945  21808012.516                    21808020.480
 113310586.628 8  88294072.454 7  21562260.703                    21562267.867
 117184574.046 7  91312668.809 7  22299469.094                    22299479.230
 118743340.445 7  92527455.58145  22596084.773                    22596090.449
 119053216.141 7  92768821.34745  22655074.352                    22655083.422
 128328185.897 6  99996062.12043  24420047.547                    24420055.086
 11  8 24  2 59  0.0000000  0 10G15G18G29G12G26G05G25G02G30G21
 117799791.964 7  91792120.838 7  22416551.445                    22416559.352
 127026227.640 6  98981526.22343  24172288.781                    24172297.277
 110266471.183 8  85921995.572 7  20983012.016                    20983019.125
 122318443.040 7  95313140.951 6  23276417.695                    23276426.031
 114540902.630 7  89252744.80045  21796406.523                    21796414.504
 113383425.258 8  88350829.828 7  21576121.578                    21576128.695
 117242837.283 7  91358068.730 7  22310556.719                    22310566.566
 118791458.432 7  92564950.07345  22605241.508                    22605246.613
 119118759.924 7  92819894.41045  22667547.414                    22667556.105
 128271509.387 6  99951898.67043  24409262.414                    24409269.973
 11  8 24  2 59 30.0000000  0 10G15G18G29G12G26G05G25G02G30G21
 117711598.723 7  91723398.881 7  22399768.742                    22399776.680
 126942525.894 6  98916304.15743  24156360.477                    24156369.770
 110208179.571 8  85876573.551 7  20971919.602                    20971926.672
 122411008.475 7  95385269.822 6  23294032.305                    23294041.098
 114480402.001 7  89205601.47445  21784893.438                    21784901.488
 113456511.440 8  88407780.101 7  21590029.430                    21590036.000
 117301463.789 7  91403751.722 7  22321712.672                    22321722.855
 118839683.000 7  92602527.64245  22614418.023                    22614423.898
 119184616.704 7  92871211.38245  22680079.180                    22680087.977
 128214801.439 6  99907710.74943  24398471.508                    24398478.617
 11  8 24  3  0  0.0000000  0 10G15G18G29G12G26G05G25G02G30G21
 117623629.991 7  91654851.871 6  22383029.125                    22383036.379
 126859026.568 6  98851239.83343  24140471.828                    24140479.965
 110150225.592 8  85831414.619 7  20960891.180                    20960898.625
 122503655.378 7  95457462.164 6  23311662.508                    23311671.164
 114420394.257 7  89158842.22245  21773474.359                    21773481.695
 113529842.944 8  88464921.535 7  21603984.109                    21603990.941
 117360450.774 7  91449715.592 7  22332937.438                    22332947.305
 118888014.511 7  92640188.52745  22623615.289                    22623621.332
 119250783.366 7  92922769.79745  22692670.711                    22692678.727
 128158061.356 6  99863497.76843  24387673.930                    24387681.477
 11  8 24  3  0 30.0000000  0 10G15G18G29G12G26G05G25G02G30G21
 117535888.663 7  91586482.051 7  22366331.945                    22366340.043
 126775730.248 6  98786333.68443  24124620.578                    24124629.016
 110092611.226 8  85786520.329 7  20949927.570                    20949934.852
 122596380.471 7  95529715.422 6  23329307.984                    23329316.309
 114360882.238 7  89112469.24445  21762149.648                    21762157.488
 113603416.999 8  88522251.971 7  21617984.859                    21617991.656
 117419795.078 7  91495957.889 7  22344230.086                    22344240.574
 118936453.206 7  92677932.93445  22632833.375                    22632838.828
 119317256.550 7  92974567.08545  22705319.859                    22705328.484
 128101288.896 6  99819259.59043  24376870.391                    24376878.121
 11  8 24  3  1  0.0000000  0 10G15G18G29G12G26G05G25G02G30G21
 117448377.921 7  91518291.905 6  22349679.484                    22349687.008
 126692638.221 6  98721586.76343  24108808.859                    24108817.277
 110035339.246 8  85741892.829 7  20939029.266                    20939036.215
 122689180.951 7  95602027.429 6  23346967.109                    23346975.770
 114301869.427 7  89066485.26245  21750919.609                    21750927.367
 113677231.170 8  88579769.510 7  21632030.969                    21632037.941
 117479494.072 7  91542476.570 7  22355590.750                    22355601.023
 118984999.790 7  92715761.39044  22642071.141                    22642076.805
 119384033.222 7  93026600.85444  22718027.484                    22718036.293
 128044483.727 6  99774995.86443  24366060.453                    24366068.383
 11  8 24  3  1 30.0000000  0 10G15G18G29G12G26G05G25G02G30G21
 117361100.546 7  91450283.608 6  22333071.188                    22333078.613
 126609751.381 7  98656999.69343  24093035.781                    24093044.152
 109978411.550 8  85697533.605 7  20928196.289                    20928203.113
 122782053.373 7  95674395.498 6  23364639.867                    23364648.383
 114243358.545 7  89020892.40045  21739785.742                    21739793.441
 113751282.690 8  88637471.999 7  21646122.594                    21646129.324
 117539544.538 7  91589269.127 7  22367017.813                    22367028.371
 119033654.508 7  92753674.10544  22651330.195                    22651335.090
 119451109.982 7  93078868.45145  22730791.711                    22730800.215
 127987645.166 6  99730706.14543  24355244.641                    24355252.445
 11  8 24  3  2  0.0000000  0 10G15G18G29G12G26G05G25G02G30G21
 117274060.475 7  91382460.225 7  22316507.828                    22316515.754
 126527071.285 7  98592573.74643  24077302.422                    24077310.602
 109921831.361 8  85653445.174 7  20917429.156                    20917436.414
 122874995.651 7  95746817.995 6  23382326.508                    23382334.766
 114185353.398 7  88975693.62145  21728747.414                    21728755.121
 113825569.893 8  88695358.126 7  21660258.742                    21660265.883
 117599944.294 7  91636333.849 7  22378511.750                    22378522.344
 119082418.123 7  92791671.71044  22660608.563                    22660614.953
 119518484.373 7  93131367.96745  22743612.242                    22743620.879
 127930773.323 6  99686390.45543  24344422.531                    24344429.883
 11  8 24  3  2 30.0000000  0 10G15G18G29G12G26G05G25G02G30G21
 117187260.468 7  91314823.908 7  22299990.117                    22299998.199
 126444598.853 6  98528309.62343  24061608.164                    24061616.605
 109865600.538 8  85609628.968 7  20906728.875                    20906735.984
 122968004.345 7  95819292.231 6  23400026.180                    23400034.379
 114127856.503 7  88930890.86945  21717806.023                    21717813.941
 113900089.926 8  88753425.678 7  21674439.586                    21674446.219
 117660690.197 7  91683668.293 7  22390071.242                    22390082.051
 119131290.927 7  92829754.37744  22669909.656                    22669915.125
 119586152.977 7  93184096.73644  22756489.477                    22756497.766
 127873867.594 6  99642048.38543  24333593.438                    24333601.242
 11  8 24  3  3  0.0000000  0 10G15G18G29G12G26G05G25G02G30G21
 117100702.700 7  91247376.344 7  22283518.461                    22283527.074
 126362334.553 7  98464207.67143  24045954.102                    24045962.441
 109809720.755 7  85566086.302 7  20896095.266                    20896102.379
 123061075.732 7  95891815.339 6  23417736.914                    23417745.543
 114070870.676 7  88886486.35745  21706962.180                    21706969.629
 113974840.121 8  88811672.578 7  21688664.250                    21688670.875
 117721778.973 7  91731269.921 7  22401696.422                    22401706.301
 119180273.013 7  92867922.20144  22679230.586                    22679236.332
 119654112.141 7  93237051.91744  22769421.727                    22769429.480
 127816927.388 6  99597679.43243  24322758.375                    24322765.871
 11  8 24  3  3 30.0000000  0 10G15G18G29G12G26G05G25G02G30G21
 117014391.720 7  91180121.085 7  22267094.367                    22267101.992
 126280279.397 6  98400268.68243  24030339.102                    24030347.594
 109754194.973 8  85522819.483 7  20885529.078                    20885535.801
 123154207.593 7  95964385.575 6  23435459.273                    23435467.582
 114014399.378 7  88842482.78345  21696215.977                    21696223.703
 114049818.378 8  88870097.187 7  21702932.156                    21702939.301
 117783208.114 7  91779136.757 7  22413385.781                    22413395.301
 119229365.377 7  92906175.95344  22688572.047                    22688578.543
 119722359.312 7  93290231.52145  22782408.891                    22782416.969
 127759952.734 6  99553283.63143  24311916.414                    24311923.348
 11  8 24  3  4  0.0000000  0 10G15G18G29G12G26G05G25G02G30G21
 116928330.012 7  91113060.068 7  22250717.484                    22250724.996
 126198434.629 6  98336493.60543  24014764.219                    24014772.973
 109699025.622 8  85479830.398 7  20875030.742                    20875037.699
 123247396.917 7  96037000.582 6  23453193.016                    23453200.930
 113958445.738 7  88798882.57945  21685567.992                    21685576.168
 114125022.329 8  88928697.663 7  21717242.734                    21717249.832
 117844974.745 7  91827266.578 7  22425139.508                    22425149.949
 119278568.657 7  92944516.13445  22697935.672                    22697941.250
 119790891.163 7  93343632.92944  22795450.328                    22795457.781
 127702942.773 7  99508860.32343  24301067.977                    24301074.883
 11  8 24  3  4 30.0000000  0 10G15G18G29G12G26G05G25G02G30G21
 116842520.624 7  91046195.649 7  22234388.180                    22234395.707
 126116801.437 6  98272883.41643  23999230.258                    23999238.402
 109644214.842 8  85437120.720 7  20864600.445                    20864607.457
 123340640.893 7  96109658.177 6  23470936.398                    23470945.039
 113903012.493 7  88755687.86645  21675019.563                    21675027.559
 114200449.520 8  88987472.091 7  21731596.266                    21731603.172
 117907075.993 7  91875657.130 7  22436956.859                    22436967.082
 119327882.947 7  92982942.82645  22707319.523                    22707325.340
 119859704.670 7  93397253.83544  22808544.516                    22808553.129
 127645897.239 7  99464409.30043  24290212.195                    24290219.348
 11  8 24  3  5  0.0000000  0 10G15G18G29G12G26G05G25G02G30G21
 116756966.568 7  90979530.200 7  22218107.891                    22218115.582
 126035380.960 6  98209438.97743  23983735.547                    23983744.289
 109589764.929 8  85394692.250 7  20854238.961                    20854246.027
 123433936.184 7  96182355.748 6  23488690.578                    23488698.242
 113848102.697 7  88712901.03745  21664570.297                    21664578.301
 114276097.352 8  89046418.451 7  21745991.469                    21745998.207
 117969508.682 7  91924305.957 7  22448837.492                    22448848.125
 119377308.598 7  93021456.26244  22716725.500                    22716730.547
 119928796.347 7  93451091.47845  22821691.680                    22821700.684
 127588815.909 7  99419930.39343  24279349.711                    24279357.379
 11  8 24  3  5 30.0000000  0 10G15G18G29G12G26G05G25G02G30G21
 116671671.235 7  90913066.349 7  22201876.531                    22201884.371
 125954174.075 6  98146160.98643  23968282.586                    23968290.863
 109535678.767 8  85352547.202 7  20843946.570                    20843954.203
 123527279.803 7  96255090.992 6  23506453.094                    23506460.504
 113793719.623 7  88670524.64645  21654221.695                    21654229.523
 114351963.809 8  89105535.167 7  21760428.555                    21760435.148
 118032270.348 7  91973211.124 7  22460780.523                    22460790.957
 119426846.596 7  93060057.27844  22726152.211                    22726157.770
 119998163.600 7  93505143.84345  22834892.492                    22834901.551
 127531698.810 7  99375423.60744  24268481.578                    24268488.035
 11  8 24  3  6  0.0000000  0 10G15G18G29G12G26G05G25G02G30G21
 116586638.069 7  90846806.776 7  22185695.422                    22185702.859
 125873181.488 6  98083049.95443  23952870.641                    23952878.008
 109481958.280 8  85310687.099 7  20833723.805                    20833731.359
 123620669.022 6  96327861.778 6  23524224.414                    23524232.273
 113739866.258 7  88628561.01545  21643973.930                    21643981.504
 114428046.475 8  89164820.347 7  21774906.688                    21774913.559
 118095358.057 7  92022370.349 7  22472785.758                    22472796.527
 119476497.242 7  93098746.08244  22735600.273                    22735605.844
 120067803.135 7  93559408.38645  22848144.773                    22848153.156
 127474545.363 7  99330888.52143  24257605.188                    24257611.781
 11  8 24  3  6 30.0000000  0 10G15G18G29G12G26G05G25G02G30G21
 116501869.488 7  90780753.388 7  22169564.469                    22169571.785
 125792403.975 6  98020106.52943  23937498.773                    23937506.645
 109428605.266 8  85269113.352 7  20823571.195                    20823578.180
 123714100.672 6  96400665.602 6  23542003.391                    23542011.516
 113686544.955 7  88587011.98745  21633827.102                    21633835.211
 114504342.550 8  89224271.824 7  21789424.898                    21789432.266
 118158768.314 7  92071780.917 7  22484852.641                    22484862.988
 119526260.761 7  93137522.81644  22745069.648                    22745075.547
 120137711.255 7  93613882.21645  22861447.945                    22861456.305
 127417354.806 6  99286324.52043  24246722.352                    24246729.180
 11  8 24  3  7  0.0000000  0 10G15G18G29G12G26G05G25G02G30G21
 116417368.657 7  90714908.633 7  22153484.563                    22153491.996
 125711842.752 6  97957331.64143  23922168.516                    23922176.164
 109375622.612 8  85227828.189 7  20813489.039                    20813495.977
 123807571.883 6  96473500.255 6  23559790.633                    23559798.988
 113633758.843 7  88545879.97845  21623782.336                    21623789.848
 114580850.086 8  89283888.078 7  21803984.273                    21803991.199
 118222498.549 7  92121440.824 7  22496979.820                    22496990.320
 119576137.801 7  93176388.03344  22754561.383                    22754567.395
 120207885.154 7  93668563.16045  22874801.031                    22874809.434
 127360127.297 7  99241731.71543  24235830.828                    24235838.898
 11  8 24  3  7 30.0000000  0 10G15G18G29G12G26G05G25G02G30G21
 116333138.822 7  90649275.035 7  22137456.359                    22137463.672
 125631498.735 6  97894726.00643  23906879.219                    23906887.430
 109323012.359 8  85186833.214 7  20803477.758                    20803484.664
 123901079.731 6  96546363.458 6  23577584.906                    23577592.656
 113581511.121 7  88505167.49845  21613839.625                    21613847.543
 114657566.297 8  89343666.951 7  21818582.695                    21818589.594
 118286545.756 7  92171347.705 7  22509167.922                    22509178.063
 119626128.923 7  93215342.13544  22764074.148                    22764080.063
 120278321.635 7  93723448.69044  22888204.852                    22888213.227
 127302862.407 6  99197109.80143  24224934.859                    24224941.867
 11  8 24  3  8  0.0000000  0 10G15G18G29G12G26G05G25G02G30G21
 116249182.787 7  90583854.800 7  22121479.930                    22121487.453
 125551372.689 6  97832290.17243  23891632.461                    23891639.906
 109270776.663 8  85146130.099 7  20793537.500                    20793544.605
 123994621.570 7  96619253.150 6  23595385.547                    23595393.152
 113529804.150 7  88464876.38245  21604000.273                    21604007.836
 114734488.793 8  89403606.560 7  21833220.422                    21833227.559
 118350906.877 7  92221499.203 7  22521415.258                    22521425.730
 119676234.470 7  93254385.39344  22773609.133                    22773614.410
 120349017.372 7  93778536.23944  22901657.906                    22901666.262
 127245559.466 6  99152458.21243  24214029.883                    24214037.441
 11  8 24  3  8 30.0000000  0 10G15G18G29G12G26G05G25G02G30G21
 116165504.082 7  90518650.667 7  22105556.188                    22105563.594
 125471465.953 6  97770025.23643  23876426.344                    23876433.863
 109218918.382 8  85105721.071 7  20783669.047                    20783676.277
 124088194.009 7  96692166.692 6  23613191.328                    23613199.273
 113478641.524 7  88425009.43545  21594264.008                    21594272.000
 114811615.752 8  89463705.490 7  21847897.188                    21847904.156
 118415579.272 7  92271893.272 7  22533721.977                    22533731.961
 119726455.209 7  93293518.41644  22783165.969                    22783171.203
 120419969.514 7  93833823.60644  22915159.633                    22915167.738
 127188218.535 6  99107777.04743  24203117.922                    24203125.480
 11  8 24  3  9  0.0000000  0 10G15G18G29G12G26G05G25G02G30G21
 116082105.555 7  90453664.851 7  22089685.688                    22089693.316
 125391779.281 6  97707931.79843  23861262.281                    23861269.633
 109167439.805 8  85065607.920 7  20773873.313                    20773880.219
 124181794.206 7  96765101.858 6  23631003.555                    23631011.117
 113428025.637 8  88385568.51745  21584632.227                    21584640.266
 114888944.594 8  89523961.731 7  21862612.813                    21862619.453
 118480559.856 7  92322527.469 7  22546087.211                    22546097.328
 119776791.636 7  93332741.57544  22792744.852                    22792750.035
 120491174.872 7  93889308.27344  22928709.500                    22928718.184
 127130839.238 6  99063065.98743  24192199.547                    24192206.754
 11  8 24  3  9 30.0000000  0 10G15G18G29G12G26G05G25G02G30G21
 115998990.491 7  90388899.910 7  22073869.750                    22073877.297
 125312313.298 6  97646010.33643  23846140.102                    23846148.422
 109116342.742 8  85025792.061 8  20764149.719                    20764157.094
 124275419.487 6  96838056.571 6  23648819.172                    23648827.734
 113377959.498 7  88346555.98545  21575104.906                    21575113.133
 114966472.776 8  89584373.310 7  21877365.867                    21877372.652
 118545845.666 7  92373399.509 7  22558511.172                    22558520.813
 119827243.872 7  93372054.99645  22802345.414                    22802350.988
 120562630.047 7  93944987.59144  22942306.883                    22942315.359
 127073421.429 6  99018324.91843  24181272.570                    24181280.246
 11  8 24  3 10  0.0000000  0 10G15G18G29G12G26G05G25G02G30G21
 115916161.448 7  90324357.846 7  22058107.563                    22058115.621
 125233069.186 6  97584261.75743  23831060.766                    23831069.137
 109065629.420 8  84986275.207 7  20754499.281                    20754506.410
 124369066.866 7  96911028.499 6  23666639.766                    23666648.336
 113328445.512 8  88307973.70745  21565682.969                    21565691.000
 115044197.812 8  89644938.281 7  21892156.547                    21892163.070
 118611433.452 7  92424506.857 7  22570991.867                    22571001.789
 119877812.398 7  93411459.02044  22811967.906                    22811973.863
 120634331.756 7  94000859.02644  22955951.320                    22955959.652
 127015964.541 6  98973553.37843  24170339.617                    24170346.539
 11  8 24  3 10 30.0000000  0 10G15G18G29G12G26G05G25G02G30G21
 115833622.229 7  90260041.621 7  22042401.281                    22042408.477
 125154047.977 6  97522686.84643  23816022.789                    23816031.746
 109015302.263 8  84947059.267 7  20744922.156                    20744929.227
 124462733.296 7  96984015.286 6  23684463.820                    23684472.230
 113279486.767 8  88269824.07045  21556365.961                    21556374.027
 115122117.779 8  89705655.135 7  21906984.180                    21906991.043
 118677320.498 7  92475847.399 7  22583529.766                    22583539.664
 119928497.909 7  93450954.22245  22821613.328                    22821619.031
 120706277.066 7  94056920.28044  22969642.016                    22969650.883
 126958468.293 7  98928751.18743  24159397.828                    24159405.652
 11  8 24  3 11  0.0000000  0 10G15G18G29G12G26G05G25G02G30G21
 115751375.664 7  90195953.445 7  22026749.773                    22026757.238
 125075250.549 6  97461286.32243  23801028.438                    23801037.145
 108965363.995 8  84908146.355 7  20735419.195                    20735426.371
 124556416.074 7  97057014.807 6  23702291.070                    23702299.660
 113231086.004 8  88232109.23845  21547156.008                    21547163.645
 115200230.432 8  89766522.138 7  21921848.242                    21921855.199
 118743503.974 8  92527418.917 7  22596124.344                    22596133.785
 119979301.165 7  93490541.18245  22831281.008                    22831287.074
 120778462.885 7  94113168.94644  22983379.195                    22983387.520
 126900932.494 7  98883918.14843  24148449.406                    24148456.863
 11  8 24  3 11 30.0000000  0 10G15G18G29G12G26G05G25G02G30G21
 115669424.071 7  90132095.124 7  22011154.836                    22011162.551
 124996677.043 6  97400060.27143  23786076.852                    23786084.633
 108915815.905 8  84869537.482 7  20725990.453                    20725997.344
 124650111.700 7  97130024.334 6  23720121.438                    23720129.617
 113183245.565 8  88194831.01345  21538052.398                    21538060.098
 115278532.627 8  89827536.829 7  21936748.594                    21936755.613
 118809980.171 7  92579218.526 7  22608774.406                    22608784.238
 120030222.113 7  93530219.81345  22840970.656                    22840976.445
 120850885.368 7  94169602.01944  22997160.039                    22997168.613
 126843356.577 7  98839053.85943  24137493.195                    24137500.426
 11  8 24  3 12  0.0000000  0 10G15G18G29G12G26G05G25G02G30G21
 115587770.942 7  90068469.357 7  21995616.781                    21995624.777
 124918328.591 7  97339009.60443  23771167.469                    23771174.859
 108866660.394 8  84831234.508 7  20716636.438                    20716643.391
 124743817.569 7  97203041.840 6  23737952.750                    23737960.621
 113135968.243 8  88157991.59445  21529055.430                    21529063.141
 115357022.203 8  89888697.547 7  21951684.648                    21951691.746
 118876746.442 7  92631244.174 7  22621479.258                    22621489.734
 120081261.300 7  93569990.60144  22850683.195                    22850688.898
 120923541.613 7  94226217.26344  23010986.406                    23010995.066
 126785740.562 7  98794158.30843  24126528.938                    24126535.758
 11  8 24  3 12 30.0000000  0 10G15G18G29G12G26G05G25G02G30G21
 115506419.485 7  90005078.658 7  21980135.938                    21980143.594
 124840206.389 6  97278135.22543  23756300.820                    23756309.113
 108817900.437 8  84793239.758 8  20707357.500                    20707364.852
 124837531.152 7  97276065.371 6  23755786.180                    23755793.672
 113089257.326 8  88121593.51745  21520166.766                    21520174.742
 115435697.401 8  89950002.911 7  21966655.859                    21966663.066
 118943800.138 7  92683493.772 7  22634239.258                    22634249.781
 120132419.479 7  93609854.08544  22860418.547                    22860424.086
 120996428.869 7  94283012.50144  23024856.641                    23024865.188
 126728084.285 7  98749231.37943  24115558.023                    24115564.602
 11  8 24  3 13  0.0000000  0 10G15G18G29G12G26G05G25G02G30G21
 115425372.719 7  89941925.389 7  21964713.203                    21964721.059
 124762310.957 6  97217437.55443  23741477.891                    23741486.063
 108769537.792 7  84755554.600 7  20698154.727                    20698161.852
 124931249.433 7  97349092.558 6  23773619.938                    23773628.512
 113043115.082 7  88085638.57645  21511386.148                    21511393.801
 115514555.807 8  90011451.017 7  21981662.406                    21981669.148
 119011137.916 8  92735964.751 7  22647053.016                    22647063.641
 120183697.174 7  93649810.72744  22870175.734                    22870181.648
 121069543.541 7  94339984.95344  23038769.289                    23038778.496
 126670387.180 7  98704272.64143  24104577.875                    24104585.301
 11  8 24  3 13 30.0000000  0 10G15G18G29G12G26G05G25G02G30G21
 115344633.816 7  89879012.007 7  21949349.188                    21949356.711
 124684643.429 6  97156917.47543  23726698.570                    23726706.371
 108721574.931 8  84718180.954 7  20689027.453                    20689034.449
 125024969.843 7  97422121.375 6  23791454.133                    23791462.859
 112997543.993 8  88050128.68445  21502714.344                    21502722.137
 115593595.136 8  90073040.112 7  21996703.164                    21996709.617
 119078756.912 8  92788654.859 7  22659921.141                    22659931.641
 120235094.900 7  93689860.88444  22879956.617                    22879963.059
 121142882.612 7  94397132.26844  23052725.508                    23052734.309
 126612649.062 7  98659281.94343  24093590.867                    24093597.926
 11  8 24  3 14  0.0000000  0 10G15G18G29G12G26G05G25G02G30G21
 115264205.715 7  89816340.806 7  21934044.406                    21934052.301
 124607204.555 6  97096575.57843  23711962.922                    23711970.516
 108674013.981 7  84681120.492 7  20679977.297                    20679983.957
 125118688.969 7  97495149.208 6  23809289.328                    23809296.707
 112952547.028 7  88015066.15245  21494151.875                    21494158.898
 115672812.807 8  90134768.161 7  22011777.680                    22011784.629
 119146654.055 8  92841561.698 7  22672841.070                    22672851.848
 120286613.244 7  93730005.02445  22889760.344                    22889766.145
 121216442.802 7  94454451.86944  23066723.742                    23066731.930
 126554869.716 7  98614259.11643  24082596.000                    24082603.152
 11  8 24  3 14 30.0000000  0 10G15G18G29G12G26G05G25G02G30G21
 115184091.238 7  89753913.982 7  21918798.664                    21918806.656
 124529995.034 6  97036412.34443  23697269.852                    23697277.820
 108626856.802 8  84644374.651 8  20671002.953                    20671010.262
 125212403.888 7  97568173.758 6  23827121.758                    23827130.496
 112908126.412 8  87980452.73245  21485698.352                    21485706.344
 115752206.261 8  90196633.191 7  22026885.930                    22026892.633
 119214826.094 7  92894682.745 7  22685813.664                    22685824.270
 120338252.373 7  93770243.28044  22899586.984                    22899592.875
 121290220.652 7  94511941.08244  23080763.430                    23080771.590
 126497048.959 7  98569204.00844  24071593.211                    24071600.332
 11  8 24  3 15  0.0000000  0 10G15G18G29G12G26G05G25G02G30G21
 115104293.135 7  89691733.673 7  21903614.273                    21903621.570
 124453015.876 6  96976428.63643  23682620.484                    23682628.906
 108580105.747 8  84607945.263 7  20662106.875                    20662113.711
 125306111.605 6  97641192.682 6  23844953.578                    23844962.555
 112864284.656 7  87946290.37045  21477355.719                    21477362.879
 115831773.583 8  90258633.689 7  22042027.023                    22042033.734
 119283269.938 7  92948015.572 7  22698838.391                    22698848.879
 120390012.914 7  93810576.13144  22909436.602                    22909442.648
 121364213.074 7  94569597.49144  23094843.352                    23094852.180
 126439186.295 7  98524116.26243  24060582.633                    24060589.137
